GFSNGP_925_rhum_000.txt.gz
RH
42 39 38 45 50 56 56 49 45 39 43 34 36 34 36 38 54 62 55 52 64 88 87 72 63 56 50 46 43 40 37 40 33 23 19 21 23 28 31 36 38 42 39 39
34 34 36 35 34 36 42 48 52 47 42 32 35 36 48 50 59 59 51 58 84 83 74 70 61 52 48 45 42 35 35 29 22 21 21 22 24 28 30 32 34 38 38 39
34 47 44 46 45 43 36 35 32 34 30 35 37 46 52 55 58 54 54 81 82 77 72 64 51 48 47 42 35 24 27 22 22 23 25 25 27 30 32 34 35 37 36 38
53 52 61 41 42 40 39 40 37 39 42 46 51 52 52 53 62 55 73 79 77 70 62 53 48 46 40 32 23 19 23 25 25 27 30 30 32 34 34 34 35 36 38 35
69 72 58 48 44 44 43 55 50 51 49 51 47 52 52 64 60 71 81 78 70 59 55 50 44 37 29 21 21 21 26 27 28 30 33 34 36 36 36 36 38 39 37 36
90 81 70 48 43 40 39 57 55 52 53 55 52 72 65 71 76 81 72 63 60 56 51 45 34 25 21 23 24 26 28 30 31 33 35 37 38 39 40 42 42 42 42 40
82 82 73 54 49 41 57 52 63 62 61 65 66 66 71 79 75 70 64 60 56 53 46 34 25 23 24 26 27 29 31 33 36 37 38 40 41 43 46 48 48 48 45 43
84 82 81 49 48 54 59 59 56 56 56 57 69 77 77 76 74 68 64 56 50 44 35 27 25 27 28 29 30 33 35 37 39 40 41 43 45 48 50 52 52 50 50 48
74 73 57 55 55 52 54 55 52 50 49 49 69 75 74 75 72 69 59 47 40 36 31 26 28 30 32 31 34 36 39 40 42 42 44 48 50 52 55 54 55 55 55 60
62 58 68 57 54 54 55 56 56 54 53 51 54 60 72 77 77 65 51 40 34 30 29 30 31 30 32 33 36 39 42 44 45 48 51 52 53 54 55 57 58 60 66 70
79 67 58 66 59 61 62 58 59 60 57 58 58 66 80 89 87 58 44 41 31 31 32 33 32 32 33 34 37 41 44 48 50 51 53 55 55 56 58 60 64 68 69 71
83 68 66 66 56 59 62 63 66 67 61 76 80 83 88 85 56 45 37 34 31 32 35 34 36 35 34 34 39 43 50 51 53 55 58 58 58 58 63 67 68 68 67 67
69 63 61 59 67 64 64 67 70 76 72 84 86 90 71 42 35 34 31 32 34 35 36 37 37 36 34 36 40 44 50 54 58 60 60 60 62 68 72 73 69 68 67 66
60 62 64 68 69 76 83 98 96 92 92 89 84 68 48 38 32 32 34 35 36 37 36 37 38 38 34 36 41 46 49 58 62 62 65 68 71 74 73 74 74 73 70 69
77 74 70 77 88 96 90 88 89 90 87 90 80 58 37 35 36 36 36 36 36 36 37 39 40 38 35 40 46 50 57 62 64 66 67 69 70 73 75 76 74 73 74 76
88 92 99 97 96 93 88 84 93 92 96 82 65 41 33 34 37 36 35 36 44 47 41 42 43 37 41 45 50 57 63 68 64 66 71 71 74 77 74 74 76 80 84 75
80 80 96 98 95 98 90 89 96 89 87 63 42 35 36 38 40 41 40 39 41 43 42 43 41 41 46 55 59 65 69 72 69 69 75 75 75 74 77 87 91 78 80 81
71 78 82 84 88 89 91 91 89 78 51 40 37 36 40 45 49 45 43 42 43 45 39 39 42 50 59 59 62 69 72 70 70 72 74 76 78 82 77 80 85 86 82 83
79 74 76 81 84 89 91 89 76 44 40 37 39 43 41 44 46 46 45 47 50 56 46 44 49 61 62 63 64 65 68 71 74 77 79 79 83 92 94 84 81 85 89 80
61 59 62 78 83 86 80 62 46 42 37 37 40 46 48 44 44 46 48 54 49 47 50 55 62 63 63 64 67 69 72 76 79 78 76 72 76 83 92 81 80 82 75 74
70 61 49 54 65 60 58 49 43 40 37 42 46 47 48 46 47 48 55 61 48 46 58 62 63 66 67 68 70 72 74 77 77 78 79 82 82 82 81 80 78 79 81 82
72 73 64 50 44 41 38 37 37 39 42 45 47 49 52 52 50 51 51 59 54 58 64 66 66 66 67 67 72 74 76 76 74 72 73 76 79 83 85 87 89 90 92 97
71 76 73 60 51 46 39 42 43 45 48 50 51 52 54 55 57 68 67 55 60 64 63 65 67 66 70 71 72 72 71 72 74 75 78 81 85 90 94 95 95 98 98 98
72 76 82 68 52 48 55 46 47 51 53 53 54 54 56 59 58 53 55 60 62 67 65 67 69 68 69 71 71 73 74 76 77 81 86 87 94 98 99 98 97 98 98 96
67 77 85 66 64 60 53 54 55 55 58 55 51 52 54 54 61 63 65 63 66 70 69 67 66 68 70 73 74 76 78 81 84 89 93 92 92 98 97 98 98 98 98 97
84 87 82 70 61 59 61 62 62 58 58 62 59 56 57 60 63 63 60 67 67 65 65 66 69 72 75 77 79 80 81 83 84 86 87 92 95 98 97 97 98 98 98 97
81 79 75 74 71 64 60 59 61 64 61 65 71 65 67 67 60 65 64 64 67 69 72 74 76 78 80 81 82 82 84 86 87 88 94 96 97 98 98 98 98 98 99 97

GFSNGP_925_rhum_003.txt.gz
RH
46 44 50 54 58 54 49 44 45 39 47 32 32 35 34 36 49 62 62 58 77 90 85 70 58 51 47 43 39 30 26 18 19 18 18 19 20 22 24 25 26 26 28 27
35 38 35 34 36 58 52 49 48 48 44 35 34 37 47 50 59 64 59 58 82 86 75 67 57 49 46 42 32 18 18 20 21 21 23 24 24 23 23 25 28 29 32 34
36 45 42 42 44 41 35 35 34 33 29 38 47 54 50 52 60 62 56 74 88 78 70 62 50 48 44 34 20 16 20 23 24 25 27 27 27 28 30 34 36 37 38 40
44 50 57 38 46 40 42 50 38 51 49 48 52 50 47 49 60 61 63 84 80 71 64 51 48 43 34 20 18 20 24 26 28 30 32 32 33 34 36 39 41 42 42 42
64 62 51 51 46 50 51 62 54 53 51 53 48 48 51 60 62 59 81 79 71 60 55 48 43 33 22 20 23 24 28 30 31 33 34 35 36 38 40 43 45 46 46 46
88 78 65 47 43 41 40 75 62 58 62 60 57 72 69 68 78 82 74 64 60 55 51 45 31 23 23 25 24 27 29 32 34 35 36 37 40 42 44 46 50 50 51 51
77 76 68 51 46 43 58 52 63 58 57 54 62 67 67 81 78 73 68 64 58 54 45 32 26 24 27 26 27 30 32 34 34 36 38 40 44 43 46 52 55 57 55 55
84 79 71 53 51 60 63 64 60 57 54 51 54 66 78 80 80 75 67 61 54 45 35 27 25 26 27 26 30 32 34 35 37 37 40 44 48 49 52 57 59 58 59 59
70 70 62 56 57 58 58 60 56 51 50 51 62 70 76 82 81 77 63 50 44 39 31 25 27 28 28 30 33 35 37 38 37 40 44 50 50 53 58 59 59 62 63 66
68 69 63 58 56 54 53 53 53 53 52 51 52 55 67 79 82 71 54 46 37 30 26 28 29 28 31 33 35 38 39 40 41 46 52 52 55 59 58 60 62 66 70 72
76 70 70 62 58 56 57 58 58 59 58 56 59 64 74 86 88 70 48 38 33 29 30 31 30 31 32 33 35 38 42 43 45 50 56 59 61 58 59 62 67 70 71 72
77 68 66 68 61 60 63 62 63 68 67 72 74 77 86 91 79 53 47 34 31 31 33 32 33 31 31 33 37 41 46 50 52 59 62 63 62 61 64 69 68 67 68 68
68 68 62 63 72 67 68 81 93 90 90 76 87 90 81 54 45 38 32 30 32 33 34 36 36 36 34 35 38 41 46 50 58 62 64 64 67 71 73 72 69 69 69 66
61 68 71 70 77 89 96 97 95 93 91 93 89 79 63 45 37 33 30 31 34 36 37 38 38 35 32 33 38 43 46 54 62 63 70 72 72 71 71 74 74 74 70 69
80 81 81 86 88 96 93 91 91 85 86 87 89 77 49 40 35 32 33 36 37 37 36 37 36 32 31 37 43 49 57 63 68 70 71 69 68 72 73 76 73 72 74 76
95 99 98 98 96 97 97 94 90 87 87 90 93 71 49 35 32 35 37 38 40 41 36 37 38 34 38 44 54 61 65 69 68 70 72 69 72 75 75 74 76 82 82 76
86 81 92 97 97 91 90 92 88 89 95 94 81 60 36 36 39 40 36 36 39 39 38 40 39 40 48 60 62 63 67 73 72 69 72 72 75 76 78 88 95 82 84 81
72 76 68 65 75 83 87 90 94 94 92 86 55 39 39 42 43 40 39 38 38 40 37 37 42 53 62 58 61 67 70 70 71 72 74 77 80 82 82 84 87 85 83 87
73 72 69 73 78 86 89 90 89 88 60 45 42 41 38 40 42 43 43 45 48 52 41 42 44 60 59 58 65 68 70 72 75 78 80 77 76 84 90 84 89 86 84 79
67 68 65 68 71 85 90 87 83 60 46 41 39 41 43 43 44 46 49 52 45 45 46 52 62 63 60 65 70 71 73 78 77 77 78 76 76 80 78 76 76 76 78 80
67 64 60 52 56 64 78 74 60 53 47 39 40 43 44 43 47 49 53 60 44 44 57 60 61 64 66 71 72 73 76 79 78 77 75 74 77 78 80 81 84 88 87 86
61 70 70 65 57 50 44 42 48 48 41 39 42 46 50 51 51 50 50 55 50 58 65 65 65 67 69 67 72 75 75 74 72 72 74 78 81 86 90 93 95 95 96 97
61 64 68 75 72 62 52 44 40 39 41 44 48 52 54 54 55 65 67 51 56 60 64 64 68 66 69 70 73 73 71 73 76 77 79 83 87 93 97 98 96 98 97 98
60 63 67 70 76 66 61 50 44 44 48 52 54 55 56 57 55 50 52 57 62 67 64 67 68 67 69 72 70 73 77 78 79 82 87 89 96 99 96 96 97 98 96 96
60 64 76 86 79 73 61 52 52 57 60 60 56 54 56 55 61 62 62 54 55 66 67 66 65 69 73 74 77 78 80 83 86 90 95 95 94 98 97 98 97 96 98 98
71 76 81 84 81 69 63 63 65 63 60 60 58 57 57 58 60 56 54 60 64 62 61 64 70 75 77 79 81 83 84 86 88 92 92 97 98 98 97 98 99 99 100 100
85 85 80 78 73 68 64 62 61 64 63 66 68 65 66 62 54 62 60 56 60 65 71 74 76 79 82 83 85 86 87 90 91 92 97 98 96 99 98 100 100 99 99 100

GFSNGP_925_rhum_009.txt.gz
RH
48 52 53 56 56 51 49 43 46 44 48 38 41 44 45 40 44 56 64 72 77 80 72 60 54 49 44 36 26 19 15 15 17 21 24 21 20 22 23 23 25 26 29 35
43 48 50 58 58 49 46 50 48 45 48 39 41 46 51 53 55 60 67 69 79 78 69 60 55 49 45 33 22 17 18 20 24 24 23 24 24 24 25 27 27 28 38 40
55 44 40 48 49 61 51 54 42 50 38 45 54 55 54 56 55 58 64 66 80 77 70 60 52 49 41 26 19 18 20 24 24 26 28 27 25 25 28 32 34 40 39 40
53 46 56 42 47 52 51 46 46 44 45 47 58 55 52 54 54 58 61 67 84 76 68 54 51 44 32 22 20 20 22 22 27 31 29 26 26 28 30 40 45 44 45 47
61 56 46 54 55 55 52 55 53 61 63 61 55 54 55 62 67 68 62 78 80 70 56 53 45 34 25 21 21 20 22 27 30 30 29 28 28 33 38 46 47 48 49 51
86 64 49 40 48 46 47 56 63 61 66 62 60 60 60 67 74 80 82 78 72 59 53 45 33 27 22 22 21 24 28 30 30 29 29 30 33 37 40 43 52 53 54 57
71 65 59 48 49 45 57 48 67 64 67 67 60 58 67 76 79 78 73 67 60 53 47 37 29 24 25 24 24 27 30 29 28 29 31 32 36 38 41 50 58 59 58 57
79 71 55 53 50 54 59 66 62 60 57 57 60 71 76 79 81 75 70 64 55 48 38 31 27 26 26 24 27 28 29 32 31 29 31 34 39 42 53 60 62 61 58 62
63 63 66 61 57 65 60 63 60 61 59 58 62 67 82 83 84 77 70 62 53 45 34 30 28 28 26 27 29 32 34 31 30 30 32 37 47 57 59 60 64 62 64 70
66 68 65 66 63 59 57 61 62 60 60 57 60 65 69 84 88 82 69 56 49 40 33 32 31 28 27 30 34 34 33 33 32 34 46 46 50 57 65 66 67 68 70 68
83 76 67 60 59 66 70 70 70 68 62 63 63 64 68 81 88 83 66 55 44 37 31 29 29 29 31 33 33 34 35 34 36 40 48 58 62 66 67 68 72 68 67 70
73 72 70 68 68 68 72 75 74 72 73 76 73 74 79 85 87 76 61 44 39 33 29 30 33 32 32 33 35 37 38 45 46 59 62 63 67 68 73 73 69 67 70 70
68 73 80 81 80 72 84 88 85 88 86 85 90 89 88 86 83 71 54 43 36 31 30 33 33 31 32 33 34 37 42 47 61 64 63 66 72 76 75 69 68 70 72 70
78 76 78 72 81 86 92 94 89 91 90 90 88 84 77 55 54 49 41 36 32 33 34 34 33 31 33 35 37 39 47 53 63 64 72 75 78 75 70 71 71 72 72 73
83 81 78 89 93 96 94 94 89 82 87 90 84 79 74 60 52 43 37 34 36 36 34 35 34 32 35 37 41 51 55 59 65 73 77 74 71 72 73 74 75 75 76 75
99 94 90 88 94 100 97 98 81 82 89 90 88 84 79 66 50 39 36 38 38 36 36 35 35 36 38 42 51 52 49 61 71 73 75 72 75 75 77 76 79 80 78 77
92 98 100 97 95 96 85 77 81 85 90 94 97 94 84 53 41 39 40 39 36 36 37 38 38 39 42 50 52 52 59 69 76 73 77 77 79 79 79 78 78 81 78 79
73 77 65 58 68 73 76 81 86 89 94 97 93 90 68 48 44 39 38 40 40 39 38 39 40 44 49 50 52 64 73 76 78 79 79 80 80 75 76 79 76 80 81 80
62 68 70 69 69 72 76 79 82 85 90 92 91 81 65 49 41 40 42 44 44 46 40 41 43 49 53 50 67 70 73 76 81 82 82 78 79 77 74 76 78 81 82 81
74 68 64 66 65 68 75 76 82 88 88 77 62 54 49 44 42 44 45 46 46 45 43 46 56 55 51 52 71 78 77 81 83 81 81 75 72 74 75 78 80 80 83 84
73 66 60 58 57 56 64 69 77 77 72 60 53 51 45 42 44 47 52 55 45 48 58 53 52 55 57 72 78 74 74 78 80 80 78 74 76 79 82 85 89 92 90 88
69 68 66 64 64 64 61 57 57 62 63 59 53 46 47 49 51 52 52 53 49 50 56 62 60 62 72 70 72 72 76 78 76 76 78 80 84 89 95 97 96 94 95 93
60 61 62 68 70 70 68 63 57 50 51 51 48 48 50 52 55 59 58 52 55 60 69 61 67 70 70 69 70 70 68 72 78 82 86 90 94 99 99 99 96 95 95 97
66 64 66 71 73 73 75 73 60 53 49 50 54 56 57 58 54 54 55 55 53 65 68 58 68 67 67 70 66 72 78 84 86 88 92 95 99 99 98 99 99 97 96 96
67 74 79 81 82 87 74 62 60 61 62 63 60 59 57 57 57 57 53 48 49 63 57 51 67 71 69 73 78 82 83 86 90 94 96 97 99 98 98 99 98 97 98 100
76 81 85 85 81 75 70 65 71 67 63 64 63 63 61 57 50 52 51 52 52 55 52 57 65 78 80 79 86 88 89 90 93 96 96 99 100 100 99 100 100 100 100 100
89 89 81 78 73 69 66 66 68 69 63 60 64 63 53 51 48 49 53 46 51 59 66 69 72 78 88 89 91 90 91 95 98 98 99 100 100 100 100 100 100 100 100 100

GFSNGP_925_rhum_012.txt.gz
RH
43 42 39 41 46 42 46 44 44 36 36 28 24 32 32 33 33 34 40 48 51 53 50 48 44 41 39 35 31 24 23 23 27 27 28 29 29 29 29 31 31 31 31 29
42 48 42 42 39 41 43 41 37 33 34 24 25 29 32 31 34 38 40 46 51 53 52 49 44 42 42 33 27 24 23 25 28 28 29 29 30 30 30 32 32 32 30 29
48 41 43 52 42 40 36 33 32 38 30 28 35 33 32 36 39 40 41 45 51 55 54 50 45 44 40 29 24 23 24 25 28 29 29 30 31 30 30 31 32 32 31 31
47 46 67 36 39 32 35 31 30 30 32 31 30 36 41 39 39 43 47 48 53 57 58 51 46 44 32 26 24 23 25 25 28 30 30 30 29 29 30 31 32 32 32 33
58 49 37 35 44 40 44 40 35 35 33 40 42 42 50 49 49 48 47 48 57 61 56 49 46 38 30 25 23 23 24 26 29 30 30 29 28 30 31 33 34 34 34 36
64 58 52 35 42 35 35 36 37 35 40 46 44 44 44 53 55 60 63 65 64 57 50 45 38 30 28 24 22 21 26 29 32 33 32 29 32 33 35 36 35 35 36 36
62 90 41 37 41 41 39 40 47 40 43 46 43 45 55 58 62 60 62 61 55 49 44 38 31 28 26 24 21 27 31 33 33 32 31 32 34 36 39 38 37 35 36 38
60 85 63 45 46 43 48 52 49 48 47 50 54 57 58 60 62 60 59 56 50 46 40 34 30 28 25 22 27 32 34 34 32 31 32 36 41 42 41 37 36 35 38 43
42 42 58 54 52 53 46 49 49 48 47 49 54 55 59 64 62 59 57 54 49 44 38 34 31 27 23 26 32 34 34 31 31 32 34 38 39 41 40 37 38 41 45 48
54 59 58 56 54 49 45 49 48 48 49 48 53 57 60 61 65 61 60 56 51 44 39 34 32 31 29 33 36 36 32 31 32 34 39 40 39 39 41 40 43 47 51 52
66 65 58 55 50 51 55 54 54 54 52 52 53 56 57 61 66 67 63 56 50 45 40 35 31 31 34 35 36 34 32 32 34 36 39 40 39 41 48 52 59 66 64 65
47 48 47 49 52 53 55 58 55 58 62 65 59 61 63 64 68 70 63 56 48 43 38 31 31 33 34 31 38 38 36 34 37 44 42 39 40 43 48 58 64 66 69 70
46 48 56 48 53 55 59 63 63 60 60 66 74 71 71 70 75 70 57 48 44 39 33 33 34 34 36 37 42 40 40 40 42 41 40 43 46 49 50 47 53 58 63 66
59 59 68 58 63 62 65 68 71 70 70 71 74 77 68 61 66 61 52 45 38 34 35 36 35 35 37 39 44 44 46 51 48 44 48 50 51 52 50 51 53 53 55 61
66 66 55 64 70 76 78 75 70 64 66 72 75 70 70 61 57 51 41 37 35 36 36 37 36 36 40 45 47 47 50 46 46 48 50 56 55 53 54 55 55 55 54 55
82 84 83 85 95 93 84 70 58 60 67 69 72 73 73 69 60 45 40 39 35 33 34 39 39 39 45 48 52 52 48 52 60 54 54 54 56 56 56 56 55 54 56 55
90 100 96 99 98 90 62 58 55 60 67 71 75 85 84 63 48 41 39 40 39 38 41 42 41 44 46 57 58 51 50 52 60 60 59 59 59 58 57 56 58 57 57 60
62 65 62 59 59 58 61 62 67 72 74 80 87 87 77 56 48 39 38 42 44 44 41 42 43 52 59 58 57 54 54 55 61 63 62 59 59 61 61 58 59 60 62 66
58 51 44 46 49 51 58 63 69 77 84 87 87 82 74 60 47 38 42 42 40 38 41 44 46 57 59 56 62 59 60 66 64 62 60 60 58 57 58 59 62 65 67 67
53 53 55 59 62 59 61 70 77 80 86 85 79 71 60 50 44 44 45 40 42 44 46 54 61 58 57 58 68 74 69 66 62 58 57 59 57 57 61 65 68 69 71 73
56 55 58 58 58 63 63 68 70 70 73 68 59 52 48 45 46 46 46 42 48 48 60 56 60 58 59 71 72 65 64 61 59 56 56 57 59 63 67 71 77 80 80 81
53 51 52 54 54 58 60 59 65 67 65 59 55 51 46 50 51 54 52 51 56 52 63 62 60 63 70 73 64 63 61 59 57 58 60 63 69 77 83 84 87 86 87 89
53 54 59 59 60 64 66 63 58 56 57 57 54 50 47 50 53 52 48 59 63 64 64 61 65 72 71 66 61 62 61 63 65 66 71 76 83 89 90 89 90 88 92 92
59 58 63 72 72 68 66 68 59 53 49 48 49 52 57 58 58 58 54 51 46 62 66 61 66 71 73 66 65 67 68 68 72 81 85 89 92 91 90 90 92 91 90 91
68 74 78 79 74 74 76 67 62 63 63 64 63 60 57 56 56 60 56 54 52 63 57 59 71 77 73 70 70 71 74 79 83 86 84 90 93 92 92 92 92 93 95 95
74 73 79 79 77 74 67 65 62 64 62 62 66 69 63 51 46 53 51 53 56 61 62 67 71 76 75 76 79 78 78 80 82 85 91 92 93 95 95 96 95 96 97 100
87 82 78 74 73 71 69 67 64 65 62 60 64 63 55 49 48 53 55 57 62 67 71 72 75 78 81 82 83 80 83 87 94 95 94 97 98 100 99 99 100 100 100 100

GFSNGP_925_rhum_018.txt.gz
RH
89 62 61 65 68 64 59 54 54 40 37 33 37 41 38 37 42 45 46 47 49 56 54 48 44 39 36 34 31 27 26 27 27 25 24 24 25 26 25 26 28 30 30 30
48 48 55 65 60 60 55 49 48 49 47 26 28 34 37 40 41 43 45 47 50 54 53 49 43 38 36 34 28 25 25 26 26 24 24 24 26 25 26 27 28 28 29 30
55 41 46 54 53 52 50 48 47 56 43 31 30 32 36 38 40 43 46 48 51 55 54 47 42 38 36 33 28 25 25 24 24 24 25 25 25 25 26 27 29 30 31 32
58 47 70 39 34 34 38 38 40 38 35 31 34 42 46 38 38 40 43 48 53 57 52 44 41 39 36 29 26 26 24 23 23 24 24 25 25 26 26 29 31 32 33 33
69 67 50 40 35 37 42 43 34 36 36 45 50 52 57 54 50 52 52 54 55 52 47 43 41 37 29 28 26 24 23 22 23 24 26 26 26 27 29 33 35 36 34 33
90 77 69 44 36 32 33 53 42 38 36 50 49 63 67 58 59 63 64 60 58 50 46 43 35 32 30 26 25 22 22 23 25 26 27 27 27 28 34 39 40 38 37 33
86 90 72 39 34 33 50 52 46 40 43 50 64 60 59 59 64 63 61 56 50 48 46 39 35 33 28 25 22 23 24 26 27 27 27 27 28 33 38 40 39 36 34 32
96 99 92 39 41 45 54 43 41 51 54 64 62 59 61 64 65 62 62 54 49 44 38 34 34 30 26 23 24 25 27 27 28 27 26 29 32 36 38 38 36 35 36 39
79 80 51 50 52 44 44 48 54 61 59 57 61 64 65 67 65 62 55 49 43 38 36 34 32 29 24 26 26 27 27 27 26 26 29 33 36 36 36 36 35 37 42 48
47 53 54 53 49 45 47 55 56 56 57 58 64 65 66 64 62 58 53 50 42 38 37 34 30 25 26 28 27 28 28 26 26 29 34 36 38 38 36 35 38 43 50 58
56 58 56 51 50 54 55 54 55 56 57 60 62 66 66 67 66 63 56 50 43 42 39 35 32 27 28 29 28 29 28 28 32 35 38 40 40 37 38 41 44 49 52 55
56 48 48 57 56 53 57 60 61 61 66 66 66 68 68 73 68 63 60 53 51 47 40 34 29 28 30 28 28 29 33 36 38 41 43 42 40 41 43 46 48 49 50 52
49 49 52 54 56 54 60 62 65 68 66 68 65 64 68 73 68 62 57 54 50 46 35 31 28 29 30 30 29 34 39 41 44 45 45 42 45 47 50 51 50 50 51 52
52 53 64 58 65 61 62 62 61 61 62 65 65 63 69 77 66 60 57 52 45 37 33 31 29 30 31 31 34 39 42 44 47 46 45 49 52 52 52 53 54 53 53 54
60 55 61 62 65 71 70 68 69 69 68 68 62 61 62 70 69 58 47 42 38 36 32 31 30 32 33 36 39 43 46 47 47 47 49 52 52 51 54 55 55 55 57 57
86 79 74 79 86 85 77 66 63 65 70 70 72 70 65 61 50 44 39 37 36 36 33 32 34 36 37 38 43 47 49 50 50 49 50 51 54 57 58 56 58 59 59 58
95 99 98 98 89 77 60 54 61 65 68 74 79 72 65 57 48 44 40 37 33 34 35 36 40 40 41 48 53 52 51 51 53 50 53 58 58 57 56 58 59 58 59 61
75 87 82 80 69 57 62 64 67 66 74 76 79 76 68 62 60 48 41 37 36 37 38 41 41 40 43 53 54 54 54 58 58 61 60 57 55 55 54 55 57 60 63 67
74 73 70 58 55 61 67 71 74 77 78 78 79 81 70 62 51 42 39 38 37 39 46 44 43 47 54 53 57 58 63 68 66 61 56 54 52 52 53 56 60 64 71 75
57 55 56 59 58 60 68 70 74 79 79 77 78 77 71 54 41 39 38 41 46 48 48 48 47 51 54 52 61 68 70 67 62 56 54 53 53 55 58 63 71 79 81 81
59 60 61 61 66 66 66 66 71 76 72 69 67 65 57 46 42 41 40 50 54 48 49 51 55 56 55 64 74 69 67 60 56 55 54 56 58 63 75 83 87 87 88 87
55 61 63 63 66 68 62 61 61 59 57 54 52 48 47 46 45 48 50 53 56 52 51 54 54 62 68 71 66 65 60 56 57 59 60 62 72 81 88 93 97 95 95 94
58 59 61 62 63 62 56 56 56 56 56 53 49 46 47 51 50 53 63 58 57 55 48 52 60 66 72 71 62 63 60 61 62 64 69 77 84 90 95 96 93 94 96 97
60 63 67 62 61 64 65 53 52 51 51 51 51 51 52 54 55 54 56 55 54 58 50 54 60 68 72 60 64 65 65 66 70 74 76 84 86 91 94 95 98 99 98 97
79 74 68 71 78 78 67 56 55 58 58 58 57 55 52 53 54 52 42 42 42 44 43 44 64 67 64 66 68 71 75 76 76 80 83 88 96 99 99 98 98 98 98 100
75 79 74 68 72 68 61 58 61 57 59 64 60 55 47 43 47 42 40 44 40 49 46 52 59 67 68 71 77 78 78 78 82 87 94 98 99 100 100 100 100 100 100 100
77 75 72 68 62 59 57 57 60 60 60 61 56 50 44 41 44 41 45 44 47 51 55 58 60 68 74 75 75 75 79 84 92 97 98 96 100 100 99 99 100 100 100 100

GFSNGP_925_rhum_024.txt.gz
RH
95 90 97 83 76 80 98 84 98 74 63 58 45 46 57 58 62 64 69 71 69 66 64 57 50 42 36 30 27 27 27 28 28 26 23 21 20 19 21 22 24 28 31 33
98 90 95 98 90 81 93 92 97 93 59 37 46 53 65 63 61 63 66 67 65 64 64 58 51 44 36 29 28 27 28 29 27 25 22 21 20 21 21 23 27 32 35 35
100 85 90 100 90 96 92 88 91 76 44 44 45 46 63 65 56 59 62 64 64 64 61 55 52 41 35 29 28 28 30 28 26 23 21 22 21 21 23 27 32 35 35 35
91 89 79 45 52 62 70 59 52 47 43 42 46 66 64 56 57 58 58 62 62 61 61 55 47 39 32 29 28 29 29 26 24 22 21 21 22 24 26 31 34 35 36 36
97 92 61 44 44 50 63 60 46 55 50 57 63 55 62 76 56 60 61 62 60 60 58 50 43 36 31 28 28 28 26 25 24 22 21 23 24 26 31 35 36 37 37 36
96 90 74 47 41 37 38 62 48 44 59 60 57 58 63 82 74 77 75 69 64 55 51 44 37 32 30 29 28 27 25 24 23 22 23 24 26 31 35 37 38 37 36 38
89 96 80 58 42 41 49 49 51 53 56 57 54 63 79 73 70 65 61 55 51 47 43 38 34 32 30 29 28 26 24 23 23 24 24 27 32 36 37 38 38 38 42 46
93 96 87 47 38 37 46 64 68 70 72 84 84 78 75 71 68 62 57 49 45 43 40 34 32 31 29 28 26 24 24 23 25 25 27 33 36 38 38 39 42 44 50 54
80 79 59 54 49 51 54 64 67 79 77 76 77 76 73 72 65 57 52 48 44 42 36 32 31 31 27 26 25 25 24 25 25 28 36 38 40 40 40 44 48 52 58 60
70 59 56 53 51 56 57 68 73 73 72 69 76 72 72 67 60 53 48 46 42 39 36 32 29 29 29 27 26 24 25 25 31 35 45 41 42 42 48 51 54 60 62 64
67 59 56 55 53 67 74 72 74 73 69 70 69 70 67 66 62 56 50 44 39 37 34 32 30 30 28 27 25 25 26 32 36 42 44 44 44 48 52 55 59 60 61 62
73 54 51 54 68 67 69 74 73 72 75 72 65 68 66 66 61 54 52 44 41 35 32 31 30 30 29 26 25 25 32 37 44 46 45 47 50 50 48 60 61 60 61 62
49 59 64 66 68 64 71 73 72 73 71 75 72 67 66 69 64 56 51 45 42 38 32 32 32 31 29 27 27 32 37 45 47 47 50 52 54 57 61 57 60 60 60 62
63 58 66 61 72 70 72 74 73 77 77 77 80 75 73 75 70 64 60 49 43 38 33 33 33 32 32 31 33 37 42 46 48 51 52 54 58 58 61 65 68 64 62 62
74 66 66 75 74 76 73 73 79 84 85 89 81 78 74 76 76 67 54 44 38 34 33 33 33 36 36 36 38 43 46 47 54 54 55 62 62 62 59 64 66 64 62 62
88 80 76 78 82 81 79 78 79 83 84 86 82 78 71 64 58 51 43 38 37 39 34 34 36 39 38 39 45 47 48 45 62 62 63 65 64 59 64 63 62 63 64 65
84 93 88 87 84 81 72 71 70 75 73 71 75 64 55 52 49 46 42 40 37 35 34 35 41 40 43 47 49 50 49 53 67 64 68 65 58 63 59 61 64 65 69 74
76 77 72 72 72 75 79 78 76 69 71 72 63 56 55 52 53 49 45 40 40 42 42 42 41 44 50 51 55 54 60 57 61 67 64 57 62 59 62 66 69 74 80 82
79 80 73 66 66 70 74 78 73 80 76 67 61 63 57 51 45 44 43 41 45 50 53 51 51 49 49 52 70 67 53 58 63 60 57 64 62 64 70 73 80 84 86 87
75 68 68 72 69 70 76 80 83 85 76 68 69 65 60 52 45 44 41 50 49 48 53 51 51 51 52 60 81 54 54 59 59 60 63 68 70 76 81 86 87 90 94 91
71 68 69 71 76 77 80 83 87 90 79 66 59 57 53 48 46 49 57 67 64 56 54 53 52 60 60 81 57 50 56 60 62 66 70 75 80 87 93 97 100 96 95 95
64 67 74 76 82 88 85 84 84 81 73 61 53 50 50 54 52 53 54 60 66 51 47 49 58 71 78 65 47 53 58 64 69 73 76 83 90 96 99 100 100 100 99 100
65 68 71 73 76 78 72 71 69 67 60 55 54 54 57 57 56 62 70 63 58 44 40 57 70 75 81 47 52 60 67 70 74 76 86 90 95 94 98 100 100 100 100 100
65 68 71 71 68 66 69 65 57 55 53 53 51 50 52 62 63 60 63 68 63 38 46 68 70 75 60 53 59 68 70 71 74 86 92 94 94 100 100 100 100 98 100 100
72 72 72 71 68 71 75 66 62 59 58 58 57 55 53 53 50 48 45 59 59 38 40 58 65 67 52 58 66 70 70 76 87 97 91 99 98 95 95 94 96 100 99 97
69 70 71 65 67 67 65 62 64 62 58 59 55 49 44 41 40 40 41 40 43 44 43 43 47 55 54 60 71 70 77 81 83 86 100 95 94 93 94 96 97 98 98 99
82 76 72 70 69 66 63 64 63 64 55 51 50 44 40 40 42 40 41 44 47 47 45 44 45 51 59 70 72 78 82 82 85 98 95 92 94 96 98 98 98 97 97 98

GFSNGP_925_rhum_027.txt.gz
RH
93 81 80 100 98 91 97 78 86 56 54 45 46 64 65 69 76 81 81 80 74 69 64 56 49 43 36 30 27 26 27 27 28 27 24 22 20 20 21 22 26 31 32 30
96 85 94 96 96 87 80 76 78 76 75 45 61 58 68 70 72 77 79 78 73 67 62 55 48 43 36 31 28 28 29 30 28 26 24 22 20 21 21 24 30 33 33 32
93 96 95 100 94 95 83 73 80 97 78 63 55 54 64 68 66 71 74 75 72 68 60 54 47 40 36 31 29 29 30 30 27 24 23 22 21 21 22 30 33 33 34 34
100 100 98 86 86 82 92 86 84 84 77 70 53 61 65 60 62 67 70 71 69 67 61 55 45 38 33 30 29 30 31 28 26 23 22 22 22 23 29 33 34 36 35 34
100 98 68 48 68 94 97 93 83 87 74 60 66 56 66 73 63 69 68 67 67 65 60 50 42 37 32 31 30 31 30 27 25 22 21 22 24 29 34 36 36 36 36 38
92 100 81 50 44 40 63 65 56 70 63 65 59 49 54 77 75 78 74 69 70 60 53 46 40 35 32 32 32 30 28 26 24 22 23 24 29 35 37 37 37 38 38 44
90 94 83 58 56 44 52 50 54 56 58 63 53 73 84 74 73 73 70 64 58 53 48 43 37 34 33 31 30 28 26 24 24 25 24 30 35 37 37 37 38 39 45 51
93 94 77 56 46 42 47 62 69 69 69 89 85 79 74 69 66 63 61 54 49 45 42 38 35 32 32 30 28 26 25 24 25 25 30 36 37 38 38 40 43 46 56 58
83 79 61 54 54 54 57 64 70 79 84 78 79 77 70 66 60 56 52 49 44 42 39 35 33 32 31 29 26 26 25 26 26 32 38 39 39 39 41 44 51 57 63 64
74 61 62 53 53 61 66 73 82 81 79 72 78 72 65 58 56 53 49 45 40 38 37 34 32 31 30 27 27 25 26 27 33 38 42 42 42 44 48 52 58 64 66 67
74 63 57 54 56 70 77 75 75 74 73 73 70 69 62 60 56 52 47 43 39 38 37 34 31 29 29 28 25 24 27 34 39 43 44 44 46 50 53 54 63 64 64 64
75 56 50 53 67 72 74 76 73 72 74 71 66 67 62 60 54 50 48 42 40 37 35 34 32 31 29 26 23 25 33 38 46 45 46 49 51 52 49 63 64 64 64 64
54 61 70 73 72 68 76 75 72 72 68 72 70 64 61 60 56 52 47 41 39 37 34 34 33 31 29 26 26 31 38 46 46 48 50 53 58 60 64 47 48 57 62 64
68 64 70 63 72 74 75 77 77 80 76 72 72 67 65 68 61 55 51 42 36 34 35 34 33 33 31 30 32 38 43 49 50 53 54 58 63 63 59 64 70 65 56 64
77 70 64 74 75 79 77 75 82 86 83 86 77 76 70 71 71 64 49 42 37 36 37 34 34 37 36 36 38 44 47 48 56 57 58 68 63 56 59 62 65 66 64 66
89 83 79 80 85 86 84 82 85 91 88 87 83 78 74 67 61 52 44 38 38 42 37 35 37 40 38 41 45 48 47 52 68 61 60 62 57 59 65 64 65 67 70 72
84 94 90 90 88 84 79 79 79 85 81 72 71 67 62 57 50 46 42 39 37 37 36 36 42 42 45 48 51 50 52 50 67 57 60 58 56 66 61 66 70 71 76 80
71 76 71 74 78 80 82 81 78 72 70 65 61 58 56 53 55 52 45 41 41 44 43 43 43 48 51 57 56 57 52 49 54 59 56 56 67 64 67 73 76 82 85 86
76 78 77 73 72 74 77 78 71 69 63 60 58 60 54 51 50 48 44 43 47 52 58 56 51 49 50 68 71 54 43 49 53 56 58 69 66 69 78 83 89 91 92 93
79 73 71 75 71 71 80 75 70 68 64 59 60 57 54 51 47 46 44 51 48 49 54 52 52 52 53 69 63 41 47 54 57 60 65 75 76 85 88 92 92 97 97 94
76 73 73 72 76 76 76 73 72 73 69 61 60 58 55 49 45 47 56 68 65 58 56 55 52 60 75 74 42 45 52 56 63 69 74 82 88 93 99 99 100 100 100 98
74 74 77 75 82 88 86 80 77 71 63 59 56 53 54 58 55 56 54 58 66 54 49 50 59 80 84 48 45 50 58 64 68 72 80 88 93 96 96 97 100 100 100 100
74 75 78 79 84 86 84 80 71 62 59 55 55 56 58 58 56 68 74 66 53 43 47 64 75 80 75 46 51 59 65 67 72 78 88 91 95 95 94 98 100 98 98 99
71 73 76 78 77 76 76 71 64 59 56 54 52 52 54 59 59 55 58 66 63 42 60 67 74 81 48 50 56 66 67 72 75 85 91 96 91 92 96 96 96 94 94 95
76 76 76 74 71 75 78 70 63 60 58 58 56 54 52 52 53 63 56 58 43 36 40 60 64 56 48 54 65 67 72 76 84 96 86 93 94 94 94 94 93 98 100 97
69 70 72 67 70 69 65 61 63 63 61 62 59 55 52 48 43 40 40 41 41 42 40 40 42 50 53 62 68 72 77 76 76 81 97 93 94 95 94 94 93 92 93 97
74 72 71 68 66 64 62 60 59 62 57 53 52 46 41 39 40 39 40 44 46 44 41 40 41 51 61 65 71 76 75 75 80 88 91 91 92 95 95 95 94 94 92 96

GFSNGP_925_rhum_030.txt.gz
RH
92 80 91 100 99 96 98 89 97 64 61 49 40 49 64 74 92 94 88 81 72 67 61 53 47 41 36 32 29 27 26 27 27 27 24 22 20 20 21 22 27 31 30 28
97 86 99 97 94 98 96 92 96 78 77 59 61 68 67 85 91 92 88 76 70 64 57 52 46 40 36 32 28 27 27 29 28 26 24 22 21 21 22 27 31 32 30 29
89 90 100 100 98 96 95 94 88 97 68 55 76 78 66 82 81 84 81 76 70 63 55 50 44 38 36 30 28 29 30 30 28 26 24 22 22 22 25 31 33 32 33 33
98 99 98 89 91 88 92 81 70 68 64 69 73 68 69 68 72 79 78 74 70 62 57 50 42 37 32 30 30 31 32 29 27 25 23 22 22 25 31 34 34 34 34 35
100 96 89 66 90 91 97 87 77 71 69 66 71 68 64 68 66 74 73 71 69 61 55 46 41 36 33 33 32 32 31 28 26 24 23 23 24 31 35 35 35 34 36 37
99 98 97 58 56 68 74 69 78 76 73 77 76 84 66 73 74 75 74 73 70 60 51 45 41 36 35 36 34 32 30 27 25 23 23 24 31 35 36 36 36 36 35 43
91 93 82 60 61 52 60 58 55 76 78 79 79 77 86 78 80 79 76 69 61 54 49 44 39 35 37 35 34 31 28 26 25 24 25 32 36 37 37 37 38 37 42 49
86 96 76 58 52 48 52 60 65 66 64 74 80 76 74 73 73 70 69 60 53 48 44 41 37 34 36 34 32 28 26 25 25 27 34 37 38 38 38 40 40 43 55 55
84 84 60 60 58 58 63 68 71 75 82 79 80 76 69 67 61 58 55 51 48 45 42 38 36 33 34 33 28 27 25 25 28 37 39 39 39 40 43 44 48 54 65 66
78 62 64 59 56 70 72 82 85 83 79 74 75 67 65 61 58 54 50 47 44 41 40 39 34 32 31 29 26 25 26 32 40 43 41 42 43 44 48 48 54 65 68 70
79 70 65 60 63 77 82 79 78 76 71 68 64 65 60 58 54 50 46 43 41 40 41 40 33 31 29 27 25 25 31 38 42 43 44 45 46 47 50 50 66 66 67 66
76 61 56 56 75 76 78 78 75 73 73 70 61 62 56 55 50 47 46 44 43 42 40 37 32 31 28 26 23 27 37 44 47 45 47 46 47 46 47 54 64 66 65 65
60 61 73 77 74 72 79 78 75 71 69 68 64 57 54 55 51 49 45 44 43 43 38 34 32 30 28 27 28 33 40 45 47 47 46 49 55 61 65 42 46 59 62 65
69 69 72 66 77 77 76 77 74 73 70 67 64 59 59 58 52 48 49 45 40 37 36 33 32 34 33 32 33 39 51 49 46 48 51 57 65 64 58 66 69 58 47 66
75 70 67 80 80 83 75 73 75 77 75 78 69 64 57 59 59 55 42 39 38 37 36 34 35 39 37 37 39 44 45 52 53 51 52 67 60 53 62 61 62 65 66 68
90 86 83 84 87 85 81 78 79 83 79 76 74 72 70 61 55 45 41 39 42 46 39 37 39 42 42 42 43 46 46 54 65 53 57 57 52 63 66 63 68 72 74 76
85 95 92 92 90 86 77 75 74 78 77 70 72 68 60 55 52 47 44 41 38 39 38 36 45 47 46 47 48 48 48 42 67 52 52 52 61 70 63 71 76 78 81 85
68 77 71 73 79 84 88 86 80 74 67 66 64 59 55 52 55 54 47 42 42 45 45 46 47 48 52 56 55 52 43 47 50 52 53 57 72 66 75 81 85 90 91 91
75 80 79 77 75 79 82 80 72 65 63 63 61 62 58 55 52 51 45 45 50 56 64 56 50 50 57 79 57 41 43 47 49 52 58 75 69 77 85 90 94 95 95 96
83 79 76 79 75 75 76 66 63 62 62 60 57 57 58 55 50 48 45 53 51 56 60 53 52 52 60 66 44 40 43 48 56 61 67 79 79 88 88 94 95 97 98 96
83 79 77 77 79 71 65 62 62 63 62 55 55 57 57 52 47 47 55 72 69 59 56 55 56 62 70 50 37 41 48 57 62 67 72 81 86 90 95 94 95 98 100 100
79 78 80 76 76 74 68 66 65 64 60 56 54 54 55 59 54 55 55 60 72 57 52 54 75 87 67 39 40 48 57 61 64 69 77 88 94 96 95 93 93 96 100 95
79 80 81 78 79 82 73 67 64 61 61 58 56 56 60 61 58 68 76 66 53 47 54 68 80 88 49 40 47 57 59 63 70 77 88 91 95 95 93 92 99 97 94 95
79 78 81 80 75 70 72 70 63 61 59 57 55 52 53 61 61 56 57 63 68 46 55 66 79 80 44 45 52 59 64 72 77 85 88 95 91 90 92 95 95 94 94 93
81 83 81 79 77 77 79 73 67 64 60 60 56 54 51 50 52 68 58 55 43 40 43 60 61 48 42 50 60 65 73 78 81 92 81 88 90 90 92 95 95 99 100 93
78 75 76 72 75 72 68 64 65 65 62 64 60 55 53 56 58 53 47 41 38 37 36 36 35 41 48 57 66 74 78 75 75 77 87 86 88 90 94 96 96 95 93 87
75 73 72 70 67 66 63 62 61 63 59 57 58 53 49 43 42 40 39 41 40 37 34 33 36 45 54 64 72 76 74 74 78 80 80 84 86 90 94 95 95 95 92 89

GFSNGP_925_rhum_033.txt.gz
RH
84 76 75 96 96 97 98 88 96 67 88 64 51 47 53 64 70 93 88 78 71 66 58 50 46 41 38 36 32 29 28 27 26 26 24 22 21 22 22 23 27 29 29 28
96 85 82 99 95 96 97 94 97 90 88 54 49 62 66 69 75 90 90 77 68 60 52 47 43 40 37 35 32 29 29 29 27 25 24 22 22 22 24 28 30 31 31 30
90 73 89 100 99 97 98 96 84 97 68 56 56 57 72 67 82 87 89 72 64 57 50 44 40 38 36 34 31 30 30 30 28 26 24 23 23 23 27 32 33 32 32 32
97 97 98 91 87 86 91 96 88 80 74 60 57 64 72 70 75 87 78 69 61 53 49 43 40 38 36 33 32 32 32 30 27 25 24 24 23 26 32 34 34 33 34 34
100 96 74 59 65 82 97 86 76 86 71 58 78 76 68 74 75 78 73 65 58 53 48 42 40 37 36 37 35 34 32 29 27 24 24 22 26 33 35 35 34 35 35 36
94 99 97 64 63 69 73 71 78 75 72 78 76 85 76 82 80 80 72 65 59 51 45 42 41 37 38 40 37 36 31 28 26 23 22 25 32 35 36 36 36 36 34 42
97 100 81 59 65 64 60 64 72 83 76 78 86 83 81 80 83 77 70 62 54 48 44 43 40 37 40 38 38 32 28 26 24 23 25 33 36 36 37 38 37 35 38 43
93 91 89 63 57 58 58 64 66 65 75 87 84 76 76 75 76 71 67 59 52 47 44 42 39 37 39 40 34 28 26 25 25 30 34 36 37 39 40 40 39 40 51 51
75 78 63 66 60 61 73 75 75 76 78 76 77 75 69 67 63 60 56 52 48 45 44 42 38 36 39 36 29 27 26 28 32 36 38 40 41 42 43 43 44 56 68 69
77 61 68 60 59 76 81 86 88 83 79 72 73 68 65 60 57 54 50 48 45 43 42 42 38 36 33 29 27 26 29 35 39 39 42 43 43 45 47 49 56 69 70 68
81 72 68 65 69 78 81 80 75 71 68 68 66 66 60 57 54 50 47 45 43 42 42 42 35 32 29 27 26 28 34 41 44 43 43 44 44 45 52 56 66 66 69 69
74 61 59 60 76 76 77 79 72 68 67 63 60 60 54 52 48 47 46 44 44 42 40 38 32 30 28 27 25 28 41 45 44 44 45 46 48 46 43 50 64 66 65 66
62 63 75 77 75 72 77 75 70 65 61 61 54 51 49 49 47 48 44 43 43 43 39 34 31 30 28 28 29 35 40 45 48 47 48 50 54 56 61 38 40 48 63 67
65 74 73 74 76 75 73 71 68 64 60 57 56 54 52 50 48 47 48 46 42 38 36 33 32 35 35 36 37 43 50 49 48 48 47 55 56 53 55 68 62 58 43 70
74 69 69 80 80 81 72 69 72 70 66 63 55 52 49 49 49 50 46 42 39 37 37 36 38 44 40 38 40 46 53 55 48 44 49 52 47 50 62 62 65 66 68 71
88 87 82 85 85 81 76 73 72 73 67 62 61 58 54 50 50 49 44 40 41 47 42 40 44 46 44 43 45 46 47 67 53 44 45 45 50 65 67 67 70 72 75 78
90 97 97 93 89 81 71 67 67 69 66 63 62 56 51 51 51 50 46 41 39 42 42 41 50 49 47 47 47 43 35 39 49 41 45 51 67 73 70 75 78 80 82 85
67 76 74 74 76 80 80 77 72 67 64 62 59 55 51 49 54 56 50 46 47 50 50 50 50 51 52 51 43 35 36 39 42 46 52 65 77 70 78 85 86 89 87 86
74 81 79 76 74 77 78 74 68 65 62 59 57 59 56 56 55 55 50 50 56 68 68 56 51 55 62 52 36 34 37 40 46 52 56 76 68 78 90 92 92 90 89 89
86 83 80 82 78 74 72 66 64 62 62 60 58 56 58 58 53 51 48 58 58 60 56 51 51 52 55 49 35 35 39 48 54 57 62 79 79 92 90 95 93 93 94 92
86 83 82 79 75 67 64 62 62 61 60 56 55 57 58 54 50 51 63 76 70 55 53 53 52 58 54 35 34 40 49 53 56 64 72 80 83 87 94 92 94 100 99 98
84 83 81 73 69 67 63 61 60 59 59 59 58 58 59 61 55 56 56 62 73 60 54 59 70 68 46 36 40 48 52 56 63 70 75 83 89 93 93 93 96 98 100 94
82 79 75 71 69 70 66 63 60 58 58 58 58 58 60 63 61 70 79 70 56 52 59 75 90 78 40 39 43 50 56 63 70 71 78 86 91 95 95 95 99 98 94 92
83 79 81 73 67 65 69 68 60 59 57 56 54 53 55 61 60 54 53 56 67 54 59 72 82 72 39 40 47 55 61 68 70 74 82 93 88 92 92 95 95 95 93 92
86 82 77 71 68 71 76 72 69 64 61 62 60 56 52 50 51 63 61 69 66 52 56 73 69 39 38 45 53 58 64 71 73 87 80 83 88 90 90 93 94 95 100 96
82 76 74 67 71 71 69 64 66 66 65 67 62 57 54 56 59 56 47 38 34 34 34 33 34 36 40 48 55 63 70 72 74 77 84 85 86 86 88 89 87 90 92 91
80 77 74 71 68 66 65 64 64 64 62 60 65 64 61 56 50 42 37 37 36 35 33 31 32 34 40 50 60 68 71 74 78 80 81 82 81 82 84 84 86 91 91 94

GFSNGP_925_rhum_036.txt.gz
RH
67 60 63 80 87 93 99 93 94 62 63 62 49 55 42 37 45 53 65 67 64 62 59 58 52 45 41 38 34 32 31 30 30 29 29 29 29 29 30 30 33 34 34 35
96 71 76 99 92 96 97 96 97 91 86 49 43 42 42 39 44 60 73 69 63 59 56 51 44 40 37 34 33 32 34 34 32 31 31 32 31 31 34 36 36 36 37 36
94 76 78 94 97 96 95 93 86 97 64 45 48 50 52 64 66 65 71 69 60 56 52 45 40 39 36 34 34 34 36 34 32 31 32 32 31 32 35 36 38 37 38 37
99 91 93 70 63 73 86 79 83 64 55 54 63 62 62 66 69 66 73 64 56 52 46 41 38 36 35 33 35 34 34 33 32 31 31 30 30 33 36 36 38 36 37 38
100 93 69 54 53 62 93 94 81 80 69 66 62 62 70 73 71 72 65 56 50 48 45 38 34 33 32 33 34 34 33 32 30 30 28 29 31 34 37 38 38 38 38 38
100 96 81 51 49 57 72 96 93 91 82 78 75 66 69 73 80 70 56 51 47 43 39 36 34 34 34 34 33 34 33 31 29 28 27 30 35 39 40 38 38 38 37 40
97 98 68 45 51 57 55 62 63 84 82 78 81 73 73 70 70 78 58 49 44 39 37 35 34 34 34 34 34 33 32 29 29 29 32 37 40 40 41 40 39 37 38 40
98 90 82 52 48 57 53 55 56 58 73 91 73 73 74 73 71 60 53 48 43 41 38 37 35 34 34 35 34 32 31 31 34 36 39 44 46 45 44 42 39 36 39 37
61 55 49 53 55 52 60 62 62 66 66 80 77 79 70 66 60 57 52 48 43 39 37 35 34 35 36 36 33 32 34 38 38 41 43 46 45 47 42 42 38 39 40 40
65 50 53 50 53 61 64 67 69 68 63 61 65 63 61 58 54 50 47 44 41 39 37 36 37 37 35 33 30 33 36 38 41 42 43 44 44 47 44 41 40 43 42 43
64 52 48 55 59 62 66 62 60 58 58 60 60 60 56 55 51 48 45 42 40 38 37 36 36 35 32 31 34 37 41 44 45 45 44 44 46 46 46 50 58 52 48 50
54 50 51 51 62 64 64 64 59 59 61 56 54 55 51 49 46 45 43 42 40 39 36 34 34 35 36 36 36 37 39 41 43 44 45 44 43 40 44 40 57 65 64 65
49 54 60 62 64 63 65 61 56 56 54 54 49 47 46 45 44 45 40 39 38 37 35 34 33 36 38 39 40 42 44 46 50 45 43 44 44 41 36 37 47 50 60 68
52 57 63 63 64 63 60 58 54 51 50 48 47 47 47 46 43 40 40 39 37 36 35 35 36 40 45 45 45 48 54 47 47 46 49 50 44 40 42 42 40 40 48 63
57 60 59 63 65 65 59 56 58 55 51 48 46 45 43 42 41 40 38 38 38 38 38 39 43 50 50 45 47 53 54 52 48 50 54 48 43 46 48 45 47 50 52 56
74 73 71 73 75 69 64 60 58 57 49 46 44 43 43 42 42 41 40 39 37 38 42 44 48 52 45 43 50 56 63 68 52 45 43 43 46 50 49 51 53 55 56 59
83 96 97 98 88 72 63 58 54 52 49 45 46 46 45 43 42 42 42 41 42 45 48 50 55 48 44 46 50 46 46 52 43 44 45 50 56 55 56 59 60 62 62 62
63 68 78 68 66 65 63 58 54 51 48 47 46 44 43 42 42 44 46 48 51 54 56 56 51 51 52 45 42 46 46 46 47 49 51 58 62 61 64 66 68 67 65 67
65 67 64 63 60 61 62 58 52 52 50 47 45 44 45 47 46 48 48 48 48 51 65 70 59 64 58 36 33 43 46 48 50 52 57 68 62 65 68 70 70 69 72 72
75 70 66 65 66 62 59 57 53 51 50 49 50 50 50 51 52 50 49 51 52 58 69 71 68 61 55 34 31 40 50 53 54 57 62 67 67 70 73 76 78 77 79 78
76 73 72 69 64 61 57 55 53 53 53 51 49 50 51 52 53 57 59 60 68 64 61 56 59 50 37 35 36 46 54 57 59 63 68 70 73 74 78 81 85 87 87 85
73 72 68 64 60 60 58 56 55 54 52 51 52 54 56 58 62 65 59 59 73 68 58 63 54 42 44 33 37 46 54 63 66 69 71 77 82 88 90 91 94 96 96 97
72 68 65 61 60 60 59 57 56 55 55 55 54 54 54 58 58 59 67 77 68 56 62 73 82 62 34 32 41 50 59 68 73 75 80 90 96 97 98 98 100 100 100 100
72 67 66 65 62 59 59 59 56 56 56 56 56 58 59 64 64 57 61 60 70 59 74 84 82 42 32 38 46 54 65 74 81 89 92 97 98 100 100 100 100 100 100 100
81 76 72 68 62 61 68 69 68 64 63 64 62 58 54 54 57 71 70 77 77 60 74 83 54 33 36 41 49 58 68 76 81 91 88 96 100 100 100 100 100 100 100 100
74 69 67 61 63 64 64 59 60 61 61 63 66 59 55 55 58 62 62 54 46 37 32 31 33 35 37 43 52 57 63 69 76 82 92 98 98 90 90 88 88 93 94 92
78 72 70 67 66 64 60 60 59 61 60 60 69 70 66 62 60 47 38 35 33 31 29 29 31 34 37 42 48 58 66 72 73 78 88 84 82 83 83 85 91 92 89 86

GFSNGP_925_rhum_039.txt.gz
RH
56 51 54 65 71 73 97 96 98 80 80 63 53 46 51 52 45 39 35 44 56 57 53 52 54 52 48 46 45 41 36 33 31 29 29 29 29 28 28 29 30 31 32 34
89 63 61 83 66 73 96 96 97 95 94 60 44 42 44 44 40 37 47 60 58 56 54 55 48 45 42 39 35 34 33 33 33 31 32 32 30 31 33 33 33 34 35 37
84 62 62 86 89 91 90 81 89 93 62 45 48 52 64 71 72 64 61 67 60 57 55 46 42 39 36 35 38 38 38 35 34 34 33 32 33 34 34 35 35 36 36 35
100 72 89 56 46 53 70 82 83 69 61 58 63 67 76 74 76 66 65 64 56 53 47 41 39 36 36 41 40 38 36 34 36 36 32 31 33 34 34 35 36 34 35 35
92 76 56 46 48 56 71 91 85 92 81 71 64 71 88 85 76 70 62 53 49 45 41 40 40 44 41 39 40 40 39 42 39 32 30 31 33 33 34 36 36 36 36 35
75 93 72 42 41 48 70 74 79 89 82 79 73 81 96 96 78 57 52 51 48 44 42 49 56 47 54 58 55 52 43 31 29 28 30 32 34 36 37 36 35 35 36 36
97 96 63 38 42 47 60 58 54 85 86 78 74 72 74 90 86 72 65 71 68 66 65 68 68 61 49 41 34 31 30 28 28 30 33 37 39 39 38 36 36 35 34 33
99 100 87 44 43 57 52 50 49 66 82 76 71 75 75 70 77 63 46 40 37 35 34 33 32 32 33 33 32 30 30 32 34 36 38 42 42 42 41 39 36 33 32 31
76 62 38 39 47 45 52 55 56 59 88 87 89 75 75 84 74 65 50 45 42 40 38 38 39 40 38 34 33 33 33 35 38 41 45 46 46 48 40 38 34 32 33 34
58 46 42 41 42 50 54 58 58 59 58 65 67 64 60 56 56 51 47 41 37 34 35 36 36 36 35 33 32 34 36 38 39 40 40 41 42 44 40 35 33 35 35 37
53 44 42 48 53 54 56 53 54 52 54 57 59 60 56 53 49 45 42 38 36 35 37 36 36 35 34 33 34 36 37 39 42 41 39 41 42 40 39 40 48 52 49 52
47 47 48 50 53 56 57 57 54 56 57 54 54 55 51 49 45 42 40 39 38 38 36 35 34 34 35 36 37 37 37 37 38 40 40 40 37 33 37 34 34 45 65 67
42 47 50 53 56 55 56 54 53 54 52 53 49 47 46 46 43 43 40 38 38 37 35 34 35 36 36 36 36 36 38 41 45 40 38 37 36 34 32 33 37 43 48 56
44 49 55 56 58 56 53 52 50 48 47 46 46 46 46 44 41 39 39 37 36 35 34 35 37 38 39 40 41 44 48 46 41 41 43 41 36 35 36 36 36 38 43 51
47 46 49 52 56 57 52 53 59 57 49 47 46 44 41 40 40 38 36 36 35 36 37 41 44 45 46 48 48 49 48 45 41 44 45 41 38 39 40 40 42 44 47 49
55 58 59 62 64 60 57 54 52 50 47 44 42 41 40 39 38 38 38 38 38 39 40 43 46 49 52 52 54 57 53 35 41 38 37 37 40 43 43 46 48 50 52 53
76 91 94 95 80 63 56 50 49 47 43 42 42 42 42 41 40 39 39 41 42 43 46 50 53 52 50 48 43 42 45 48 41 38 39 44 49 49 50 53 55 56 56 56
57 60 66 67 63 58 56 50 46 43 42 43 43 42 42 41 42 42 43 45 47 50 53 55 53 52 48 40 41 42 41 41 42 43 44 50 58 57 56 58 60 59 59 62
57 58 62 59 56 55 54 50 46 43 44 44 42 42 42 44 44 45 45 46 48 53 62 59 54 52 42 34 42 42 41 42 42 44 49 58 54 56 60 61 64 64 66 67
66 61 60 58 57 56 53 48 45 44 44 42 44 45 45 46 46 45 43 44 46 64 71 65 67 58 43 30 38 42 46 46 46 48 53 62 58 63 64 66 69 70 74 74
70 66 64 63 59 54 49 47 44 44 44 46 46 47 48 48 46 54 58 59 65 66 65 64 58 51 42 37 44 47 50 50 51 54 59 60 64 66 70 76 81 82 83 84
66 67 64 60 56 52 49 46 45 46 46 46 48 49 50 53 55 52 50 56 68 72 67 66 54 51 32 35 44 49 52 56 58 60 63 67 77 85 89 90 91 92 93 94
65 64 61 57 54 51 49 49 48 47 48 51 51 52 53 59 58 59 64 70 71 71 71 70 55 29 30 39 45 51 57 61 65 69 76 80 91 94 95 95 95 96 97 97
65 62 59 57 56 53 54 53 51 52 52 52 52 54 55 58 61 57 64 71 76 72 79 82 67 28 31 39 47 54 59 66 77 86 89 86 93 96 96 96 97 98 98 97
74 72 68 65 59 56 62 62 62 57 56 59 58 56 55 55 57 70 67 74 81 75 78 84 45 28 33 40 48 52 62 73 76 85 84 89 94 95 94 96 96 96 99 98
73 67 66 62 60 64 64 59 58 58 59 60 63 60 56 55 64 69 72 69 60 60 46 37 34 32 35 37 45 54 64 68 72 77 89 88 88 90 94 94 90 92 93 91
74 67 66 64 63 62 58 58 57 58 57 59 65 66 65 69 66 62 56 47 38 32 29 27 29 32 33 34 43 57 63 68 71 80 79 75 76 87 90 90 92 92 89 84

GFSNGP_925_rhum_042.txt.gz
RH
67 58 59 67 69 67 99 96 98 85 88 78 78 71 62 48 53 55 51 46 57 65 63 58 64 56 52 50 43 42 43 42 40 38 36 35 35 36 39 32 29 29 28 28
90 65 69 80 70 70 71 76 91 96 95 64 55 48 64 82 69 67 62 66 65 63 57 60 50 48 48 44 41 38 37 35 34 32 32 31 29 29 30 32 30 30 33 32
85 71 77 89 75 75 86 84 84 98 78 60 62 66 82 89 86 83 74 68 67 62 49 45 43 41 38 37 36 37 38 38 39 40 42 43 46 46 49 36 34 33 33 33
94 89 95 63 61 58 65 63 83 84 77 79 76 90 92 90 93 86 69 64 60 52 44 41 39 36 38 39 40 39 40 39 39 38 40 40 36 36 35 35 34 34 34 34
96 85 62 52 54 56 62 78 77 86 80 81 72 93 91 86 64 62 59 54 48 43 40 37 39 43 43 42 42 45 46 50 49 45 42 47 48 38 35 34 34 34 34 34
97 97 84 49 49 54 72 91 68 87 86 89 74 92 97 91 62 55 45 42 43 41 44 44 44 48 54 56 64 72 70 66 48 56 72 54 37 35 36 36 34 33 34 35
97 96 75 47 51 57 76 79 64 82 88 78 90 94 97 85 86 78 68 57 60 70 82 84 86 84 85 86 93 90 87 82 67 47 36 35 35 39 36 34 35 35 34 33
86 95 93 45 51 66 66 60 60 80 87 84 83 77 87 85 84 92 91 93 92 91 96 99 100 95 98 98 93 69 42 34 35 37 37 36 36 35 36 37 35 32 32 33
79 77 54 48 49 60 61 65 66 64 90 88 88 88 81 80 70 48 41 43 51 59 59 50 46 39 34 35 33 35 36 40 42 42 43 41 40 41 38 36 33 33 35 36
68 55 50 55 55 60 61 63 61 61 85 75 85 79 79 77 79 76 71 62 55 50 46 40 38 36 37 36 36 38 40 40 39 38 39 38 39 40 36 37 37 39 44 48
63 55 52 60 61 59 60 56 58 58 64 68 68 67 60 56 52 46 43 40 39 38 38 38 37 37 36 37 36 37 38 40 40 39 39 39 38 34 34 42 35 38 54 59
62 53 54 61 62 58 61 61 60 64 65 63 60 60 54 52 46 43 42 41 40 38 37 37 37 38 37 36 36 37 39 39 40 40 39 37 35 34 35 35 35 38 44 58
54 52 60 63 61 57 62 61 60 61 60 61 55 51 48 48 44 44 41 40 39 38 37 38 38 36 35 35 36 37 39 41 42 38 38 36 36 34 34 35 37 39 44 50
48 56 62 62 69 59 59 57 53 52 51 50 49 47 46 46 43 42 41 39 38 39 40 40 40 41 39 37 36 40 45 41 39 40 40 37 35 36 39 40 40 43 46 52
52 53 60 63 62 60 57 60 66 62 55 52 49 46 42 43 42 40 37 37 39 43 45 44 46 48 44 40 41 43 40 38 37 37 33 37 37 41 43 44 47 50 52 54
70 66 67 70 70 66 67 61 57 55 52 48 47 44 42 41 41 41 40 41 44 50 46 46 48 49 46 44 45 36 38 46 36 33 35 38 43 48 48 51 54 56 58 58
79 90 91 90 79 69 61 53 51 50 47 45 44 43 43 43 44 46 45 44 46 47 46 44 49 44 42 41 40 41 34 31 41 38 39 44 51 56 55 58 59 61 61 61
66 62 80 76 66 63 59 53 49 45 45 44 44 44 44 46 49 50 51 50 50 50 48 46 44 44 40 35 31 31 32 34 35 38 43 51 60 55 57 60 62 65 66 68
60 63 70 68 61 56 54 50 46 46 45 45 44 46 47 48 50 51 51 53 57 63 62 56 49 38 30 33 29 32 34 37 40 44 48 60 57 58 63 64 67 70 71 76
67 62 65 64 58 56 53 47 46 46 46 45 48 48 50 50 49 48 46 52 52 56 60 59 46 29 24 31 32 33 35 38 44 49 55 59 60 65 66 71 76 81 82 85
72 69 69 67 62 54 48 46 46 46 46 47 48 50 51 47 46 51 60 71 75 67 61 54 40 33 28 32 34 33 36 41 48 54 58 62 66 74 81 86 89 91 94 94
71 72 69 63 57 53 48 46 46 47 48 50 52 51 52 58 54 54 54 62 70 67 57 49 38 35 28 32 32 33 39 46 54 57 63 70 78 87 93 94 93 94 95 93
72 70 66 61 57 52 48 48 48 49 50 52 52 54 56 59 56 61 71 67 66 63 54 46 35 26 30 30 32 37 44 50 58 66 74 84 87 89 91 94 96 90 85 88
70 66 64 57 52 54 59 52 49 52 53 53 55 56 58 58 56 51 56 62 69 68 57 58 32 26 30 31 36 40 47 54 62 68 78 86 78 84 93 93 85 76 84 88
73 67 62 59 66 67 61 59 58 56 56 58 57 56 56 54 54 65 61 67 80 71 66 72 28 24 29 32 36 41 48 55 67 82 76 78 78 84 86 81 74 86 99 93
77 73 69 64 62 65 65 59 59 61 60 63 65 57 55 52 57 62 64 73 69 63 53 43 29 28 29 30 34 40 48 55 64 69 82 73 73 77 76 75 79 91 93 90
76 69 67 67 64 64 62 60 60 62 62 64 72 59 58 62 65 65 69 64 53 38 31 28 27 27 26 29 32 43 52 61 67 74 72 70 72 73 76 80 85 92 91 87

GFSNGP_925_rhum_045.txt.gz
RH
76 73 69 75 77 76 83 78 97 67 71 65 63 72 70 74 72 81 74 70 58 66 68 73 64 56 53 53 54 54 54 51 50 49 45 41 40 40 37 37 36 34 46 67
92 71 73 84 76 76 77 76 89 88 93 63 62 65 65 86 85 78 77 75 68 67 71 62 54 50 46 52 50 50 51 46 45 43 40 40 40 39 38 44 53 52 41 31
93 70 83 92 80 75 73 79 84 97 75 72 76 78 94 94 87 88 83 74 73 58 53 46 44 46 47 42 44 44 40 38 38 40 47 54 55 49 46 40 35 47 68 56
97 86 95 65 54 60 70 74 76 76 75 75 80 93 90 74 70 67 80 65 50 45 42 40 41 43 43 43 42 43 45 47 50 57 61 53 47 55 67 69 63 55 43 34
100 96 70 57 57 57 65 70 73 82 79 80 75 93 95 70 55 53 46 43 41 40 43 45 44 44 46 46 53 59 60 72 72 67 74 74 64 54 67 78 62 38 35 35
99 100 91 64 50 53 65 85 63 80 86 86 78 93 98 85 63 48 44 44 46 46 47 47 54 60 64 69 74 74 82 86 84 81 82 87 83 62 46 36 35 35 35 35
96 97 82 58 50 69 75 71 65 77 90 82 93 96 94 82 81 70 68 73 67 76 75 74 76 69 84 83 93 92 86 83 88 93 95 91 81 54 39 35 35 34 33 33
99 98 92 47 55 67 65 64 63 79 85 85 88 86 84 86 91 88 82 85 86 91 99 100 99 94 99 99 100 94 98 95 94 84 63 48 49 40 37 36 33 33 34 36
77 74 52 54 55 61 64 68 67 74 86 85 85 81 70 72 64 83 91 99 100 100 100 100 100 100 100 100 96 87 64 48 41 39 46 40 37 38 36 33 34 37 39 43
81 63 67 59 65 61 60 62 61 78 87 85 91 81 74 67 63 58 62 56 58 55 58 50 41 44 55 48 41 40 42 43 42 43 42 40 38 36 37 36 30 35 45 50
71 60 62 63 63 65 59 58 61 68 78 86 81 84 79 74 66 60 54 45 42 40 41 42 39 40 39 37 36 39 40 41 42 40 39 38 34 32 34 41 40 38 48 54
76 56 61 62 63 62 62 63 65 69 72 70 63 61 57 54 50 44 44 42 41 40 40 39 40 39 37 36 35 37 40 40 40 40 37 35 35 40 48 53 50 49 54 54
58 55 62 67 63 58 64 66 65 67 65 66 57 52 48 48 45 44 41 41 40 40 41 41 39 38 38 37 36 38 41 42 40 38 34 32 32 33 36 34 36 46 53 56
55 62 64 69 70 62 63 63 58 57 56 54 52 49 47 48 46 42 41 41 42 42 43 42 40 40 39 36 36 39 41 40 34 33 30 31 35 39 41 44 48 50 52 62
59 58 63 68 67 65 64 62 64 60 55 57 50 48 45 45 45 43 41 41 43 45 47 44 44 44 39 38 38 39 34 31 29 30 35 35 40 45 47 50 55 58 58 58
74 72 71 71 70 71 72 69 63 58 54 52 48 46 45 44 45 45 46 46 48 54 49 47 47 46 41 38 35 36 42 37 28 29 32 41 50 52 52 57 59 61 64 63
72 85 92 88 79 74 72 58 53 53 49 47 47 46 46 46 49 51 49 46 45 47 47 47 51 47 44 39 27 24 28 37 34 31 39 50 57 54 57 61 62 65 67 68
83 68 77 74 68 68 64 54 51 47 46 45 46 46 48 46 53 58 54 48 49 50 47 44 41 38 34 28 25 25 25 28 34 40 44 56 60 56 61 63 66 69 71 72
70 66 78 76 65 61 56 52 48 46 47 46 46 48 50 53 56 57 53 54 58 61 55 45 39 32 27 27 25 26 28 32 38 43 51 57 55 63 65 69 73 77 80 82
74 68 70 79 80 75 55 48 47 47 47 46 51 51 54 56 56 56 53 59 57 54 52 42 32 27 31 27 26 26 30 35 41 46 57 56 62 69 73 80 86 85 86 89
78 75 70 78 77 55 49 48 48 48 48 50 49 51 55 55 52 52 58 71 61 56 48 41 27 24 27 29 26 27 32 38 44 48 54 62 68 74 79 85 88 86 90 93
78 74 69 65 60 53 49 48 48 49 50 50 51 54 56 59 56 57 57 62 64 66 51 41 29 26 30 26 27 30 34 40 45 51 61 70 78 83 85 87 87 90 90 86
77 73 68 62 57 53 49 49 50 50 52 54 54 54 55 58 57 63 74 67 68 56 48 36 32 34 27 26 28 32 37 42 48 56 65 73 85 83 84 86 91 88 84 82
80 73 68 61 55 53 61 55 52 53 53 53 53 54 56 60 57 53 51 63 61 56 45 44 42 41 25 27 29 34 38 44 48 60 73 79 73 78 82 83 81 80 85 86
79 73 68 61 66 68 62 59 56 55 55 56 56 55 54 53 53 58 55 62 78 54 50 62 42 33 26 27 30 34 38 43 54 78 70 71 75 76 76 76 79 84 94 85
89 80 71 66 63 63 62 60 61 62 62 65 63 58 55 54 52 54 56 72 71 60 53 50 30 25 26 26 30 33 39 49 59 63 69 72 72 74 73 75 80 81 82 84
84 81 74 71 67 63 60 59 62 63 62 64 69 65 58 59 59 63 69 76 67 58 46 32 28 26 26 26 28 35 46 56 62 66 69 70 71 71 71 76 80 80 81 85

GFSNGP_925_rhum_048.txt.gz
RH
80 76 73 74 75 76 88 74 92 65 69 60 58 57 63 73 78 83 80 72 76 77 76 80 68 62 63 66 67 65 65 61 52 47 46 45 44 45 48 47 44 43 62 70
95 73 79 86 78 78 77 73 75 69 76 55 53 66 84 84 81 75 74 80 80 67 67 63 53 57 63 70 70 70 66 62 63 55 48 51 53 54 48 50 57 62 68 74
88 74 84 93 82 76 76 77 70 86 67 63 71 85 92 84 70 71 64 76 61 49 43 46 53 59 62 63 60 60 60 60 53 53 56 60 60 60 68 73 77 62 54 67
96 82 94 62 54 60 69 66 73 77 70 70 80 90 83 66 61 59 51 48 46 46 47 47 51 56 67 79 79 78 78 77 76 75 72 65 68 79 78 71 78 92 96 76
93 97 74 59 59 57 70 75 71 74 75 79 74 90 96 75 49 49 49 43 46 48 48 47 47 52 57 63 72 79 82 80 79 80 91 91 96 99 98 94 96 73 52 46
98 98 86 56 49 54 60 86 68 71 78 90 80 96 97 85 58 55 49 49 50 49 54 55 59 60 66 71 76 83 94 92 88 92 98 99 100 100 99 91 67 51 42 37
92 96 80 58 52 67 77 70 64 77 84 79 91 95 90 77 78 74 76 79 77 77 80 78 73 74 86 98 100 100 100 100 100 100 99 98 98 85 65 62 42 35 35 35
93 97 94 46 61 71 65 65 63 77 82 90 90 85 86 87 84 81 82 85 96 100 100 96 100 98 100 100 100 99 100 100 100 100 100 94 70 48 42 37 35 35 37 40
83 76 53 50 58 61 66 71 67 78 84 84 88 78 70 77 90 89 93 99 99 99 100 100 100 100 100 100 100 100 99 99 96 82 62 49 39 38 35 35 35 38 40 43
73 61 61 59 61 61 60 62 63 75 87 84 83 70 68 66 66 77 89 93 97 99 87 92 99 97 98 99 98 88 58 54 50 46 44 40 38 37 35 29 30 36 42 44
76 68 63 62 62 62 59 58 60 85 86 89 82 79 65 62 62 58 58 52 48 44 44 46 63 67 65 52 47 44 45 46 45 42 38 34 34 34 34 41 39 38 45 53
78 57 62 62 63 64 64 62 66 80 86 84 81 80 74 64 58 49 46 43 43 43 42 43 43 42 42 40 38 39 42 41 40 38 36 37 38 48 58 56 56 59 57 57
61 55 63 65 62 60 63 65 66 72 74 70 64 61 58 54 47 46 44 43 43 42 42 41 40 38 38 37 37 36 38 39 38 34 31 29 30 33 35 38 45 60 65 67
63 65 65 69 65 65 64 66 64 64 61 57 55 50 48 58 50 45 44 43 43 42 42 39 39 40 38 36 35 37 38 38 32 29 28 32 37 41 43 47 51 53 52 68
77 68 69 70 69 68 65 63 66 64 59 58 51 51 55 52 46 44 44 44 44 43 43 40 40 42 39 37 36 38 36 29 29 32 34 39 44 46 48 53 57 59 60 55
78 70 69 68 71 72 70 68 66 63 58 53 53 50 47 47 45 44 45 46 46 52 47 42 42 43 40 38 37 31 29 29 30 32 39 45 46 48 53 58 62 64 65 63
90 85 92 86 79 75 73 67 62 56 51 48 51 49 48 50 50 50 49 47 46 46 43 41 42 42 39 36 33 34 38 38 32 34 40 51 52 54 59 61 64 68 70 72
90 88 83 76 72 67 68 59 54 51 50 48 48 48 49 50 53 57 54 49 48 49 46 45 46 45 38 28 25 26 26 27 30 35 48 56 54 57 61 63 68 74 75 75
82 80 79 80 70 62 62 57 52 48 48 49 48 48 48 52 56 56 55 53 55 55 48 42 40 36 29 27 25 25 24 28 35 42 53 54 54 61 64 74 79 77 79 79
76 78 75 74 64 61 62 57 48 48 48 48 49 54 57 57 55 57 55 56 52 45 43 43 36 30 28 29 26 23 25 31 36 44 59 53 61 67 72 78 84 80 80 81
81 78 76 92 94 88 74 67 61 51 49 50 50 52 56 58 56 55 58 60 49 45 43 39 33 31 30 27 24 24 28 33 39 44 50 58 64 71 76 81 83 83 83 82
81 80 74 68 71 61 58 54 50 50 51 51 50 54 58 61 58 57 53 51 52 50 43 34 27 27 28 24 23 25 29 35 41 48 56 65 74 81 81 81 81 83 83 79
85 79 75 66 60 55 52 51 50 52 52 53 55 56 56 59 60 63 66 52 51 60 46 36 28 38 31 24 24 27 31 36 42 50 57 66 73 76 76 77 80 82 79 81
90 82 79 70 59 55 60 55 52 52 52 53 52 51 54 61 60 54 51 53 58 56 46 36 59 66 22 24 25 28 32 36 42 50 65 73 70 74 73 72 72 75 81 87
92 90 78 73 66 63 59 57 56 55 55 54 52 52 52 53 52 54 53 57 66 54 45 67 67 65 24 25 27 29 31 36 45 59 64 64 68 68 68 69 74 80 85 84
94 94 88 78 70 64 62 63 64 62 60 63 60 56 55 54 52 52 58 59 68 53 50 63 60 41 25 26 26 29 31 39 51 59 62 65 65 65 66 68 74 78 79 79
89 90 86 78 72 68 64 62 64 65 64 62 64 63 58 57 56 57 65 66 67 58 57 52 38 27 25 26 27 28 34 46 53 58 60 62 62 64 64 69 74 77 77 78

GFSNGP_925_rhum_051.txt.gz
RH
79 74 75 77 75 84 85 76 89 70 74 55 48 49 56 80 76 70 67 62 64 86 90 77 67 72 77 78 74 74 72 71 66 66 59 54 49 49 51 55 56 51 48 52
93 72 84 92 80 80 81 76 78 71 72 49 47 58 79 80 70 69 66 60 68 58 61 64 62 64 69 70 71 68 67 62 57 56 56 61 64 67 63 62 60 55 66 71
87 76 84 89 84 78 74 75 66 80 62 61 69 79 88 80 66 63 56 49 47 48 54 61 67 72 68 66 73 77 81 72 77 79 80 81 77 74 77 78 80 84 84 82
98 81 95 59 61 64 67 61 66 63 57 64 77 85 81 71 56 54 54 46 45 49 51 57 70 84 90 89 94 92 87 82 87 88 92 88 84 88 91 89 90 93 98 100
94 92 76 62 65 70 74 73 69 77 73 68 77 90 94 77 50 51 54 56 54 50 49 52 55 66 78 86 94 96 100 100 97 91 90 94 96 93 92 98 100 100 98 97
98 96 90 54 53 58 61 82 67 68 72 83 80 96 95 79 67 61 64 59 66 67 69 68 66 69 74 83 94 99 100 100 100 100 100 99 100 100 100 99 98 96 76 56
90 97 83 57 52 64 73 70 64 70 74 81 86 88 88 76 76 78 79 83 92 97 98 93 85 91 100 100 100 100 99 100 100 100 100 99 99 98 95 95 51 43 40 44
87 97 93 50 69 70 65 67 64 71 79 85 88 84 85 85 80 83 86 90 95 99 100 98 91 94 100 100 100 99 100 100 100 100 100 99 94 77 57 40 37 40 42 44
82 77 52 47 55 58 68 71 65 74 83 84 87 81 82 89 86 86 94 99 99 99 99 100 100 98 100 100 100 100 99 99 99 94 73 52 43 39 38 37 37 42 42 41
77 62 64 58 59 60 62 62 61 65 86 85 83 73 72 75 86 86 92 97 97 98 98 100 100 100 98 99 99 96 79 70 57 46 42 39 36 35 32 28 32 39 43 49
80 69 64 63 65 60 60 58 60 82 87 86 77 71 68 65 67 74 71 83 59 58 67 82 96 98 97 84 58 51 51 49 45 41 39 37 35 36 42 52 45 46 52 57
79 60 64 65 59 64 63 62 64 88 90 87 72 67 65 64 60 58 49 49 51 54 60 60 69 58 50 46 43 45 45 42 39 39 42 47 54 65 63 64 62 63 62 64
71 59 64 65 63 63 63 64 66 82 86 90 83 74 65 64 53 50 47 47 47 46 48 49 44 42 42 42 41 38 40 41 39 34 32 31 31 31 33 39 43 64 71 70
74 72 68 67 66 66 63 66 68 69 72 71 68 67 59 63 67 47 46 44 43 43 43 41 42 41 41 40 37 37 39 38 31 28 26 28 32 37 40 44 48 48 49 71
76 80 76 72 68 69 68 67 69 70 64 61 56 55 64 75 67 47 43 42 43 42 42 41 42 43 41 38 35 36 36 30 25 26 29 33 39 42 46 52 56 57 56 53
85 84 74 68 70 70 67 70 69 68 64 61 59 61 65 63 50 46 45 43 45 48 43 40 41 41 39 36 34 35 27 25 25 28 34 41 44 47 53 57 59 61 62 64
98 92 92 89 81 74 73 68 65 64 58 55 55 52 51 48 48 49 48 45 43 41 40 39 40 39 37 36 34 26 26 30 27 32 41 49 49 50 56 60 63 67 68 69
93 92 90 89 86 71 70 65 60 56 51 50 51 51 53 51 52 55 51 47 45 45 42 40 38 36 36 35 31 29 31 32 31 37 47 52 50 54 58 62 68 72 70 70
79 86 89 89 86 74 65 63 57 52 55 58 56 52 51 51 53 55 50 50 50 51 47 41 39 38 36 30 26 26 26 29 35 41 47 55 53 58 62 69 73 73 74 76
85 83 81 76 67 65 62 55 51 53 54 59 53 53 56 55 54 55 53 54 50 45 43 44 43 40 33 27 26 26 27 30 34 39 48 49 53 64 67 72 79 75 75 78
88 86 85 89 95 82 66 65 67 52 51 51 52 54 57 55 54 53 57 58 49 44 41 40 38 34 29 29 28 26 28 30 35 39 44 50 58 65 70 76 78 76 77 79
86 81 78 78 80 75 87 83 74 66 51 51 51 52 56 61 58 56 52 51 47 45 41 41 36 32 30 29 26 26 28 32 36 40 46 55 62 68 73 74 72 72 78 76
88 87 80 78 69 61 75 75 64 55 53 62 59 54 56 58 58 59 60 51 46 58 42 39 36 31 35 34 25 26 28 31 35 40 50 57 63 68 69 71 69 72 73 74
92 92 92 79 69 58 59 56 60 70 70 56 53 51 53 60 58 54 51 47 47 55 42 38 32 47 68 28 26 26 28 31 34 41 50 64 64 66 69 68 68 69 73 76
91 94 93 91 80 73 65 60 58 56 55 55 54 53 51 51 50 53 53 51 50 59 45 41 41 72 61 26 26 27 27 29 33 43 54 58 60 65 66 67 67 70 73 74
93 95 98 92 86 79 72 67 65 62 60 61 59 56 54 53 54 51 52 53 59 62 48 46 67 70 49 26 27 27 28 29 35 48 53 57 61 63 65 65 66 69 71 74
82 80 88 96 90 89 78 72 69 65 64 61 61 59 56 56 56 53 55 61 65 63 49 50 64 59 43 27 26 27 26 27 37 47 54 57 60 63 65 64 65 69 72 76

GFSNGP_925_rhum_054.txt.gz
RH
78 70 75 78 75 86 82 79 85 68 78 57 51 53 53 78 73 70 68 53 57 57 71 68 69 73 75 75 72 68 65 60 62 62 68 66 62 65 62 66 67 62 59 53
92 72 83 93 82 82 84 78 80 70 74 48 46 51 74 83 71 65 62 49 47 49 59 64 71 71 73 72 67 65 66 69 71 73 73 74 74 75 71 68 70 66 66 67
88 78 83 88 84 79 81 78 68 84 60 49 60 73 86 81 69 60 56 48 51 55 58 67 81 83 84 83 80 77 80 78 75 72 73 76 76 81 80 76 70 76 82 86
98 83 96 56 58 64 68 60 67 61 55 51 68 84 80 75 61 54 56 58 52 51 52 60 77 86 93 98 96 97 100 100 97 92 94 90 85 89 93 88 90 95 98 99
90 81 77 60 75 74 73 68 68 64 64 67 78 89 92 74 52 54 56 55 57 59 58 64 69 78 83 87 94 100 100 100 100 100 100 100 99 100 100 99 100 100 100 100
98 82 95 54 53 60 60 78 62 73 69 71 78 95 92 77 68 67 69 67 71 75 76 75 79 77 89 100 99 100 100 100 100 100 98 98 100 99 99 100 99 99 93 91
92 88 83 61 53 62 86 70 64 68 70 81 84 86 87 77 78 80 83 88 93 95 96 96 89 80 99 100 100 100 100 100 99 99 99 100 99 100 100 83 54 48 50 49
92 96 94 53 68 75 63 65 64 67 72 80 86 84 85 85 84 88 91 94 98 99 100 98 97 97 99 99 100 100 99 99 100 100 99 100 94 66 44 41 42 46 45 44
79 75 54 51 58 54 68 68 62 68 78 84 85 86 85 94 91 90 90 97 97 99 100 100 99 100 98 100 100 99 99 99 98 82 56 46 42 40 39 39 41 44 41 40
81 63 64 60 59 62 65 64 60 65 80 87 84 78 80 85 94 93 92 92 98 100 100 100 100 99 99 100 100 98 84 61 48 42 40 39 37 34 31 31 35 38 43 50
81 70 64 65 64 63 61 59 59 72 83 88 82 74 73 79 90 90 94 92 76 84 94 99 99 100 100 97 75 63 50 48 45 42 39 37 43 46 46 45 40 44 56 62
83 68 67 67 62 62 64 61 63 75 89 86 75 71 68 70 72 69 73 61 66 77 80 84 94 90 70 54 52 47 44 41 41 40 42 48 58 67 70 68 69 72 73 71
85 84 81 75 72 64 64 65 63 78 87 92 78 64 65 67 66 60 55 58 64 70 76 71 58 48 45 45 47 41 38 39 39 34 32 34 40 36 35 47 55 71 76 74
76 82 75 69 75 69 63 63 68 72 82 88 85 70 68 66 76 62 52 56 56 60 61 51 44 43 43 44 41 38 38 37 31 29 30 32 35 37 38 43 47 47 48 70
79 81 87 84 76 68 69 70 69 74 72 72 74 72 65 70 74 71 50 49 48 50 47 42 41 42 42 41 38 38 38 31 28 30 31 33 35 39 44 49 52 55 54 52
85 90 85 85 78 70 68 69 71 72 68 66 66 65 68 72 77 60 45 44 46 50 44 42 41 41 41 40 39 37 30 27 27 29 31 36 39 42 47 52 54 58 61 62
97 97 94 94 88 77 76 72 70 69 67 63 63 64 67 64 59 57 49 45 42 42 41 41 41 42 41 39 35 31 29 31 25 27 33 40 43 46 51 54 58 62 64 65
86 89 93 95 95 90 80 68 66 63 61 55 55 56 57 57 57 56 50 47 46 46 43 41 42 41 39 36 32 28 26 27 26 28 37 44 46 48 54 58 63 66 64 63
82 85 85 92 90 92 86 70 64 58 54 52 53 53 53 57 61 55 50 50 52 52 48 44 42 37 34 34 32 26 26 25 27 31 40 49 53 51 56 60 67 70 69 67
88 86 86 84 85 68 70 63 58 55 55 54 54 60 68 67 54 53 52 54 51 47 44 44 39 35 34 33 26 23 23 25 28 33 40 45 46 53 60 65 72 70 68 69
84 84 86 90 93 96 70 58 55 58 59 60 68 69 62 54 53 53 56 58 49 45 42 42 39 37 37 32 25 24 24 26 30 34 38 47 48 56 61 66 69 68 68 72
85 86 84 77 80 91 88 94 89 82 62 55 55 55 55 58 58 57 53 51 46 47 45 42 40 36 34 28 27 25 25 28 31 34 37 43 49 55 59 67 67 66 69 73
89 88 89 86 80 69 67 89 91 86 71 56 54 55 56 57 55 60 60 51 46 47 43 41 37 35 32 34 29 26 26 28 30 33 36 43 49 57 61 64 66 67 68 69
89 94 96 92 79 71 72 64 61 70 77 76 76 76 72 58 57 52 50 45 45 47 42 40 39 36 38 38 34 26 26 27 29 32 36 45 53 60 62 65 66 65 66 69
93 93 95 98 94 90 82 72 65 60 60 61 61 59 57 53 54 52 52 48 46 50 46 42 39 39 61 48 36 26 26 26 28 31 35 45 55 58 62 66 66 65 65 68
89 93 89 93 98 97 92 79 73 67 64 62 59 58 57 55 55 52 52 50 52 56 48 45 46 60 62 60 35 27 27 26 27 29 38 46 52 58 61 62 62 62 63 66
77 76 79 84 84 87 86 96 86 77 68 65 64 59 60 59 59 57 55 57 60 70 58 48 48 56 62 62 32 26 26 26 25 28 39 46 54 58 60 61 61 61 66 72

GFSNGP_925_rhum_057.txt.gz
RH
76 69 76 77 80 79 81 77 82 60 72 52 50 53 50 77 70 66 62 51 50 53 62 70 73 74 77 78 71 67 68 72 77 77 77 77 77 79 79 80 80 79 75 73
87 74 84 93 82 83 78 75 75 69 71 47 45 45 67 78 72 64 59 49 49 53 61 71 81 81 84 83 80 74 79 82 84 84 85 88 92 89 88 88 88 84 76 70
87 82 81 92 83 80 82 79 69 86 62 49 56 60 83 80 71 60 56 54 51 54 58 74 86 90 96 92 85 88 92 97 95 95 92 92 92 93 98 98 95 98 98 98
93 82 92 51 61 67 69 63 70 65 60 53 56 80 78 74 61 55 56 60 51 52 55 64 81 88 93 96 97 97 99 99 99 100 99 100 99 100 100 100 99 100 100 99
90 77 70 67 76 73 72 67 63 63 57 56 74 88 92 69 54 55 55 56 60 63 66 71 74 84 91 99 99 99 99 100 100 100 100 100 100 100 100 99 100 99 100 100
96 86 89 55 55 62 60 78 57 68 69 69 81 84 88 76 65 67 68 72 75 78 81 82 88 93 98 100 99 100 100 100 100 100 100 100 100 99 99 99 98 98 98 96
96 91 72 59 52 58 90 73 60 73 73 70 87 86 85 80 83 86 89 91 91 93 93 94 92 97 99 99 99 100 100 100 100 100 100 100 100 99 99 86 56 55 60 71
87 86 87 53 68 78 66 63 63 66 69 76 84 82 81 81 87 90 92 93 97 96 99 99 98 99 99 99 100 100 99 100 100 99 100 87 55 45 43 46 47 47 45 43
73 71 51 51 61 52 61 65 62 65 67 80 85 84 85 87 90 85 90 91 97 99 99 100 99 98 99 100 100 100 98 98 80 55 46 41 38 38 40 40 41 42 38 44
80 64 65 58 58 58 65 68 59 65 70 86 84 81 83 84 92 92 92 92 95 92 100 100 100 100 99 100 98 90 63 46 42 39 39 38 36 34 31 32 33 39 50 57
80 71 67 61 65 63 62 60 59 62 74 85 86 80 80 83 88 90 92 94 95 98 100 100 100 99 99 96 81 52 46 46 42 37 35 39 45 46 40 44 46 51 60 63
86 72 75 68 60 64 66 66 64 67 83 85 83 77 75 81 87 92 97 73 83 92 96 97 99 98 91 70 55 42 41 41 39 40 48 57 66 71 71 73 77 78 78 74
80 82 84 80 83 70 71 65 65 68 79 88 81 72 70 73 78 82 76 70 80 81 87 91 89 72 54 53 49 40 37 40 42 42 46 50 42 40 46 66 75 75 78 74
74 78 78 74 80 85 77 67 70 71 78 88 83 69 68 69 72 67 65 68 79 81 81 82 66 47 46 48 46 39 39 37 31 27 26 29 34 38 40 41 44 45 47 73
85 85 84 80 88 79 68 72 69 74 75 82 88 75 70 72 77 68 66 65 70 76 76 61 45 44 45 45 41 38 37 33 25 27 32 36 37 38 41 47 52 53 52 51
92 92 88 88 87 82 72 69 73 76 73 74 80 79 70 71 75 74 66 58 57 59 62 50 42 42 44 42 39 37 35 26 28 36 38 36 37 40 45 50 53 55 56 56
97 93 95 96 94 91 86 73 72 73 71 69 69 70 71 74 76 72 61 51 51 53 54 42 40 42 41 39 36 34 30 38 30 31 32 36 38 40 46 50 53 57 60 60
89 89 87 88 94 96 94 84 73 68 67 62 61 68 72 68 69 65 54 53 48 46 44 40 40 41 41 39 35 33 34 36 28 27 32 37 40 42 47 51 56 62 64 62
92 89 87 86 88 92 94 91 81 67 61 57 59 61 62 63 69 78 77 65 63 54 49 44 43 42 40 37 34 32 29 28 26 28 32 41 48 44 49 54 59 64 67 66
100 92 87 89 91 90 70 64 65 62 57 55 55 55 58 62 69 79 82 78 57 50 45 44 44 42 38 36 34 30 26 24 24 26 31 36 38 42 49 57 62 64 65 66
87 85 82 82 89 96 93 67 56 57 58 55 56 60 62 65 78 80 70 60 52 50 44 43 43 40 38 38 32 25 23 23 23 25 30 36 40 42 49 55 60 64 64 65
86 85 86 83 79 72 81 97 94 87 74 64 63 68 71 70 64 57 54 54 48 48 46 46 44 39 36 37 31 24 23 23 23 26 28 31 34 40 48 55 60 62 64 67
86 89 91 91 88 75 64 66 76 95 97 92 80 64 60 58 58 63 62 53 50 52 47 45 43 40 38 38 32 25 23 23 23 24 26 29 33 41 50 56 59 62 64 65
90 93 96 95 88 84 84 78 68 62 70 77 82 79 75 77 73 62 54 49 47 47 46 44 45 41 54 39 32 27 24 23 23 24 26 29 34 43 53 57 59 61 63 64
89 90 92 95 97 99 96 90 76 69 64 61 60 63 73 78 77 60 58 68 51 51 48 45 44 52 62 42 37 30 24 23 23 24 25 27 33 45 53 57 59 61 61 63
85 87 86 90 94 94 81 92 98 87 76 69 63 59 58 58 58 57 55 56 52 65 53 50 53 68 61 48 40 36 26 24 25 24 24 26 36 46 52 56 59 59 60 61
65 73 74 67 70 73 84 95 100 100 97 84 73 65 62 60 59 59 58 59 58 68 62 56 57 60 55 52 49 44 26 24 25 24 24 26 36 47 54 56 56 57 59 65

GFSNGP_925_rhum_063.txt.gz
RH
51 51 55 64 62 59 88 68 87 43 37 28 28 30 33 39 52 57 51 46 45 46 46 52 56 62 63 67 67 69 69 72 77 84 95 98 98 100 100 98 95 92 85 84
82 56 58 73 58 58 62 62 54 48 49 30 27 31 38 43 60 62 53 49 44 44 48 56 61 68 69 71 73 72 74 74 78 86 94 100 100 100 99 100 99 100 100 99
61 59 60 74 62 59 58 53 54 68 43 34 35 38 42 56 62 59 50 48 47 45 48 57 64 69 70 74 82 86 88 85 88 94 98 100 100 100 100 100 100 99 99 99
67 64 82 57 47 46 51 47 46 43 38 34 35 38 60 58 58 50 47 50 47 45 51 56 61 64 71 85 97 99 99 99 100 100 100 100 100 100 99 99 99 100 99 98
72 59 45 37 52 53 58 60 43 42 38 37 38 60 65 56 48 46 44 45 46 50 56 60 61 65 74 80 95 98 100 99 99 99 99 98 99 100 100 98 96 98 96 97
76 78 62 57 50 45 45 69 51 44 44 46 54 74 67 57 48 49 47 48 52 56 63 66 69 68 77 87 99 99 100 100 100 100 99 99 100 100 99 97 97 92 85 86
69 72 52 36 50 41 77 76 51 52 52 51 61 60 66 57 55 54 56 58 61 63 68 70 78 88 98 99 98 100 100 100 99 99 99 99 97 89 78 72 69 62 66 69
61 74 74 36 53 54 64 51 48 49 51 55 56 68 66 63 64 63 66 68 65 68 75 84 98 99 100 99 100 99 100 99 99 96 86 70 55 47 41 39 38 38 39 44
51 50 37 39 48 42 47 54 52 54 50 53 70 71 66 68 69 66 66 69 70 80 94 98 100 100 99 100 100 99 92 81 55 42 44 46 45 42 34 32 28 27 31 38
50 41 39 35 38 45 51 54 52 50 51 54 59 65 66 69 74 74 72 72 72 82 94 100 100 100 99 100 93 75 53 39 38 37 37 35 33 33 27 26 27 30 36 41
48 41 44 48 43 50 56 53 52 50 51 54 56 61 65 67 74 75 74 71 67 78 90 99 100 100 95 87 71 48 36 36 37 35 33 39 45 41 39 54 50 43 51 51
51 39 41 51 56 63 60 58 55 55 53 57 58 58 60 62 69 73 74 73 71 82 88 98 100 94 84 74 55 39 36 36 37 40 41 45 51 65 67 78 72 51 52 62
48 56 54 55 60 60 59 59 56 55 52 54 60 60 60 60 66 74 78 80 82 84 90 98 99 87 78 67 47 38 38 39 42 43 44 43 41 38 50 65 42 40 44 54
53 57 60 57 58 57 57 57 58 58 57 56 58 63 61 62 66 74 78 83 86 83 91 95 93 84 72 63 45 40 39 41 42 39 38 36 28 29 30 31 31 34 43 41
56 59 60 59 58 59 63 60 61 59 54 54 64 66 63 63 68 75 78 76 86 83 83 82 82 76 66 59 46 42 43 44 37 33 33 32 33 35 36 38 38 38 41 46
66 68 66 67 66 66 65 66 67 62 55 54 55 66 66 63 65 73 76 76 83 81 78 78 78 66 57 54 50 44 42 40 36 33 35 36 36 37 38 38 39 40 42 44
70 72 79 86 82 70 66 64 65 67 67 60 56 57 70 66 64 69 73 74 80 81 81 77 76 65 51 49 49 45 44 40 40 35 38 35 35 36 36 38 41 43 44 46
72 70 71 72 75 77 75 72 73 70 69 70 65 59 69 71 67 71 70 72 76 82 84 80 75 70 50 46 48 45 40 41 44 38 34 35 37 37 39 42 43 45 48 52
81 86 91 86 85 86 91 86 63 59 70 77 67 62 61 67 70 72 73 70 73 77 78 80 77 74 49 44 46 45 40 42 46 38 34 39 43 43 42 44 46 48 52 56
99 98 98 91 86 91 94 93 75 54 59 65 62 59 60 64 68 71 70 68 68 71 73 78 78 77 54 43 45 44 41 41 40 34 34 38 43 46 44 45 48 52 56 57
76 74 74 76 81 88 88 99 98 70 57 54 55 54 57 61 69 74 80 80 76 72 77 80 96 96 68 47 49 46 41 38 37 33 33 42 40 41 39 43 47 50 53 57
61 66 70 72 69 64 64 65 66 86 95 88 80 74 74 76 74 76 77 82 83 93 95 100 100 100 98 79 53 50 41 37 35 32 31 32 40 40 39 39 47 56 62 63
58 62 64 72 75 74 72 78 75 66 68 83 94 92 87 91 93 95 91 83 89 93 95 100 100 100 99 97 63 52 44 37 35 31 28 28 28 29 33 42 46 53 59 57
60 62 68 72 78 71 69 74 88 84 74 65 68 77 88 92 89 86 86 85 65 61 65 64 71 66 75 66 60 52 45 39 35 30 27 26 27 28 30 31 34 40 48 52
70 73 73 72 57 60 61 65 72 88 89 81 74 68 65 72 82 81 82 80 71 62 67 67 66 71 78 68 60 51 44 40 34 29 26 26 27 28 28 29 29 36 43 48
58 48 52 60 61 65 62 70 70 77 86 89 92 92 80 70 65 64 65 65 63 75 94 74 71 78 82 74 67 56 48 43 37 33 27 25 25 26 26 27 27 36 41 47
67 67 58 55 59 61 68 78 76 69 75 79 81 88 96 88 75 68 68 67 66 67 70 82 90 77 78 79 74 67 54 49 41 35 30 26 25 25 24 24 28 33 42 48

GFSNGP_925_rhum_066.txt.gz
RH
51 50 57 70 65 65 89 76 78 56 38 34 35 36 35 48 56 60 55 48 49 52 57 56 60 65 67 71 71 72 73 76 83 92 98 98 98 99 99 99 99 97 94 96
88 53 57 73 63 64 70 70 70 61 59 39 33 35 44 55 64 66 59 51 46 48 52 60 67 70 70 73 78 77 75 79 86 92 98 98 99 99 100 98 99 100 99 99
78 58 62 82 71 67 65 62 66 76 53 37 42 41 46 58 67 67 57 53 50 50 55 63 67 68 73 82 88 90 89 89 94 98 99 100 99 100 100 100 100 99 99 99
88 71 96 62 48 50 58 55 55 52 47 38 38 51 61 61 63 60 52 53 50 50 55 60 63 67 79 89 98 97 99 98 98 100 99 98 99 100 100 99 97 98 99 100
91 78 57 59 52 54 62 63 48 51 45 41 52 65 70 61 50 50 51 51 50 53 56 59 62 69 78 87 95 99 99 99 99 99 100 98 99 99 100 100 100 99 96 89
85 85 79 65 50 44 44 77 54 47 46 46 68 87 81 63 54 52 47 49 53 57 62 65 66 70 77 90 98 99 100 99 99 99 99 100 99 99 99 88 77 81 87 86
83 80 67 57 54 43 85 84 60 55 52 54 72 79 74 62 60 53 53 55 57 61 65 68 79 84 96 99 99 99 99 97 97 93 92 92 82 63 59 58 61 64 67 69
72 87 84 50 51 60 69 56 55 53 53 56 76 74 69 66 66 66 66 65 64 70 75 83 91 96 99 99 99 100 100 100 97 94 88 55 48 45 42 40 39 41 41 45
60 69 47 43 52 48 55 59 59 58 58 55 76 74 70 72 71 67 69 69 68 80 88 93 97 96 99 99 99 100 99 88 62 50 49 48 44 38 34 31 28 29 36 43
55 47 47 40 46 52 52 58 56 55 53 54 65 75 71 71 73 71 68 71 74 88 91 95 96 99 98 98 98 88 66 43 39 40 41 40 36 31 27 27 28 33 39 44
58 48 44 50 46 57 60 56 56 54 53 54 57 71 72 74 75 74 73 72 75 85 89 94 100 99 99 98 85 64 40 37 36 37 30 32 34 37 34 37 41 44 50 51
68 55 54 76 71 65 62 61 58 58 57 58 61 65 70 76 75 77 76 71 72 78 88 92 94 98 96 88 69 41 37 37 36 35 39 45 46 54 63 50 43 38 38 46
60 62 65 64 66 60 61 62 59 60 58 58 63 65 65 72 72 75 75 73 71 80 88 92 97 94 89 78 56 39 37 36 38 40 43 46 49 55 55 55 44 34 33 34
56 60 64 63 71 62 60 60 59 59 59 58 59 63 65 67 70 76 78 76 76 83 88 96 93 90 82 75 54 39 36 37 38 40 41 40 34 30 28 30 33 34 38 38
61 61 67 63 60 61 65 68 69 70 65 62 60 68 68 71 78 79 77 80 83 85 91 96 94 91 81 74 56 39 38 38 40 37 33 31 28 28 29 32 32 35 38 42
70 70 67 69 69 69 70 72 76 75 68 64 61 64 69 67 68 74 76 80 87 87 88 92 94 90 80 72 58 42 39 38 37 33 30 31 30 29 31 33 35 37 38 40
77 80 77 81 83 75 73 75 77 77 77 78 72 59 61 71 68 74 79 76 82 85 85 84 83 81 75 70 58 46 41 40 41 35 31 31 30 30 32 34 35 37 40 41
73 72 72 77 84 86 86 83 84 80 81 72 73 68 62 76 76 72 76 75 78 83 82 79 79 78 71 62 54 50 44 41 40 39 32 34 32 31 32 33 35 38 39 41
85 92 95 87 84 86 88 90 85 68 56 59 78 72 66 67 72 72 71 73 78 86 85 83 82 85 74 62 51 50 47 42 39 40 37 32 34 36 34 33 35 36 39 43
99 97 98 96 90 90 88 91 97 82 57 56 63 66 64 64 68 72 74 74 74 75 76 79 86 89 89 72 52 48 47 43 40 40 40 34 33 34 35 37 38 37 39 42
94 81 79 74 72 83 82 79 87 95 97 77 64 62 60 62 67 76 81 79 72 72 74 74 78 86 92 86 91 52 48 46 43 40 38 36 33 35 36 36 33 34 35 38
61 66 69 72 72 71 71 73 70 64 72 90 94 89 84 79 75 73 76 79 78 83 84 82 98 100 100 100 99 94 56 48 44 40 36 32 31 32 32 31 32 33 33 38
61 62 63 73 78 77 75 79 84 78 73 68 74 86 93 92 93 97 94 95 97 95 100 100 99 99 100 100 99 98 83 84 48 42 36 33 29 26 26 29 29 29 35 39
60 65 70 70 73 70 72 63 66 90 87 76 69 65 70 82 78 80 85 96 99 98 84 93 99 99 100 100 99 98 98 98 83 46 38 34 31 27 26 27 29 31 31 33
61 63 66 65 61 67 58 61 67 78 83 90 90 88 84 70 71 69 69 70 74 80 68 69 77 80 100 100 99 98 98 97 62 47 40 36 32 28 26 26 26 28 28 27
63 52 54 55 56 61 59 68 77 74 78 80 79 82 92 95 86 72 65 65 65 64 72 86 82 80 82 83 78 71 67 61 58 48 55 43 34 29 26 27 27 30 26 25
58 60 60 59 55 57 60 74 80 74 74 78 80 78 82 84 86 78 72 68 67 66 66 68 79 86 78 80 82 76 89 74 74 93 69 43 38 32 27 26 27 27 24 24

GFSNGP_925_rhum_069.txt.gz
RH
54 54 66 72 68 74 79 69 76 58 52 45 46 46 42 49 63 68 60 56 58 62 66 64 68 69 72 72 73 73 77 84 91 97 98 99 99 99 99 100 100 98 98 100
83 59 58 72 70 72 76 68 67 68 68 45 35 37 56 63 71 70 65 56 54 58 66 71 73 73 76 81 81 78 82 88 92 97 100 99 99 99 99 98 99 98 100 99
88 66 66 78 72 69 71 69 62 75 55 43 44 47 59 67 71 71 66 58 53 56 65 73 72 73 82 86 89 89 90 94 98 99 99 99 99 98 100 99 100 100 98 99
92 76 90 48 56 57 60 62 65 61 53 48 46 49 64 69 74 72 61 56 56 59 67 68 69 78 85 92 95 98 96 96 99 99 99 99 99 99 100 100 100 100 97 88
91 92 63 63 56 59 71 69 59 60 53 46 60 62 64 66 59 61 56 57 53 55 60 64 69 81 85 94 99 99 99 99 99 99 99 99 99 99 100 100 94 80 75 74
87 91 91 62 50 46 49 82 59 55 53 51 70 69 72 65 55 56 54 55 59 60 63 64 71 79 86 93 98 99 99 99 99 99 99 100 100 100 86 83 88 94 88 82
91 84 73 50 57 51 86 75 62 54 51 60 68 65 74 63 60 54 54 56 58 61 65 68 74 81 90 97 99 99 99 100 99 99 99 98 93 69 67 70 70 72 72 71
88 93 92 57 52 70 66 59 58 57 57 68 77 74 69 66 64 64 67 67 64 69 75 85 86 88 99 99 100 99 98 97 93 95 90 58 54 52 49 46 46 44 44 51
71 70 50 53 55 56 59 61 59 62 60 70 76 75 70 72 69 67 69 70 70 78 88 89 90 98 100 99 100 100 99 98 95 84 56 50 46 41 38 37 33 33 40 45
56 50 49 49 51 59 58 60 58 58 59 62 74 75 74 72 74 72 72 73 77 86 93 96 96 95 96 98 99 99 99 84 56 49 48 45 41 34 29 27 29 34 39 45
63 54 49 48 53 62 63 62 58 56 57 60 64 77 74 75 76 72 73 75 81 88 93 96 98 96 96 94 94 95 72 45 40 40 41 32 30 30 29 33 36 38 42 44
76 58 57 72 72 70 72 68 62 60 59 57 60 68 74 77 76 76 76 76 85 86 89 94 98 96 97 98 94 85 50 39 38 38 31 34 41 57 57 45 35 33 31 37
62 65 70 72 68 61 70 66 62 61 60 60 63 68 73 78 78 79 78 75 79 84 87 92 94 93 98 98 89 76 41 37 37 35 37 44 51 52 50 56 48 38 34 33
68 68 68 69 73 68 66 64 61 61 62 63 62 65 68 74 76 82 82 75 73 78 87 91 96 97 98 92 85 63 40 36 35 39 40 45 47 46 42 37 37 32 33 40
74 68 72 71 67 65 69 71 71 74 72 69 63 67 71 76 79 81 76 75 73 79 87 90 96 97 88 88 80 59 40 37 36 38 40 40 38 30 27 27 29 29 32 34
78 77 73 71 70 72 72 72 75 80 78 75 71 66 67 71 73 77 76 77 81 89 89 91 96 94 88 87 79 65 44 37 38 38 38 35 31 28 27 28 29 30 31 32
81 80 79 80 82 77 78 82 84 86 86 85 82 77 68 67 74 79 82 79 78 81 85 89 90 90 89 90 78 70 47 38 38 38 35 31 29 28 26 28 29 30 29 32
75 76 78 79 85 89 90 87 90 83 76 68 64 75 78 72 82 77 79 82 82 84 84 85 88 87 89 89 80 72 53 41 44 42 35 33 30 28 28 29 29 30 28 30
87 91 90 85 85 85 87 88 89 89 70 60 66 84 82 76 72 74 74 81 83 86 82 83 85 90 89 83 79 70 59 47 43 43 41 35 34 33 30 29 29 29 29 30
99 98 97 93 89 89 86 90 93 92 85 72 62 68 72 70 69 74 78 78 76 76 76 76 85 87 89 85 84 72 58 52 47 44 41 40 37 33 32 32 31 30 30 30
100 99 99 98 90 88 72 70 68 71 88 97 89 80 73 65 69 75 80 84 74 77 82 81 78 90 93 88 89 95 96 79 50 46 46 44 40 36 32 30 30 32 32 29
71 69 71 73 75 77 77 81 77 73 70 71 82 91 89 87 84 77 75 78 75 79 79 80 83 88 97 100 100 99 99 97 80 68 83 44 41 37 34 30 29 29 29 27
63 63 68 74 80 79 75 59 76 90 86 73 71 71 81 87 91 98 97 99 99 99 99 99 99 99 100 100 100 99 98 98 97 93 82 55 41 38 33 30 28 27 27 26
64 64 69 65 71 62 60 59 71 85 89 90 87 85 77 73 70 83 79 77 86 98 99 99 99 99 99 100 99 99 98 98 98 97 97 95 94 47 35 32 28 25 24 26
61 62 64 58 64 67 59 64 67 72 75 74 75 82 90 94 91 82 72 66 67 68 78 80 77 88 99 100 99 99 98 98 98 98 98 98 96 64 39 34 30 26 25 25
58 54 54 53 51 56 54 62 75 74 75 77 72 73 79 80 85 84 76 71 68 67 66 68 80 81 82 86 99 100 100 99 98 98 98 98 68 49 86 66 32 29 25 25
60 56 55 57 55 54 53 63 80 75 73 75 79 79 75 71 78 84 84 80 76 72 70 68 69 74 86 86 85 86 84 80 85 94 92 97 96 97 84 42 35 30 27 27

GFSNGP_925_rhum_072.txt.gz
RH
60 64 70 72 73 77 86 78 82 64 61 45 45 47 48 47 57 72 67 63 64 65 68 67 70 71 72 73 74 76 79 84 92 98 98 99 99 99 99 97 98 99 99 99
80 63 59 74 72 76 74 69 69 64 68 49 38 40 44 47 68 74 69 62 63 64 68 73 74 75 78 79 77 78 82 89 96 99 99 100 100 99 99 99 100 99 98 98
79 68 67 76 69 69 74 72 62 75 51 45 48 40 48 60 69 70 69 61 61 65 70 72 75 76 81 83 84 84 88 95 98 98 99 99 99 100 99 99 99 99 99 99
93 76 92 57 54 56 59 62 67 60 51 46 46 47 56 63 71 72 69 62 56 59 70 73 76 79 84 89 92 92 94 97 100 99 100 100 99 100 100 99 98 97 88 83
93 94 72 57 61 65 70 64 62 60 59 53 51 62 60 70 72 72 68 60 55 55 67 72 76 82 87 93 95 96 97 99 99 99 100 99 100 99 100 96 88 80 76 72
92 94 92 55 52 49 55 86 62 60 61 58 73 74 68 74 60 62 57 54 56 61 66 70 80 83 87 94 96 99 99 98 99 99 99 99 99 98 99 98 84 82 74 71
87 91 75 54 53 53 82 70 62 63 58 61 75 60 65 66 58 57 58 58 59 63 66 70 80 85 89 95 99 97 98 97 98 97 98 99 99 85 84 82 81 80 72 66
92 97 93 56 54 72 65 61 60 61 61 64 70 77 71 66 64 62 63 64 63 68 71 74 79 84 93 100 98 99 99 100 99 99 100 97 74 69 63 60 57 52 52 55
78 76 51 53 51 50 64 64 58 60 62 71 77 73 70 70 66 64 66 70 67 71 81 87 87 88 100 99 99 99 100 98 91 94 81 58 56 52 49 44 41 40 41 45
60 50 51 51 53 56 60 58 57 58 61 68 69 74 73 72 71 69 70 73 73 80 90 94 92 93 96 99 99 97 96 95 96 95 66 54 47 40 37 34 32 32 38 43
66 57 54 49 56 62 62 62 59 57 57 59 68 76 72 74 75 74 72 74 76 85 90 92 93 94 97 96 100 99 99 99 86 58 54 47 43 35 30 28 28 30 34 38
71 56 55 54 65 60 72 68 66 63 60 58 60 68 74 76 76 76 76 77 83 86 88 90 95 95 92 92 92 99 99 81 50 44 48 40 34 37 35 38 42 34 33 31
59 67 69 73 69 67 72 71 63 62 61 62 62 69 72 79 76 76 76 78 83 86 85 88 96 98 93 94 94 95 88 60 41 39 40 35 41 49 55 58 51 35 32 33
63 74 73 73 70 66 67 65 63 63 65 66 66 64 71 77 77 81 82 76 76 79 82 85 94 100 93 97 99 95 86 61 39 38 37 35 40 44 48 49 49 43 35 53
76 68 65 78 79 74 73 73 72 76 75 74 68 69 71 76 81 81 75 75 76 76 80 85 91 94 92 98 100 95 88 61 40 36 37 37 41 46 48 43 33 27 27 29
81 78 78 76 77 78 74 74 75 79 80 79 80 74 69 71 75 77 77 77 81 84 83 85 88 87 91 96 99 94 86 63 42 38 37 42 43 43 38 31 28 27 27 26
85 85 81 80 82 78 77 84 84 86 89 89 87 83 82 79 72 77 81 81 78 76 77 80 80 82 87 92 89 90 85 66 44 40 39 40 40 39 32 28 27 26 24 24
78 80 76 74 80 84 87 86 91 88 82 74 64 65 72 85 85 75 74 80 86 85 82 82 82 83 86 88 88 88 83 74 52 47 40 40 38 34 31 28 27 26 25 26
85 88 86 84 84 85 86 88 89 90 82 64 61 64 75 87 85 80 77 83 90 92 83 82 85 88 88 88 90 91 86 76 65 50 46 41 38 35 33 30 28 27 26 27
98 96 90 90 89 88 86 90 87 92 93 95 78 68 69 70 73 75 79 84 81 82 79 77 80 86 90 90 96 99 90 78 69 56 49 48 44 39 36 34 31 28 28 28
100 99 100 97 96 100 98 90 77 68 70 83 98 96 92 84 72 75 80 85 76 76 76 77 79 83 91 94 97 99 91 96 97 88 79 71 89 87 45 38 35 33 31 30
90 86 89 90 88 84 84 82 82 82 76 71 72 76 85 89 91 91 86 84 81 79 82 80 82 88 98 100 100 100 100 99 98 98 97 97 98 97 95 77 39 35 31 29
68 67 70 74 77 80 67 52 76 91 90 84 77 77 76 77 80 93 95 88 91 98 99 99 100 99 99 100 100 99 99 99 98 98 98 97 97 98 97 89 88 70 34 30
64 64 64 63 75 58 51 58 75 76 80 91 94 95 93 90 80 80 76 69 66 72 76 95 99 99 99 99 99 99 99 98 98 98 98 98 98 98 98 96 97 89 37 32
61 62 62 61 62 60 55 60 66 70 72 70 72 69 78 85 95 90 83 75 69 68 67 66 76 82 93 99 99 99 99 99 98 98 98 98 98 97 97 98 98 96 72 35
56 53 53 51 48 54 53 61 69 71 74 71 68 75 74 70 75 86 85 81 77 73 71 69 68 72 83 86 88 92 100 100 100 99 97 97 97 97 97 98 97 96 96 56
58 56 53 52 50 51 52 55 76 71 71 72 78 79 69 63 68 71 72 78 84 83 81 79 76 74 74 79 88 90 91 93 94 94 94 97 98 98 98 97 96 97 97 46

GFSNGP_925_rhum_078.txt.gz
RH
70 62 83 88 86 86 96 86 96 73 70 52 45 42 45 55 72 82 79 80 77 78 78 73 72 70 70 72 75 78 82 86 91 97 95 97 99 100 99 99 99 99 99 99
88 64 79 87 81 86 87 87 85 77 77 58 48 43 48 54 65 75 76 74 76 74 74 76 73 70 72 74 77 79 82 86 94 97 98 99 100 100 100 100 100 99 99 99
87 74 70 84 73 72 76 83 78 90 70 52 54 51 47 57 69 68 69 71 73 70 68 70 70 68 71 74 77 81 84 90 96 97 99 100 100 100 100 100 99 99 99 98
88 78 95 60 46 56 65 58 72 71 63 55 52 48 46 51 54 63 66 70 69 67 64 64 67 71 73 79 82 85 89 94 98 99 100 100 100 100 100 100 94 85 81 81
95 93 75 56 55 70 72 63 59 61 55 53 51 49 52 53 51 51 61 64 60 59 60 64 68 72 78 84 86 89 93 97 99 100 100 100 100 99 99 94 84 76 75 79
97 96 95 52 57 55 57 82 53 65 63 64 66 69 59 52 67 66 62 62 60 58 62 67 75 78 83 88 91 94 94 96 98 100 99 99 99 99 98 80 76 74 74 76
96 92 76 60 52 60 76 62 67 66 69 70 74 60 56 69 70 72 68 64 62 63 66 70 78 82 88 91 94 92 94 96 100 100 99 100 99 98 95 82 73 70 61 62
97 97 91 58 66 70 61 65 65 66 63 70 64 64 68 69 70 71 71 71 65 67 71 76 79 83 87 90 88 93 95 98 100 99 100 100 99 99 88 76 75 70 56 52
82 76 53 59 61 58 64 70 62 63 66 65 69 69 72 70 70 70 67 69 68 68 75 80 82 82 86 85 92 96 99 100 100 100 100 98 98 95 85 80 66 54 47 43
69 55 63 59 54 60 61 65 59 59 67 67 67 74 73 71 70 68 68 69 66 72 79 84 83 84 81 86 98 98 100 100 100 100 100 99 100 81 67 58 53 48 43 38
70 61 59 54 56 50 62 63 61 60 63 66 71 72 69 72 71 68 67 65 66 70 74 76 79 83 88 91 99 100 100 100 100 100 100 99 78 62 57 48 41 37 31 28
70 56 52 50 46 53 68 70 68 64 63 62 64 74 72 75 70 68 69 67 70 68 70 74 79 83 88 92 98 100 100 100 99 95 99 90 66 62 52 43 37 32 29 28
58 53 56 65 67 65 67 72 70 70 65 68 68 72 70 76 76 75 74 73 74 72 71 73 77 82 86 93 96 100 99 96 93 92 98 97 68 54 47 43 43 45 42 38
58 71 69 72 68 70 71 73 71 73 72 73 70 71 74 79 79 80 81 75 76 75 75 75 78 81 81 89 95 96 97 95 97 99 96 89 59 49 46 44 44 50 53 60
65 71 70 77 79 78 78 75 75 79 78 79 77 77 77 80 82 83 81 80 78 79 80 80 82 82 79 86 93 97 96 97 100 99 95 73 49 46 46 43 44 43 41 41
78 76 77 75 80 81 77 76 79 81 82 84 85 85 86 85 84 80 75 84 86 87 80 81 81 79 81 86 91 95 95 95 96 96 90 69 49 44 44 44 44 46 47 44
80 82 80 81 84 81 78 84 83 85 87 88 88 80 73 72 73 75 77 79 83 84 82 81 78 79 82 83 86 93 97 96 100 98 94 83 61 48 44 43 43 43 42 38
79 78 75 74 84 86 89 89 90 90 90 84 71 67 68 72 81 83 85 86 84 81 82 83 82 82 84 86 87 92 98 100 100 100 94 86 77 62 50 46 44 43 40 38
88 90 89 88 85 88 90 89 90 91 89 92 90 82 70 73 75 75 78 82 87 91 84 85 86 88 86 86 88 92 96 100 100 99 96 87 90 75 59 50 46 43 41 39
92 88 88 89 86 86 84 82 78 75 76 88 99 99 96 97 94 85 77 85 92 94 88 87 84 88 93 92 94 96 98 100 100 96 99 98 96 97 92 67 49 44 41 39
100 99 99 99 99 94 88 82 75 79 77 75 76 77 79 86 82 89 98 96 96 99 94 86 85 85 86 92 98 100 100 100 100 100 99 99 99 98 98 98 97 92 77 71
99 100 99 98 98 91 79 76 84 85 81 77 76 82 79 80 78 89 99 86 75 76 91 97 100 98 95 95 98 100 100 100 100 100 100 99 98 98 98 98 98 98 98 98
79 76 76 79 81 81 60 50 69 79 86 88 89 91 91 91 91 90 87 83 79 83 76 72 78 98 99 99 99 99 99 99 99 99 99 99 98 98 98 98 98 98 98 98
62 60 59 63 72 67 54 49 63 67 66 67 70 70 74 76 72 90 85 86 82 85 76 73 79 79 93 94 99 99 99 99 99 99 98 99 98 98 98 98 98 98 98 98
59 60 60 58 63 53 49 53 59 63 64 63 62 66 71 71 73 71 76 76 80 83 82 80 78 76 74 78 90 100 97 98 100 100 100 99 99 100 99 99 99 98 98 98
65 60 50 49 47 43 46 48 55 57 62 63 59 64 71 64 61 66 66 65 64 69 75 81 83 84 84 83 83 90 100 99 100 98 100 100 100 100 100 99 99 98 98 98
62 60 50 49 46 44 44 47 54 54 60 63 64 64 73 66 60 62 64 63 63 65 68 69 73 80 85 88 88 89 86 86 91 100 100 100 100 100 100 99 98 98 97 98

GFSNGP_925_rhum_081.txt.gz
RH
78 63 82 84 85 88 96 81 86 67 64 51 47 42 45 43 61 80 78 80 76 76 77 78 73 70 69 70 74 76 80 84 88 94 95 95 96 97 99 99 98 98 96 97
86 68 73 85 83 89 84 78 79 72 75 51 47 51 58 55 55 74 78 73 73 73 76 77 75 70 69 72 75 78 81 84 90 95 96 98 99 99 100 100 99 99 99 99
94 74 71 90 80 76 73 81 77 90 67 55 60 61 57 58 58 58 68 71 73 71 70 73 72 68 70 71 75 81 82 87 92 96 99 99 99 100 100 99 99 99 100 99
94 78 95 58 47 63 69 60 69 72 61 58 58 55 56 50 50 58 64 69 68 68 70 67 66 67 66 71 76 81 86 89 94 97 99 100 100 100 100 99 100 99 99 98
95 90 74 55 53 64 67 57 60 61 58 57 58 51 54 50 49 46 58 60 62 63 62 62 64 67 71 79 81 84 86 89 93 95 99 99 100 100 100 98 90 79 79 78
96 97 90 55 55 59 57 80 52 61 63 64 65 76 59 51 54 52 53 60 59 60 62 64 70 70 75 81 84 87 87 90 95 98 99 99 99 99 99 94 82 75 78 76
95 94 82 55 58 61 78 57 59 68 73 70 76 61 58 67 71 68 69 65 59 63 66 68 71 74 83 85 88 84 88 93 97 100 99 99 100 100 98 85 76 76 74 71
97 97 90 59 67 67 60 62 66 68 67 69 72 62 68 70 75 74 75 76 69 71 73 74 74 78 85 87 82 87 91 94 97 100 100 100 99 99 98 83 76 70 61 59
81 74 54 64 53 60 65 67 64 66 66 62 69 68 67 70 71 72 72 73 71 72 80 81 80 79 84 82 87 91 96 98 100 100 100 100 100 99 100 88 77 75 60 51
72 57 65 57 53 58 61 65 61 59 65 62 64 68 69 71 71 71 71 71 69 72 80 85 82 82 77 81 88 93 99 100 100 100 100 100 100 99 94 82 79 64 50 42
74 60 57 56 58 52 54 66 64 62 65 68 74 71 71 71 70 68 66 66 66 68 70 73 77 80 81 82 92 100 97 99 100 100 100 100 98 98 78 60 49 44 39 35
74 55 54 49 43 52 58 71 72 66 64 64 68 76 73 74 70 66 67 65 68 67 66 68 70 74 81 86 93 100 100 100 100 100 100 100 99 100 78 61 56 50 41 33
63 59 59 57 70 63 60 69 70 68 66 70 73 73 71 78 77 74 70 69 68 66 67 68 72 76 78 84 92 100 100 100 100 100 100 99 100 84 72 59 55 43 38 45
65 72 72 68 67 71 71 78 73 76 75 75 72 75 77 81 81 82 82 79 76 75 74 72 74 77 76 82 89 96 100 98 97 99 94 92 98 86 65 54 47 48 49 71
64 72 73 78 77 79 80 77 80 82 80 81 79 80 79 81 81 81 79 83 82 81 79 79 80 79 78 81 88 94 99 99 97 92 92 94 96 94 78 53 48 45 39 46
84 79 78 75 80 80 78 77 83 85 84 86 86 87 85 82 81 79 80 80 86 86 82 82 82 78 79 82 87 93 97 96 96 96 100 100 98 92 75 55 52 48 44 38
88 85 83 81 85 82 80 84 83 86 90 89 87 79 75 73 72 74 75 80 83 84 85 86 82 81 82 84 87 91 96 98 100 100 98 98 96 89 70 54 50 48 42 36
81 83 79 73 86 90 92 91 91 90 90 82 75 72 70 72 80 81 79 78 81 85 86 87 86 87 87 87 89 92 95 96 98 100 99 98 92 88 77 64 55 49 43 38
87 90 90 88 86 90 94 93 92 90 92 94 95 90 80 84 87 81 77 82 88 91 92 89 88 90 92 91 91 94 97 100 100 100 100 100 99 98 94 88 93 80 57 47
90 89 89 88 86 83 83 80 75 71 71 74 82 79 81 89 86 90 95 93 100 100 100 91 86 85 90 98 98 99 100 100 100 100 100 100 100 99 98 98 98 98 96 85
99 99 99 97 93 91 89 83 80 85 79 74 74 78 79 78 76 90 97 95 78 82 94 99 99 95 90 91 98 100 100 100 100 100 100 100 100 100 99 98 98 98 98 97
99 100 97 97 98 92 67 68 77 81 81 81 84 85 82 84 84 96 92 90 83 83 80 73 82 98 99 99 99 100 100 100 100 100 100 100 100 100 100 99 98 98 98 98
73 74 78 80 81 74 56 49 66 66 74 79 80 75 75 76 87 90 88 80 84 95 79 74 87 93 97 99 99 99 99 99 99 99 99 99 99 99 99 99 99 98 98 98
60 58 58 64 67 61 51 44 55 62 63 62 65 65 69 69 73 84 76 75 78 90 83 82 91 90 74 77 83 100 100 100 99 99 99 99 98 98 98 98 98 98 98 98
60 60 59 52 56 52 46 48 50 55 58 58 58 62 68 64 64 64 68 66 63 65 68 74 79 81 82 83 82 85 100 100 100 100 100 100 100 99 99 99 99 98 98 99
62 61 57 48 48 45 43 45 50 50 57 60 57 59 68 68 59 61 62 62 61 61 62 63 66 72 79 84 88 89 90 92 98 100 100 100 100 100 99 99 100 98 97 97
66 66 60 51 47 48 47 45 49 47 52 59 58 56 67 66 58 57 60 60 59 60 61 64 67 68 70 76 81 86 92 94 96 98 99 100 99 100 100 100 100 100 98 95

GFSNGP_925_rhum_084.txt.gz
RH
63 59 66 68 65 65 88 77 79 55 48 40 32 28 27 30 33 39 51 53 56 57 54 56 58 59 61 65 71 75 77 80 81 84 86 88 92 94 100 99 96 92 93 97
100 84 69 76 63 61 61 64 60 56 55 36 31 31 35 36 36 40 40 50 52 54 54 56 56 58 61 65 71 77 77 79 86 86 90 93 97 100 100 99 100 99 99 99
87 86 94 92 66 61 60 56 58 73 52 38 40 42 41 38 37 40 40 39 47 51 54 55 56 58 60 64 70 75 76 79 85 86 90 98 100 99 99 100 99 99 99 100
78 70 87 43 46 50 51 47 46 52 46 41 39 37 41 38 39 38 35 37 42 47 52 54 56 60 60 66 72 78 79 83 87 90 96 100 99 99 99 99 100 100 99 100
84 72 50 45 47 53 54 45 41 45 42 41 40 45 50 40 40 39 34 33 40 47 51 55 60 62 65 72 73 79 81 84 89 93 97 100 99 99 100 99 99 98 97 90
94 78 68 38 50 44 47 54 47 48 48 50 55 60 46 44 41 37 34 39 48 54 57 57 60 65 67 70 73 76 80 84 90 94 99 100 99 99 99 98 90 84 76 76
85 80 59 39 48 48 53 44 51 59 59 61 61 48 49 51 54 60 49 46 55 60 57 59 68 70 70 73 77 78 85 92 95 99 100 98 100 100 100 96 90 88 84 82
74 86 72 47 57 52 38 52 52 57 58 58 55 53 54 57 62 62 62 66 63 62 68 77 80 76 76 83 86 87 89 98 100 100 100 100 100 100 100 93 83 77 72 70
58 50 46 45 37 36 45 47 50 57 57 52 55 55 56 57 58 58 60 65 67 72 83 87 85 79 83 86 88 90 95 98 100 100 100 100 100 100 100 91 78 66 61 54
63 41 48 45 39 47 46 48 49 52 57 57 57 53 56 57 56 56 59 61 64 66 68 78 81 83 77 86 89 91 90 93 99 100 100 100 100 100 99 92 80 64 60 51
62 50 43 40 42 38 41 45 50 56 57 59 60 60 58 57 56 55 58 61 63 62 63 68 79 81 82 84 88 87 88 96 99 100 100 100 100 99 99 90 75 62 55 44
65 58 52 42 46 44 46 47 52 58 60 61 60 62 61 60 60 59 58 66 72 73 71 77 80 83 82 87 88 88 90 95 100 100 100 100 100 100 100 93 69 60 46 42
48 54 56 52 50 58 53 52 61 59 57 62 65 62 64 65 70 72 67 68 67 65 67 67 72 76 84 91 92 93 98 99 100 100 100 100 100 100 100 99 84 60 50 49
40 50 68 60 59 63 62 62 68 68 69 67 67 69 70 71 76 76 78 80 79 76 76 74 73 77 79 82 88 92 97 99 100 100 100 100 100 99 95 68 59 65 66 69
36 39 65 63 68 69 69 66 67 69 70 71 72 71 70 68 69 74 78 82 83 82 80 81 80 77 76 79 85 89 94 100 100 100 100 100 98 95 90 72 59 50 54 48
61 70 76 73 72 73 69 69 68 70 69 72 74 76 76 75 74 74 78 82 82 79 84 86 85 79 80 81 83 89 94 94 100 100 100 100 99 95 93 86 76 61 53 50
63 67 82 84 81 76 70 68 66 70 73 72 74 75 69 67 69 70 76 82 83 85 89 94 93 88 86 85 88 92 95 96 100 100 100 99 98 96 93 86 79 69 57 50
67 72 74 73 71 77 79 77 78 79 77 78 76 73 71 70 71 72 75 80 83 84 93 92 92 89 91 91 90 94 98 99 100 100 99 100 100 99 98 96 80 70 61 54
82 86 83 81 78 77 80 82 83 85 88 91 89 85 87 92 93 92 90 87 89 87 99 98 89 87 91 94 96 99 100 100 100 100 100 100 100 99 99 99 98 98 94 96
85 85 84 83 82 80 78 78 71 68 71 72 75 70 72 79 78 83 93 94 91 97 96 98 99 95 90 94 100 100 100 100 100 100 100 100 100 100 100 100 100 100 99 98
97 96 92 89 92 93 89 84 80 76 72 70 69 72 73 79 83 96 84 80 84 89 85 76 83 98 100 100 99 100 100 100 100 100 100 100 100 100 99 100 99 99 98 98
96 99 96 98 97 86 70 74 78 78 77 78 83 80 74 75 86 94 93 88 91 91 88 78 92 95 98 99 99 99 99 100 100 100 100 100 99 99 99 99 99 99 98 98
94 82 82 85 77 64 53 56 67 69 74 77 74 69 70 71 81 73 67 81 86 98 89 82 99 99 80 73 83 99 100 99 99 99 99 99 99 99 99 98 98 98 99 99
98 59 56 62 67 61 44 46 56 58 59 59 61 60 68 67 80 76 67 65 63 69 68 77 98 97 78 79 81 94 99 99 100 100 99 99 99 99 98 98 98 98 98 99
97 71 62 59 55 48 46 46 50 54 56 56 56 58 64 61 61 59 60 59 59 60 62 60 64 66 72 78 85 88 90 97 100 100 100 100 100 100 100 99 99 99 100 100
96 76 59 55 49 46 45 44 48 44 51 54 52 52 57 64 60 56 58 59 58 58 59 60 63 65 65 67 77 79 84 86 89 93 99 100 100 100 100 100 99 99 100 100
83 76 68 61 52 48 48 48 49 46 45 51 51 49 53 62 62 58 57 57 58 58 59 61 65 67 69 73 76 79 76 74 74 85 100 98 92 95 98 100 99 100 100 100

GFSNGP_925_rhum_087.txt.gz
RH
59 53 52 63 59 55 80 73 80 54 46 35 30 28 24 22 23 27 31 36 43 47 46 48 51 53 54 56 60 66 67 69 70 71 73 76 79 83 88 90 89 86 84 89
100 94 59 66 55 54 54 55 62 58 54 34 30 28 28 26 27 30 32 32 39 44 45 47 49 51 53 57 61 66 67 69 72 74 77 81 84 89 94 99 97 96 94 95
95 96 100 98 72 59 54 48 49 64 48 35 35 33 32 32 31 32 30 32 32 40 44 46 48 50 52 55 61 65 66 69 74 75 79 83 89 96 100 99 99 99 99 98
93 92 92 41 42 44 47 43 40 41 39 35 33 30 30 29 32 33 31 30 33 32 40 45 47 49 50 55 59 66 66 68 73 75 81 88 94 98 99 99 99 100 99 99
86 70 41 37 44 46 48 41 34 37 32 30 29 34 40 35 34 34 32 29 29 30 35 44 48 50 52 56 60 68 68 72 75 80 84 94 98 100 99 99 100 99 99 99
96 91 59 39 41 36 37 46 37 37 40 45 48 60 44 45 45 43 34 32 32 36 38 44 49 53 55 58 63 66 69 73 78 81 87 96 100 99 99 100 100 99 97 96
78 69 50 34 43 41 50 46 48 49 52 54 57 45 46 45 47 52 52 36 39 46 46 48 53 56 59 61 63 64 71 79 83 86 94 97 100 100 100 100 96 94 89 80
85 86 67 37 48 48 40 44 41 47 52 54 47 46 46 49 53 56 56 57 52 54 53 56 62 62 63 68 71 74 79 87 90 94 99 99 100 100 100 100 94 83 75 70
56 51 44 40 35 36 32 35 39 50 51 52 47 46 48 52 51 52 54 58 60 67 77 77 75 68 71 79 82 85 88 91 95 99 100 100 100 100 100 98 88 76 66 59
62 40 39 38 36 34 37 38 39 42 48 52 49 49 49 51 50 50 54 56 59 63 68 74 71 71 70 79 83 85 84 87 91 98 100 100 100 100 99 96 85 72 59 54
76 55 45 35 39 41 38 34 39 40 48 53 55 55 53 52 52 51 53 56 56 54 57 62 68 70 72 77 79 80 78 81 89 98 100 100 100 98 99 98 90 75 58 54
47 60 63 47 45 45 47 43 40 44 54 56 55 56 54 56 55 56 53 59 61 64 62 66 70 74 78 80 80 76 76 83 90 98 100 100 100 100 99 99 97 86 65 56
35 43 45 52 50 51 56 53 48 54 52 58 58 57 58 59 64 71 62 63 64 63 70 80 88 94 86 77 80 84 86 88 92 99 100 100 100 100 100 99 99 92 86 62
50 56 44 53 63 55 59 58 61 60 60 59 62 63 63 64 67 67 72 76 75 72 71 69 72 74 73 81 90 93 90 90 94 100 99 100 100 99 99 98 95 98 93 72
41 45 56 42 64 59 64 61 63 65 65 65 65 65 62 62 65 70 73 76 78 77 75 75 74 74 77 78 87 91 91 94 94 99 100 99 100 100 100 98 87 61 56 56
42 58 62 77 78 66 67 65 62 63 61 63 66 66 66 66 65 67 70 73 71 74 80 82 83 83 83 84 85 89 92 92 94 98 99 100 100 100 100 97 90 77 61 51
53 58 51 67 73 68 68 62 60 62 63 62 66 67 64 63 63 65 68 72 75 78 88 93 94 95 96 93 92 92 93 95 100 100 100 99 99 99 98 96 91 88 81 67
51 52 59 71 73 69 72 70 69 68 67 69 70 70 68 70 71 74 76 76 80 87 95 98 96 88 94 98 98 99 99 99 99 100 100 100 100 100 100 99 100 99 94 90
78 82 86 85 88 83 77 76 77 78 82 83 80 79 83 85 85 89 92 86 88 89 99 97 96 94 91 93 100 100 100 100 100 100 100 100 100 100 100 100 100 99 99 99
89 93 92 93 94 93 88 80 68 67 69 69 67 65 66 69 71 76 88 84 80 84 91 85 82 100 100 99 99 100 100 100 100 100 100 100 100 100 99 99 99 100 100 99
98 98 97 95 97 98 98 94 83 73 64 63 62 64 67 72 78 87 78 73 83 80 90 80 87 97 98 99 99 99 100 100 100 100 100 100 100 100 100 100 99 99 99 99
96 99 96 98 95 63 57 63 68 67 65 67 72 69 64 65 74 86 87 82 84 85 93 86 94 98 99 89 98 100 100 100 99 99 99 99 99 99 99 99 99 99 99 98
98 85 77 75 70 58 48 50 59 61 63 67 65 61 61 63 69 67 56 77 77 87 85 87 95 98 94 76 83 96 100 99 100 100 100 99 99 99 99 99 99 99 99 99
99 98 69 57 63 57 46 40 48 54 56 56 57 58 63 61 64 73 61 60 60 65 66 64 74 89 74 76 81 87 92 95 98 98 99 100 100 100 99 99 99 99 98 98
100 96 75 65 60 49 45 43 46 48 52 54 54 53 56 59 58 62 56 57 57 56 61 56 56 57 62 66 75 84 84 87 89 93 95 96 99 99 98 97 99 100 100 100
100 99 99 92 60 49 46 47 48 43 45 50 50 49 52 56 59 55 53 54 56 55 56 55 56 61 64 67 71 75 77 77 78 78 90 90 94 96 97 98 98 99 100 99
90 98 93 80 66 58 51 50 50 48 47 46 46 45 47 50 57 58 56 54 53 54 56 56 57 60 65 68 71 72 73 74 74 79 79 79 86 90 95 96 98 100 99 100

GFSNGP_925_rhum_090.txt.gz
RH
66 55 74 88 71 71 91 89 82 62 58 44 36 34 32 33 34 30 33 35 52 60 64 56 59 60 61 61 63 64 64 65 66 68 70 72 75 79 81 83 83 84 84 86
98 89 97 92 70 61 64 68 75 66 62 42 40 38 37 35 35 36 33 35 38 55 58 56 55 56 58 60 63 64 66 66 68 70 72 76 79 83 86 87 90 90 90 88
98 98 100 99 92 66 59 55 59 79 57 43 45 41 39 38 37 37 36 35 37 47 56 51 52 53 55 58 62 65 67 69 71 73 77 80 84 87 93 95 94 95 96 96
99 98 97 56 48 55 55 51 50 49 47 44 43 39 39 37 36 38 37 37 37 42 48 47 49 51 54 58 62 65 67 69 72 75 78 82 87 91 98 96 96 98 100 98
98 95 56 45 50 55 64 62 48 48 43 38 35 42 47 47 48 49 48 41 36 33 34 45 48 50 53 56 62 65 66 68 71 74 80 84 90 94 98 96 97 99 99 98
98 97 89 50 42 35 38 63 46 40 44 51 54 75 66 53 51 52 54 50 40 36 35 44 48 50 52 58 62 67 67 69 72 77 81 87 94 99 99 99 99 100 99 97
94 95 65 48 45 40 56 70 54 52 55 56 66 64 57 54 56 59 58 56 47 41 46 43 50 52 55 59 62 65 68 71 75 79 83 88 96 98 100 100 100 99 98 95
89 96 90 49 49 49 54 45 43 48 54 57 53 50 49 53 56 60 64 59 57 58 63 56 53 54 58 62 64 65 69 73 78 82 88 92 98 100 100 100 100 95 91 81
97 78 50 44 46 41 43 43 44 52 56 56 52 50 49 58 58 61 61 61 69 73 73 69 64 61 67 72 68 69 74 82 86 91 94 96 97 100 100 100 99 93 81 73
82 55 62 55 43 51 48 45 42 45 50 54 52 53 58 58 59 62 60 62 68 74 80 78 71 70 71 76 77 79 84 89 93 96 98 99 100 100 100 99 96 88 74 67
77 62 59 56 59 57 56 52 42 41 44 57 58 60 58 60 60 61 60 59 58 63 69 71 71 70 76 79 81 82 84 88 92 93 98 99 99 99 99 99 97 88 75 65
61 52 69 69 47 58 66 65 58 48 54 60 58 65 63 68 61 58 61 61 63 62 65 68 69 71 72 75 76 78 80 83 87 90 96 99 99 99 100 100 99 99 82 62
55 62 58 52 49 64 66 70 66 61 57 67 66 65 65 74 70 65 66 67 65 66 71 75 78 78 80 81 81 80 77 79 85 91 97 99 100 100 100 100 99 99 97 77
51 44 61 46 56 52 66 69 65 67 67 66 66 66 68 72 70 74 78 78 76 73 72 70 70 72 73 79 83 80 82 89 92 94 95 99 100 99 99 100 100 99 99 96
70 42 54 61 66 76 70 70 68 73 72 69 67 68 67 74 77 76 75 75 75 75 77 78 78 77 75 76 82 90 95 96 94 93 95 97 100 100 100 100 100 98 90 82
77 68 59 69 81 80 76 74 74 72 71 72 71 69 68 66 68 69 72 73 76 82 84 88 90 92 90 85 84 88 90 92 93 94 98 100 100 100 100 100 100 99 94 80
83 80 64 69 72 77 75 72 72 73 72 74 71 66 65 65 67 68 70 72 77 87 92 92 95 89 88 94 96 93 94 95 97 100 100 100 100 100 100 100 100 99 97 94
72 68 71 83 83 84 78 74 73 72 74 71 72 71 75 80 85 86 87 80 83 93 92 98 97 93 94 97 100 100 100 100 100 100 100 100 100 100 100 100 100 100 99 99
84 89 91 93 95 93 92 88 87 86 84 83 81 86 84 79 78 79 88 86 85 91 89 85 79 100 100 100 100 100 100 100 100 100 100 100 100 100 100 100 100 99 100 100
97 99 99 99 99 99 97 100 98 91 74 67 64 64 66 69 70 79 88 82 82 85 89 79 86 89 97 98 99 99 100 100 100 100 100 100 100 100 100 100 100 99 100 100
100 96 95 95 96 100 100 99 89 71 62 63 63 67 69 68 72 76 77 85 83 76 83 80 90 90 93 94 96 97 100 99 99 100 100 100 100 100 100 100 100 99 99 99
95 99 95 98 84 63 51 57 61 63 63 64 63 57 55 58 63 78 79 76 69 84 77 82 87 96 99 89 90 100 98 99 100 100 99 100 99 99 99 99 99 99 99 99
96 82 69 66 68 62 49 41 48 51 58 59 58 55 57 58 58 73 74 74 58 61 65 67 80 94 92 71 75 81 91 97 100 99 99 99 100 100 100 99 99 99 99 99
99 99 95 69 54 54 54 40 38 45 48 49 48 51 52 60 58 66 59 56 57 55 58 61 61 63 68 60 62 72 75 76 81 83 86 95 92 94 98 98 99 98 99 100
100 99 100 99 83 63 49 44 43 40 41 44 45 45 46 52 56 57 51 49 50 51 52 53 53 56 58 60 63 68 70 72 77 88 78 80 81 88 92 94 93 95 97 98
100 100 99 99 98 98 85 50 49 47 44 45 42 42 44 46 50 53 52 49 49 49 49 49 50 54 57 59 61 64 66 67 68 69 78 77 77 78 89 88 87 89 94 97
78 89 98 97 89 86 83 65 53 51 48 48 48 44 41 44 45 51 53 52 49 49 50 52 53 53 57 59 62 64 66 68 72 81 83 79 76 77 82 85 88 100 100 100

GFSNGP_925_rhum_093.txt.gz
RH
96 81 94 95 83 86 99 86 81 61 62 47 44 40 35 36 37 37 42 60 62 65 71 65 66 65 68 68 68 66 65 66 65 66 67 67 67 71 73 75 77 78 79 80
98 87 97 85 80 81 81 85 84 79 73 43 40 47 44 43 42 41 38 40 55 62 66 67 64 65 66 65 65 64 64 64 65 68 70 69 72 76 78 79 81 84 86 88
93 99 99 98 94 82 66 67 75 90 65 47 51 48 47 42 39 40 40 40 41 54 63 62 61 60 64 63 64 64 64 65 68 69 71 75 78 80 82 85 88 90 92 92
95 99 96 60 53 62 66 54 57 59 55 51 49 47 48 42 39 39 40 41 41 43 54 57 57 60 60 61 63 64 65 66 68 70 73 78 81 84 88 90 92 94 95 94
100 97 77 47 44 68 74 68 55 58 53 49 41 43 44 53 52 51 52 54 51 42 38 54 55 58 58 63 63 64 67 69 71 72 75 80 84 87 91 94 94 92 97 100
95 96 85 54 42 38 40 60 56 50 51 48 55 59 63 56 54 59 63 60 58 47 41 46 55 56 60 65 66 67 67 69 71 73 75 80 82 88 93 98 93 98 99 99
88 96 80 50 42 40 51 53 56 58 61 60 70 70 61 53 58 63 65 62 56 54 55 47 56 59 63 67 68 62 64 68 71 73 76 80 87 92 98 98 100 100 99 98
88 99 94 52 46 50 57 51 46 52 60 61 56 51 51 56 61 67 68 65 73 72 76 67 62 59 64 66 61 63 66 70 73 76 81 85 90 98 99 99 100 100 100 98
99 90 80 75 64 61 57 52 47 61 66 59 53 54 53 61 60 65 66 73 76 76 72 68 66 61 63 64 65 66 69 73 76 81 84 89 93 96 100 100 100 99 98 91
76 65 64 86 63 61 67 62 59 48 52 57 55 58 63 63 65 67 66 70 75 76 78 75 68 65 63 67 67 67 72 77 82 85 91 93 96 99 100 100 100 99 95 87
78 59 68 69 52 63 71 71 72 62 45 60 63 64 67 75 66 65 65 64 69 75 78 76 73 74 74 73 72 74 77 82 87 91 96 96 97 98 98 98 98 97 94 87
70 62 65 63 51 61 62 71 73 74 59 64 64 69 75 69 65 63 64 65 67 71 72 74 73 76 77 77 77 78 84 90 93 94 98 98 99 99 99 100 100 99 98 91
62 58 64 62 58 56 74 75 72 75 67 73 72 73 76 80 74 75 75 71 69 72 72 71 73 74 74 78 80 81 83 86 89 92 92 95 100 100 100 99 99 99 99 98
81 75 75 54 62 64 72 78 78 71 73 71 74 75 76 80 78 79 83 81 78 75 74 72 73 74 74 84 88 89 90 92 93 92 90 95 100 99 100 100 100 99 98 99
94 84 78 59 69 77 79 84 86 80 76 76 72 74 73 81 82 80 74 75 80 81 83 83 85 88 79 79 80 82 86 88 92 94 96 96 98 100 100 100 100 99 100 100
83 82 81 70 68 73 81 84 89 77 77 79 73 71 71 72 74 74 71 74 79 92 92 92 92 90 90 92 88 88 90 91 95 97 98 99 100 100 100 100 100 100 100 99
92 85 78 76 83 84 81 76 77 80 79 75 73 69 69 72 73 76 78 79 87 94 97 98 96 92 92 95 99 99 98 98 99 100 100 100 100 100 100 100 100 100 99 100
84 87 91 94 94 92 89 83 81 78 76 73 74 76 83 85 91 93 87 87 96 92 85 86 86 100 98 95 96 99 100 100 100 100 100 100 100 100 100 100 100 100 99 100
89 92 92 93 97 95 92 92 92 89 90 92 88 89 82 78 76 83 88 83 86 89 88 79 86 87 92 99 100 99 100 100 100 100 100 100 100 100 100 100 100 100 100 100
98 99 99 98 99 98 98 99 99 99 100 99 86 69 70 70 74 83 85 84 83 84 86 82 88 85 90 91 97 99 100 100 100 100 99 100 100 100 100 100 100 99 100 99
100 96 95 96 96 99 100 100 99 85 68 69 66 68 69 65 71 74 85 90 82 80 81 79 81 88 89 89 89 98 99 99 100 100 100 100 100 100 100 100 100 100 100 100
97 99 96 99 95 64 52 54 58 62 62 62 58 52 53 57 66 79 77 70 66 73 66 70 71 93 96 71 77 93 98 96 96 98 97 98 99 100 100 99 99 99 100 99
95 80 67 63 65 63 51 42 43 47 54 55 54 52 53 53 54 68 79 69 54 55 56 57 65 86 82 62 66 75 81 86 93 94 94 96 97 98 96 97 97 97 99 99
99 98 98 88 71 56 53 46 40 39 43 45 45 46 48 54 56 62 58 53 53 53 53 56 66 73 54 57 59 64 67 68 71 80 83 77 77 78 81 92 92 92 90 94
99 99 100 99 100 95 70 50 48 47 46 44 43 43 44 45 50 54 53 48 50 51 51 53 52 53 55 57 58 61 63 65 70 81 71 76 78 77 76 77 85 93 97 94
97 100 100 100 100 100 100 100 91 61 49 48 45 43 41 43 46 51 52 49 48 48 50 50 50 53 55 57 59 61 63 64 66 70 84 85 81 77 78 78 82 84 86 96
78 85 92 95 82 80 80 86 87 70 58 53 51 49 48 43 42 47 51 50 50 48 48 48 49 50 52 55 57 61 64 66 71 80 77 75 76 79 82 85 86 87 88 89

GFSNGP_925_rhum_096.txt.gz
RH
90 87 99 100 97 98 99 88 85 68 70 51 42 42 36 36 37 40 46 60 62 62 70 70 68 68 68 69 71 68 66 65 63 66 71 74 70 70 69 69 69 68 68 71
84 80 86 88 96 97 98 92 80 86 81 46 39 42 45 43 44 45 44 51 60 61 65 68 68 66 67 69 72 70 70 72 73 72 69 68 69 69 71 73 72 74 78 80
83 76 91 92 84 90 88 86 89 97 70 50 60 53 52 51 48 46 45 44 46 56 62 60 58 59 65 68 70 71 70 69 69 68 69 70 70 73 76 78 82 85 86 89
92 96 97 70 57 69 76 66 64 70 64 58 52 49 53 49 45 43 42 43 45 47 45 51 54 59 62 67 69 69 69 68 69 70 71 73 76 78 81 84 85 86 89 91
97 96 85 52 46 73 78 68 62 64 59 57 52 46 49 54 50 50 52 56 56 53 50 44 52 57 64 70 68 70 69 68 68 70 72 75 78 83 86 86 87 88 90 92
90 96 84 57 50 44 49 64 64 60 60 57 55 63 57 57 55 58 65 65 65 58 54 51 44 61 66 71 70 71 68 66 67 69 72 76 79 83 85 89 93 95 97 98
91 99 81 76 65 50 55 54 64 62 65 65 71 63 61 54 58 64 66 65 65 68 68 62 57 65 68 72 70 65 64 64 67 71 73 74 79 84 88 93 99 100 97 97
92 99 94 91 73 78 77 67 56 57 65 64 61 54 52 59 63 69 72 73 78 78 76 67 67 67 71 71 65 64 65 66 69 72 75 77 81 89 94 97 99 100 100 100
92 81 85 87 88 65 74 73 74 70 67 60 54 55 54 64 63 69 72 77 80 80 78 78 74 71 73 71 67 64 67 69 71 74 77 81 87 93 98 100 100 99 100 99
84 69 58 91 90 89 76 78 78 78 68 60 57 58 63 66 68 69 69 74 78 79 80 81 76 71 67 68 65 65 69 73 76 79 84 88 93 95 94 99 100 100 100 99
80 59 74 72 58 64 78 72 75 78 77 65 65 68 68 76 74 67 67 70 75 80 82 82 79 74 71 69 68 70 74 79 82 85 91 94 95 94 98 99 99 98 98 96
73 66 68 65 58 50 63 74 81 85 84 77 68 76 81 76 67 66 67 68 72 74 75 77 78 81 81 78 76 76 80 85 87 90 94 95 96 97 99 99 99 99 100 99
73 70 72 68 65 56 75 79 72 80 81 83 75 78 78 83 75 79 76 73 74 75 74 74 74 74 76 77 79 81 82 85 88 90 94 97 98 100 100 95 98 100 100 99
86 95 95 71 67 60 64 75 75 77 83 76 78 82 84 85 84 84 85 83 78 76 75 76 78 80 78 85 83 83 85 87 88 91 94 97 95 98 98 100 99 95 98 98
86 87 94 89 79 71 73 86 91 88 86 77 79 85 80 83 85 81 79 84 84 87 91 90 91 92 87 83 82 84 91 94 95 96 95 95 95 98 99 100 100 99 99 100
86 83 83 84 75 72 82 82 91 93 79 81 76 76 78 78 79 75 75 81 83 96 95 93 91 92 92 92 92 91 92 93 96 99 100 100 100 100 100 100 100 100 100 99
95 88 88 89 91 88 87 86 86 94 84 77 77 74 76 76 77 82 83 88 91 96 98 91 98 97 95 96 98 99 98 97 97 100 100 100 100 100 100 100 100 100 99 100
94 90 86 95 96 96 93 86 85 86 89 83 79 84 85 82 91 93 90 97 92 87 84 81 83 97 100 100 100 100 100 100 100 100 100 100 100 100 100 100 100 100 99 100
98 92 94 93 97 96 94 92 94 96 96 95 89 90 88 84 82 90 90 91 94 88 83 80 85 82 84 94 98 100 100 100 100 100 100 100 100 100 100 100 100 100 100 100
98 99 99 99 99 98 98 100 100 100 100 100 100 99 99 89 77 89 82 81 78 79 78 79 81 77 83 82 92 98 99 99 100 100 99 100 100 100 100 100 100 100 100 100
100 97 96 96 97 99 99 100 100 98 95 90 95 92 83 69 70 81 86 88 79 74 77 77 74 81 85 76 80 88 96 96 95 97 98 99 99 99 99 99 99 100 100 100
98 99 97 99 99 91 56 50 56 69 77 67 59 56 58 57 70 75 76 77 65 72 65 66 68 90 90 69 75 84 93 93 92 91 92 93 93 93 92 91 92 94 94 97
97 85 72 62 61 62 57 49 40 45 51 54 53 50 51 51 53 77 86 67 54 56 56 56 66 84 70 56 59 65 68 72 78 85 86 87 93 94 92 92 96 95 91 90
92 96 97 99 100 87 63 50 48 44 43 45 47 47 49 52 54 57 55 52 52 54 52 54 61 74 55 55 56 59 61 63 66 72 72 71 75 76 74 74 74 76 82 91
95 96 100 100 100 99 100 100 99 88 58 49 47 44 43 45 47 46 56 50 49 56 51 52 54 54 55 55 56 58 60 61 64 72 70 77 78 75 71 71 73 79 95 83
90 98 95 100 100 100 100 100 99 99 99 98 77 48 46 43 43 46 48 49 48 48 50 49 49 52 54 54 55 57 60 63 65 68 77 77 74 74 75 76 78 79 81 82
87 90 92 94 81 81 82 84 93 90 79 73 62 54 51 50 47 45 48 48 49 49 49 48 50 51 51 53 56 58 63 66 69 71 71 73 76 78 79 80 82 84 84 86

GFSNGP_925_rhum_099.txt.gz
RH
87 87 90 96 98 100 99 82 83 68 64 47 40 39 39 44 40 39 43 52 58 59 60 64 65 64 68 68 67 68 68 66 63 62 62 63 66 74 77 72 64 59 62 66
96 70 86 92 80 91 99 98 92 88 88 57 40 40 43 47 46 45 45 44 48 60 62 61 62 63 68 70 71 72 70 69 69 70 69 70 78 74 68 66 63 64 68 74
84 73 92 89 82 74 77 87 94 99 70 54 64 65 60 54 53 52 48 45 45 48 60 56 53 52 61 69 73 75 72 70 70 72 78 78 72 68 69 69 71 75 78 79
97 93 88 58 57 68 72 75 81 82 72 61 55 50 51 52 52 54 50 46 46 49 47 43 46 51 55 65 72 78 78 77 78 76 73 71 70 72 74 76 77 77 80 85
96 93 76 54 60 70 86 73 64 74 66 63 58 54 52 53 52 49 50 56 59 58 56 53 49 44 60 68 71 76 77 74 72 71 70 72 74 75 78 80 82 84 87 89
89 98 95 75 81 68 57 69 69 74 74 66 61 73 64 61 55 56 63 66 67 62 60 57 50 52 68 73 76 76 73 71 69 70 71 72 73 78 82 86 86 89 90 93
96 98 82 92 90 69 63 67 81 71 76 64 65 60 59 57 61 64 67 68 73 75 76 71 71 66 74 76 75 69 70 70 70 70 71 71 76 82 84 86 90 98 98 97
90 100 93 90 74 74 86 80 80 87 83 84 70 58 57 61 64 66 70 75 79 80 79 76 74 77 78 77 71 70 70 70 71 72 75 76 78 82 88 92 96 98 99 100
85 76 82 87 79 68 78 83 84 92 87 80 71 56 57 66 65 70 73 78 80 81 80 81 79 79 80 79 75 71 69 70 72 75 78 79 81 86 93 96 98 99 99 99
85 70 64 81 88 83 83 90 85 81 86 86 80 72 64 67 70 72 73 79 81 80 83 86 82 79 76 76 73 71 73 75 77 80 83 83 86 87 91 96 99 100 100 99
80 65 84 79 60 58 58 75 79 85 84 87 87 82 66 73 72 70 71 75 80 83 85 89 83 81 80 77 73 73 75 78 80 82 84 86 89 89 93 94 95 99 98 97
71 64 69 67 59 65 67 63 76 84 82 83 84 86 76 75 73 69 72 74 77 79 79 83 82 82 79 77 75 75 80 84 84 87 89 90 93 96 97 97 96 98 99 99
76 79 88 87 80 72 70 73 75 77 84 90 84 84 76 79 80 80 78 77 80 80 80 79 80 82 82 81 80 79 80 84 87 90 92 94 97 97 96 93 96 99 98 98
81 86 92 83 81 83 82 70 75 83 79 89 81 84 84 89 92 86 88 86 81 79 81 83 84 85 83 87 84 84 84 86 88 90 92 94 96 96 96 99 99 95 93 98
86 85 81 89 91 74 68 80 89 94 89 88 78 86 86 92 95 96 90 90 88 89 93 90 88 90 89 86 84 84 90 95 97 97 96 97 98 99 99 99 100 99 97 95
84 84 80 86 87 80 86 88 87 88 93 84 78 81 85 81 80 79 86 88 85 96 96 92 92 93 91 89 91 92 91 92 94 96 98 100 100 100 100 100 100 99 100 99
97 82 90 86 92 90 97 91 90 91 93 78 77 78 79 77 79 84 90 91 92 99 96 90 100 100 97 96 97 100 99 98 98 100 100 100 100 100 100 100 100 99 99 100
92 91 92 88 94 97 95 90 90 93 95 99 94 89 88 88 91 93 95 93 90 87 83 84 84 91 98 98 99 99 100 100 100 100 100 100 100 100 100 100 100 100 100 99
92 95 94 94 96 98 96 97 99 100 100 99 97 98 100 98 97 99 96 100 99 93 83 80 83 79 81 91 94 97 98 100 99 100 100 100 100 100 100 100 100 100 100 100
97 99 99 99 99 98 96 99 99 99 100 100 100 99 99 99 99 99 97 85 80 78 76 77 78 74 79 79 92 94 98 98 100 100 100 100 100 100 99 100 100 100 100 100
99 98 97 97 98 99 97 91 96 92 85 73 87 90 92 82 78 82 88 86 74 68 73 76 73 76 76 71 74 82 91 94 92 90 94 94 93 94 93 92 93 94 95 95
96 98 98 98 95 87 63 50 48 57 64 66 64 57 59 60 62 74 82 83 77 69 64 68 65 80 83 64 66 71 80 85 88 88 88 90 92 91 91 91 91 89 90 88
93 89 78 66 68 70 58 53 44 43 45 48 52 51 50 50 53 69 82 66 56 56 57 57 60 80 79 57 58 62 65 69 74 79 82 80 78 77 78 75 74 77 78 82
91 90 94 96 99 100 95 66 64 53 61 62 46 45 47 49 46 47 54 53 54 49 54 52 56 73 74 56 55 58 60 60 61 65 67 69 72 76 76 73 69 68 70 78
94 92 95 99 100 99 100 99 100 99 98 97 98 73 49 45 48 40 46 52 49 52 53 51 53 69 62 54 54 55 58 59 61 68 68 70 74 71 69 70 73 75 79 78
95 99 99 96 94 94 96 99 98 98 100 99 97 99 96 53 48 47 47 51 51 49 49 47 49 53 53 54 53 54 56 58 60 64 67 67 69 70 74 74 75 77 79 80
95 98 99 91 79 82 86 88 93 90 85 85 83 76 97 92 77 77 53 49 50 51 51 49 50 49 51 52 52 55 56 58 62 67 65 67 72 76 76 77 78 79 81 82

GFSNGP_925_rhum_102.txt.gz
RH
73 80 89 92 87 85 99 97 96 71 65 48 40 38 39 48 44 43 42 45 54 55 55 57 58 59 60 65 69 70 70 69 66 65 64 63 62 62 62 66 76 74 67 68
88 80 84 85 82 83 88 94 98 99 92 63 46 39 43 44 46 46 46 44 44 46 59 60 55 56 59 62 67 71 72 71 70 68 66 65 65 70 78 74 68 65 70 70
92 71 84 92 84 80 76 86 84 94 77 70 76 68 62 54 55 56 51 48 47 47 48 51 55 54 53 60 67 73 75 74 73 74 74 74 75 77 74 69 69 71 72 70
97 92 87 63 61 66 75 72 71 86 80 73 79 68 58 55 57 57 55 54 48 50 51 48 48 50 56 60 68 74 77 77 77 77 75 78 80 75 71 73 75 75 75 78
92 91 75 63 78 68 92 100 78 84 76 74 66 60 61 50 56 54 49 56 61 61 61 58 55 54 55 66 71 77 77 77 76 77 81 82 77 74 76 78 79 79 80 81
92 96 95 82 85 79 75 95 84 88 89 88 66 83 70 56 56 57 65 67 68 63 63 62 59 61 61 65 77 78 75 77 78 79 77 74 73 76 78 79 79 81 81 85
98 100 77 72 86 78 79 71 86 89 92 95 93 69 64 59 61 64 68 68 72 75 78 77 74 74 75 75 76 69 73 76 78 76 74 72 75 78 79 83 85 86 91 94
90 94 90 85 76 68 83 83 85 92 91 94 91 81 61 62 64 67 73 75 76 82 81 80 78 79 83 83 79 76 75 76 76 75 76 76 77 82 86 88 92 95 96 99
85 80 71 85 76 74 84 88 85 90 88 91 90 83 78 68 66 72 74 80 80 84 83 82 82 83 83 79 78 77 76 77 77 78 78 79 80 84 91 93 92 95 98 99
83 72 70 70 90 71 66 79 85 86 90 86 94 90 92 70 72 75 74 81 84 84 87 89 87 84 82 81 81 80 79 80 80 80 83 83 84 86 88 92 96 98 99 99
81 66 76 84 58 64 71 69 71 82 81 84 91 90 92 78 74 75 74 77 82 86 91 93 88 85 84 83 83 81 80 81 84 85 86 88 87 86 88 88 90 93 95 100
72 65 68 70 69 79 86 80 73 81 87 79 88 91 90 85 76 73 76 76 79 82 84 87 87 88 85 82 79 78 82 85 85 87 88 88 91 95 95 93 92 93 95 98
71 85 91 90 91 86 80 83 79 72 77 89 82 85 90 80 83 84 81 81 85 86 86 86 86 87 86 84 80 81 82 86 89 90 92 93 95 95 96 95 93 96 96 98
80 84 89 85 85 86 90 80 76 86 89 88 89 86 87 88 91 91 93 90 85 86 88 88 86 87 85 87 84 82 83 86 87 90 91 94 94 94 96 96 95 96 97 98
81 86 84 77 86 87 75 80 91 88 90 90 86 89 88 87 92 98 97 94 93 94 93 90 90 94 91 88 85 85 89 94 95 95 95 96 98 100 100 99 99 99 97 98
75 84 76 80 90 92 92 93 95 91 90 91 81 82 88 89 85 87 93 93 90 95 96 95 98 97 94 93 95 94 93 95 94 94 97 100 100 100 100 100 100 100 99 99
94 88 75 76 82 81 97 91 89 92 93 87 86 84 80 79 81 86 93 96 97 100 91 93 100 100 100 100 100 100 100 99 100 100 100 100 100 100 100 100 100 100 100 100
89 90 91 93 93 96 97 93 95 97 98 99 98 96 92 92 94 96 98 95 96 95 84 84 83 86 91 95 98 99 99 99 100 100 100 100 100 100 100 100 100 100 100 99
89 92 93 94 98 98 98 98 98 99 99 99 99 98 99 99 99 100 100 99 99 98 88 77 81 75 75 86 86 97 100 100 99 100 100 100 100 100 100 100 99 100 100 100
90 99 99 99 99 98 97 98 99 99 99 100 99 99 97 98 98 99 98 97 95 78 75 73 76 72 75 77 84 89 93 93 96 100 100 100 100 100 100 100 99 99 98 99
98 98 98 97 98 97 92 77 82 83 79 73 73 80 83 84 75 77 90 91 75 73 69 75 73 73 73 70 72 78 88 93 90 90 90 92 93 92 91 91 92 92 93 94
95 97 98 97 93 83 67 56 47 46 53 58 59 58 55 56 57 65 71 80 78 76 63 66 66 69 80 65 63 69 77 82 85 84 79 80 85 87 83 82 81 80 82 86
87 90 81 70 74 89 92 60 52 47 50 48 47 49 52 49 50 60 66 58 64 62 58 54 56 69 85 62 55 60 64 65 70 73 74 73 71 70 72 72 72 72 70 69
90 86 88 94 93 98 98 93 88 89 78 67 83 75 51 51 46 42 44 52 58 60 53 51 51 66 91 62 55 59 61 60 60 63 66 70 68 73 73 70 68 68 70 73
81 88 91 96 99 99 99 100 100 99 99 99 98 98 100 94 56 48 46 46 56 63 57 54 55 70 81 69 57 58 61 62 60 62 66 64 68 71 69 70 71 72 73 75
94 97 97 98 98 93 94 96 95 98 100 100 90 88 96 100 98 66 73 52 52 59 55 53 53 55 68 64 58 58 58 57 57 62 64 63 65 67 71 74 75 76 77 78
98 98 99 96 77 80 87 91 98 93 86 87 88 76 74 71 88 98 98 97 83 93 92 74 57 54 55 54 55 55 56 56 55 57 59 61 64 68 72 74 76 78 80 80

GFSNGP_925_rhum_105.txt.gz
RH
83 78 80 76 87 90 95 89 99 85 69 56 51 42 42 48 47 48 48 45 45 50 54 57 61 66 69 69 66 64 64 65 66 69 70 72 71 69 65 62 62 64 70 72
90 69 81 89 78 76 86 77 84 90 86 70 63 53 48 48 50 49 51 50 47 44 45 52 53 55 61 68 72 73 72 72 72 71 69 68 66 64 64 68 77 74 68 66
90 77 85 86 73 80 79 81 84 94 75 69 74 70 76 68 55 55 54 53 50 48 48 48 48 49 53 58 66 73 76 76 75 72 71 70 69 70 77 77 71 69 70 72
93 87 85 87 68 72 87 95 91 85 77 77 76 69 70 67 62 59 57 55 53 50 53 54 53 52 51 56 63 71 75 77 77 74 73 74 75 78 78 74 70 71 74 76
91 87 74 74 82 81 88 98 97 98 88 89 80 72 68 56 59 58 52 61 65 65 66 63 61 58 57 55 64 76 78 78 79 78 80 80 80 80 78 74 76 76 77 79
92 99 88 68 76 79 82 95 96 95 96 96 82 90 74 70 61 62 66 69 69 70 70 68 68 70 68 62 67 72 73 77 80 80 79 80 82 80 76 76 77 79 80 84
97 98 73 60 80 79 88 78 87 89 93 95 97 89 80 74 65 66 68 72 75 75 79 79 77 76 75 76 71 62 71 79 81 81 80 82 84 81 80 84 84 87 86 86
85 92 81 78 72 71 74 82 82 86 87 93 91 85 84 82 70 72 75 76 78 80 80 81 82 84 84 85 74 73 76 79 84 86 86 82 80 82 85 87 91 92 93 99
80 74 59 83 74 77 86 92 88 92 88 88 88 88 87 90 74 74 76 79 81 84 84 83 86 88 88 83 82 82 84 84 85 83 80 79 79 84 93 94 92 92 95 98
87 73 79 66 89 73 62 69 72 79 87 90 90 86 89 87 83 76 75 81 84 85 90 90 90 91 91 87 87 88 87 86 85 83 85 84 85 85 87 92 93 94 96 98
87 72 69 87 69 66 77 82 80 75 75 87 87 80 91 89 87 75 76 80 83 88 92 94 89 88 88 88 87 89 89 89 88 87 86 88 88 86 87 86 85 89 88 90
69 63 61 67 67 82 90 85 80 82 81 78 82 87 89 86 80 76 77 79 81 84 86 90 90 88 86 85 84 84 86 89 90 90 90 91 93 95 94 95 92 90 90 92
61 68 79 81 87 85 82 85 84 84 81 80 82 87 88 87 82 83 82 88 89 91 91 88 88 89 88 86 82 82 84 86 92 91 90 92 94 95 99 99 96 94 95 95
85 86 85 84 80 81 89 84 79 84 86 91 91 89 89 89 92 91 95 93 88 88 91 91 91 92 89 89 85 84 85 88 89 93 94 95 96 95 94 94 96 96 96 100
85 84 84 83 78 86 86 90 94 90 88 90 89 87 91 92 94 98 99 100 92 99 94 90 92 92 91 90 87 87 92 94 93 92 93 94 96 97 98 98 98 98 99 97
82 72 87 75 79 88 82 95 95 92 94 87 84 85 90 95 94 95 98 99 97 95 95 98 100 99 98 96 96 94 94 96 94 97 100 100 100 100 100 100 100 100 100 99
94 91 82 73 77 79 94 91 95 95 94 95 95 89 81 81 86 92 94 94 94 98 91 93 99 99 99 100 100 99 99 99 100 100 100 100 100 100 100 100 100 100 100 100
83 83 84 86 86 80 95 96 98 99 98 100 99 99 96 92 92 95 100 99 98 98 98 95 85 82 85 88 91 98 99 99 99 99 100 100 100 100 100 100 100 100 100 100
87 77 91 92 95 96 98 98 99 99 99 99 99 99 100 99 100 100 100 100 100 99 99 96 80 73 70 77 80 92 96 96 98 99 100 100 100 100 100 100 100 99 99 99
84 82 90 99 99 99 98 99 99 99 99 96 99 100 99 98 99 99 99 99 99 96 78 71 72 69 70 74 78 84 89 91 91 97 100 100 99 100 100 100 100 100 99 98
85 88 96 98 99 97 93 77 65 65 65 71 72 69 69 67 74 74 80 86 66 71 70 68 72 70 71 69 71 75 87 90 90 91 89 92 96 93 92 92 93 93 94 91
99 98 98 98 97 84 69 61 57 48 45 47 51 54 55 50 48 53 57 66 69 81 78 70 67 64 72 69 64 70 77 84 87 85 80 82 82 79 75 74 72 74 74 75
90 89 82 70 67 82 95 94 66 54 56 60 63 65 57 52 51 56 58 47 63 69 79 68 59 65 92 72 57 62 69 71 72 71 66 65 64 64 66 68 68 68 66 66
82 92 86 91 92 89 93 91 96 99 100 99 99 97 97 96 85 79 48 46 53 62 66 59 54 63 88 80 59 58 60 59 59 61 62 66 64 67 69 68 67 69 72 77
79 80 81 86 98 97 98 100 98 86 90 95 96 90 94 100 100 92 97 89 62 62 69 63 64 72 80 81 71 57 57 58 56 58 60 64 64 65 66 68 70 72 76 77
85 88 93 94 95 95 95 96 98 97 99 99 92 82 80 82 90 97 100 98 98 96 90 84 80 71 75 74 71 60 58 59 55 55 58 60 63 64 67 70 72 74 76 77
99 98 98 99 85 80 83 89 96 90 83 88 93 84 91 90 87 82 82 89 96 97 97 97 97 88 80 82 76 63 58 55 55 55 58 59 60 62 67 70 72 73 75 77

GFSNGP_925_rhum_108.txt.gz
RH
56 53 56 63 62 56 82 70 90 80 92 55 48 48 36 38 40 40 40 38 36 38 38 42 48 57 65 68 71 71 71 72 74 77 78 80 85 91 92 85 78 72 66 63
78 59 68 65 52 58 61 61 66 64 72 48 42 47 47 43 44 44 43 40 39 37 35 42 44 50 62 67 72 73 71 72 72 75 80 81 80 78 77 76 73 68 70 72
70 65 87 82 69 66 69 68 74 83 61 60 62 58 55 51 50 50 47 44 42 39 37 39 43 52 53 62 69 72 73 75 76 77 76 79 80 80 80 78 75 80 76 72
75 73 74 70 59 68 76 87 90 88 90 81 71 63 57 52 54 48 46 44 42 42 48 52 52 51 58 66 69 76 74 76 78 77 78 80 80 80 82 82 84 80 76 77
72 60 57 65 69 68 70 90 97 97 89 82 71 61 61 58 52 49 48 49 53 55 57 59 59 60 58 58 66 74 76 78 80 80 79 80 82 85 82 84 81 76 73 73
76 67 51 63 64 69 70 70 85 95 88 85 72 74 71 71 62 57 55 57 59 63 63 61 66 70 68 59 60 63 69 80 84 83 81 83 88 88 85 80 74 77 80 87
63 62 42 40 58 66 80 66 73 77 86 90 91 87 77 74 68 70 71 69 69 67 67 72 76 78 71 68 67 65 74 84 88 90 89 91 86 86 85 81 85 93 93 92
68 77 54 47 64 63 62 69 69 73 75 77 78 78 73 71 75 65 69 76 78 74 77 83 87 86 78 78 82 82 81 86 92 93 92 90 89 91 91 97 99 99 99 95
52 41 48 66 63 64 69 72 65 64 62 66 69 64 72 76 71 68 66 70 75 79 84 88 89 91 85 84 87 88 86 88 92 93 92 94 98 98 100 100 100 95 86 88
70 54 54 57 67 65 57 56 60 58 58 56 63 63 61 79 72 70 66 71 77 77 76 79 87 90 91 90 90 89 85 87 90 90 90 95 99 98 99 100 89 83 84 88
66 60 60 56 61 59 58 63 62 58 59 59 57 61 61 67 76 74 68 74 78 79 83 86 88 89 91 92 90 88 88 90 91 91 96 100 99 97 96 90 86 83 88 88
38 45 41 56 54 63 67 64 61 66 64 62 63 59 57 66 80 76 72 78 79 84 87 85 86 89 88 87 89 86 90 93 95 96 97 99 98 97 94 91 88 87 90 90
40 49 52 62 66 66 63 62 63 66 66 72 70 69 68 69 86 83 80 83 88 91 88 86 87 90 92 88 87 87 89 91 91 90 93 95 96 95 100 100 100 98 95 91
55 66 73 71 63 62 70 70 76 81 82 88 81 77 80 80 91 90 88 91 88 88 90 88 90 95 96 90 88 88 94 94 94 93 93 94 96 95 94 99 100 99 95 97
68 67 65 66 68 69 74 77 83 84 84 86 83 80 86 90 91 92 96 97 98 98 95 95 94 97 94 93 89 88 92 95 95 97 95 96 99 100 100 99 98 96 98 100
68 70 70 74 67 72 71 77 90 88 89 87 86 86 86 92 97 99 100 100 99 95 96 95 95 97 99 96 99 98 96 95 94 98 99 99 99 100 100 100 100 100 99 98
74 84 85 73 69 68 81 82 90 92 92 92 94 95 87 84 85 89 93 96 98 97 93 93 98 88 92 96 99 99 100 99 100 100 100 100 100 100 100 100 100 100 100 100
64 64 62 57 64 69 76 88 95 96 97 100 100 100 100 96 93 94 98 99 100 99 99 98 99 94 82 82 83 96 100 99 99 100 99 100 100 100 100 100 100 100 100 100
75 73 77 74 78 77 79 86 89 98 98 100 100 99 99 100 99 100 100 100 100 100 99 99 98 98 87 83 79 83 94 99 100 100 100 100 100 100 100 100 100 100 100 99
78 75 77 84 88 96 87 97 97 96 98 86 82 89 92 92 97 99 99 98 99 99 98 92 90 83 75 74 80 82 90 92 99 99 100 100 100 100 100 100 100 100 100 99
74 82 86 86 94 99 96 84 64 55 53 66 65 59 58 57 61 71 70 61 59 66 80 77 74 71 67 70 73 75 90 93 92 96 100 100 100 100 99 100 99 100 100 100
79 81 86 96 94 90 73 66 61 56 50 52 56 57 56 54 51 50 51 55 62 67 80 81 80 71 70 82 78 77 77 87 92 90 93 96 96 92 91 89 90 92 84 79
93 93 88 81 68 63 86 91 87 66 62 73 79 81 79 82 80 66 57 50 50 62 79 87 74 66 94 97 83 82 82 78 76 74 74 73 76 75 77 78 75 75 70 69
80 87 83 84 87 85 81 85 98 99 100 100 100 100 100 99 96 97 98 86 48 61 70 70 68 64 97 99 91 76 81 76 70 66 63 60 60 62 65 68 68 66 65 66
79 81 81 90 89 81 97 100 99 89 87 87 85 80 82 89 100 99 100 100 99 98 88 81 80 89 90 91 92 84 64 61 60 59 62 62 61 62 66 66 67 70 71 72
81 80 83 86 88 91 90 92 82 84 88 84 82 84 83 86 86 88 89 85 97 99 99 97 97 90 81 87 86 82 73 62 63 63 59 62 66 65 71 70 68 71 73 71
89 92 96 97 98 92 88 86 86 80 81 84 84 80 84 75 77 86 88 90 91 87 89 95 97 97 97 96 90 86 86 73 66 67 71 72 64 59 70 69 68 71 72 74

GFSNGP_925_rhum_111.txt.gz
RH
49 47 50 52 54 46 72 67 81 57 62 55 46 42 42 35 37 38 38 36 34 34 34 37 48 56 59 64 67 71 71 71 74 77 80 87 93 96 95 95 93 89 81 75
76 52 56 53 41 42 49 53 56 56 57 41 46 44 46 42 41 43 42 40 37 34 32 36 40 49 58 63 66 64 66 68 73 75 79 82 86 87 88 90 85 79 74 72
63 55 81 82 57 59 60 59 71 74 56 59 58 54 54 53 48 47 44 42 41 37 37 39 42 46 47 57 66 66 66 69 72 74 76 78 79 79 78 77 76 74 74 73
67 73 73 61 54 60 60 70 76 76 82 84 66 58 53 51 51 46 46 44 43 43 45 48 47 45 48 57 61 69 68 71 72 73 74 76 77 78 79 79 80 80 80 79
68 43 46 52 56 59 61 70 93 94 76 66 62 54 66 63 58 53 50 48 49 50 51 52 52 55 52 48 53 60 69 71 74 75 75 77 77 78 80 80 82 81 79 77
66 60 42 47 56 56 58 68 74 91 80 76 63 67 80 69 65 60 60 59 58 57 54 52 58 61 60 55 50 51 57 67 74 75 75 77 80 84 85 82 83 84 83 81
49 54 32 42 49 56 72 73 66 68 74 76 79 81 76 67 66 66 68 72 73 64 59 64 70 73 66 62 60 59 59 66 76 78 79 79 84 87 87 83 85 89 87 86
47 60 51 43 58 61 56 56 56 62 66 70 63 60 65 65 66 68 64 68 72 74 71 77 80 80 75 74 77 79 76 76 82 85 86 88 89 91 94 91 91 91 87 86
41 38 43 41 49 50 53 54 57 56 53 50 52 52 50 52 64 64 61 62 68 69 75 80 80 83 81 81 81 81 78 75 80 89 92 95 95 97 94 91 86 84 83 83
55 38 42 49 54 52 56 51 51 50 49 49 51 47 48 48 52 67 65 63 69 69 68 71 78 80 82 87 84 82 77 76 80 85 87 91 98 100 93 89 84 82 80 80
46 40 50 47 46 52 54 54 53 49 50 53 54 52 48 48 49 68 69 66 69 71 74 77 78 80 85 89 86 82 79 81 83 83 86 90 96 100 95 90 83 76 78 81
29 32 36 45 46 50 54 54 52 55 54 50 54 58 53 49 50 72 74 73 74 78 80 78 78 80 86 90 90 83 83 84 86 93 97 96 98 100 99 92 87 82 81 84
32 36 39 44 50 54 55 52 52 54 58 61 67 63 58 55 58 83 85 79 83 87 83 79 80 83 89 90 92 91 93 94 96 95 97 99 99 98 100 100 99 97 97 97
36 48 58 58 54 53 55 57 62 70 70 75 85 65 63 65 70 91 86 87 86 88 86 82 80 83 88 89 90 92 93 94 97 97 95 94 95 97 98 99 100 100 100 98
46 44 47 51 55 56 61 64 77 72 74 78 79 77 78 82 90 93 95 97 98 98 97 97 96 95 91 88 91 91 90 94 94 97 99 98 98 98 99 100 100 99 100 100
51 56 59 63 58 59 62 66 76 76 81 85 85 86 85 85 95 98 99 100 99 97 95 96 97 96 90 94 97 99 98 95 95 99 99 99 99 100 100 100 100 100 99 97
62 71 68 71 64 60 63 67 72 79 88 88 91 93 95 84 83 86 90 93 96 97 96 94 93 94 95 91 89 94 98 99 99 99 100 100 100 100 100 100 100 99 99 99
48 51 57 56 56 58 66 70 84 85 91 94 94 99 100 98 98 99 100 100 99 98 96 98 98 98 98 97 98 86 89 93 100 99 100 100 100 100 100 100 100 100 100 100
56 56 54 52 54 60 69 75 81 86 87 89 89 89 98 98 98 100 99 98 99 98 95 97 97 98 97 96 85 89 92 88 95 100 100 100 100 100 100 100 100 100 100 100
63 63 65 66 75 78 78 86 89 87 91 83 70 65 67 66 70 75 79 80 80 92 99 97 93 90 80 76 80 87 90 93 92 95 100 100 100 100 100 100 100 100 100 99
70 69 71 82 86 92 88 85 80 62 47 49 51 45 46 48 47 47 49 46 43 53 62 81 77 80 81 77 79 84 87 92 90 89 98 100 100 100 99 99 99 99 98 98
67 71 78 75 87 89 83 66 56 52 47 49 57 62 66 69 69 66 60 54 48 56 65 81 85 85 74 83 92 88 83 82 92 95 97 96 98 97 96 96 98 98 96 95
75 76 80 80 84 76 66 75 80 65 60 66 77 86 88 90 90 87 82 72 62 66 59 70 84 82 69 89 99 86 87 91 88 89 89 90 91 89 86 81 80 82 81 80
89 88 84 77 68 70 69 70 83 95 99 98 97 97 98 91 86 89 93 95 92 75 64 68 74 78 89 88 99 97 84 86 89 85 86 83 74 73 73 78 75 78 74 71
88 86 84 86 86 77 84 99 96 88 81 77 79 80 82 86 92 89 95 94 97 100 100 99 97 96 91 88 94 98 90 81 77 83 85 82 73 63 66 70 70 70 69 69
82 77 76 80 78 80 84 87 76 70 73 69 68 74 78 80 81 87 88 91 94 97 100 100 100 100 99 96 96 96 90 85 81 82 80 71 67 65 64 67 70 70 72 72
82 81 84 89 95 92 87 79 71 65 73 72 70 73 80 70 72 76 77 78 81 84 90 96 100 100 100 100 99 98 96 90 82 73 74 76 70 64 68 69 69 69 69 70

GFSNGP_925_rhum_114.txt.gz
RH
58 48 51 56 55 50 82 70 86 72 65 58 58 58 56 48 46 48 48 48 47 46 49 52 59 61 65 68 72 79 84 75 82 87 86 92 97 99 98 97 97 97 97 92
88 53 63 54 41 40 47 54 60 64 64 66 55 51 60 58 56 55 53 48 46 45 47 49 49 56 64 66 67 70 74 79 76 83 84 89 92 96 95 95 92 92 87 81
73 58 86 86 58 55 58 53 66 71 76 81 74 60 60 66 60 56 55 54 54 54 56 52 48 49 56 64 66 65 68 71 74 76 80 84 89 90 90 88 87 85 79 76
91 86 87 66 54 57 62 62 69 77 80 72 62 66 71 74 70 66 60 58 58 60 55 53 54 54 51 55 63 66 68 69 71 73 76 79 81 82 80 81 80 78 76 74
90 83 46 53 54 65 65 70 80 85 80 72 68 69 78 75 74 72 71 67 63 60 57 54 61 62 60 54 51 60 68 71 71 71 73 75 76 78 80 80 78 76 74 76
89 78 56 64 62 55 58 88 82 87 77 81 80 84 87 76 72 76 66 71 74 66 60 64 69 72 70 64 60 55 54 63 72 72 72 73 75 78 80 79 80 79 80 80
85 76 51 58 60 58 81 75 78 79 70 74 81 73 78 72 72 69 66 69 72 73 70 75 75 74 76 75 75 75 71 63 70 75 75 75 77 80 80 82 85 85 84 82
63 72 74 56 63 74 67 58 64 67 64 70 70 62 57 58 64 67 70 64 68 71 74 78 78 79 81 82 81 78 77 77 73 80 80 78 80 85 84 84 88 88 86 85
54 62 45 57 56 60 57 59 62 60 59 53 55 55 54 57 54 68 66 63 67 70 70 75 77 79 82 84 84 83 81 79 77 84 88 86 89 90 92 89 90 89 89 87
55 44 53 51 54 52 59 54 56 52 52 53 59 58 58 55 56 66 72 67 68 69 73 76 78 79 82 85 85 84 82 78 77 82 88 95 97 94 93 92 91 89 86 86
57 46 50 53 52 60 60 58 56 53 52 57 59 62 60 61 58 58 75 70 70 73 76 77 77 80 83 86 88 84 81 80 80 81 86 87 95 97 97 89 86 85 83 81
61 44 52 52 54 54 61 61 54 55 56 54 58 64 56 65 56 61 80 76 75 76 80 79 80 83 84 85 91 89 86 85 84 86 86 90 95 99 100 92 89 83 79 78
40 42 50 56 60 55 59 56 54 55 60 70 70 77 70 57 59 77 86 81 82 86 84 80 80 81 83 86 88 91 95 94 94 94 94 94 96 97 99 96 92 88 85 82
48 59 64 62 70 62 56 57 61 71 74 72 81 79 72 64 65 85 91 88 86 85 85 84 82 83 84 83 84 85 90 94 98 99 100 100 100 99 98 100 100 100 99 99
49 50 53 62 61 62 61 67 78 72 64 78 81 81 81 84 90 99 98 97 97 96 96 95 94 93 93 94 91 88 91 91 92 97 99 100 100 100 100 100 100 99 100 100
52 62 64 69 68 68 70 78 78 70 72 75 85 88 90 83 86 93 95 97 99 99 98 95 94 95 91 89 88 88 93 97 99 99 99 100 100 100 100 100 100 100 100 100
65 78 77 79 74 70 72 72 71 74 76 77 84 95 97 97 89 84 88 92 94 95 94 94 94 92 94 95 90 86 85 87 92 95 97 98 99 100 100 100 100 100 99 99
58 62 67 72 71 68 75 72 80 82 82 81 88 89 91 94 95 99 100 99 100 99 96 94 99 100 99 98 97 94 84 82 88 91 97 99 100 100 100 100 100 100 99 100
59 63 67 62 60 66 74 74 78 82 84 86 85 83 85 90 92 98 98 97 94 90 91 100 98 98 98 98 96 93 90 91 92 95 97 98 99 100 100 100 100 100 100 100
67 63 59 69 66 70 71 74 80 82 85 90 75 65 65 59 54 51 54 64 57 56 69 68 92 89 81 75 73 75 79 87 96 98 98 97 99 99 99 100 100 100 100 100
76 76 79 80 79 80 81 77 81 87 77 58 54 51 49 54 60 58 56 58 56 50 50 54 71 74 78 77 74 76 81 84 90 93 96 99 100 99 100 100 100 100 100 100
79 82 89 87 94 95 90 82 68 53 46 44 50 62 69 73 77 82 82 78 79 62 60 60 69 81 84 86 86 79 78 76 83 96 96 94 98 100 98 97 98 98 98 98
82 83 83 80 79 81 76 67 65 57 54 56 67 78 90 93 95 94 95 83 84 88 92 81 63 77 90 92 85 94 94 87 85 89 91 92 91 92 94 92 88 91 92 92
80 79 78 79 82 68 76 71 77 87 93 97 98 90 91 91 81 78 85 90 87 88 98 100 100 93 89 89 87 94 95 92 86 83 89 91 90 86 81 80 84 84 80 80
87 85 85 78 81 82 77 90 98 93 89 78 73 71 75 79 86 80 80 77 79 86 99 100 100 99 99 100 98 92 96 89 90 88 81 86 86 85 78 74 76 74 71 66
92 91 88 85 84 82 87 88 89 75 74 70 67 68 68 71 68 68 65 68 71 76 83 89 98 98 99 100 100 100 99 97 97 91 91 84 78 77 73 68 73 74 81 72
78 77 86 89 87 85 84 81 77 68 69 67 65 66 75 63 59 62 59 58 60 64 66 70 76 86 94 98 99 100 100 99 98 97 96 82 76 73 72 65 62 70 84 93

GFSNGP_925_rhum_117.txt.gz
RH
62 57 53 64 57 55 75 71 88 73 89 85 76 71 67 70 60 58 58 55 56 58 60 57 68 68 69 72 76 84 90 88 86 80 88 95 98 100 100 98 98 95 96 99
94 63 74 57 48 48 47 55 63 66 84 82 71 69 84 79 67 68 65 63 62 62 63 60 57 63 68 68 70 75 80 84 89 89 72 92 95 97 99 98 97 96 96 95
83 66 84 76 58 57 63 56 67 82 85 83 69 76 89 89 79 75 69 68 69 70 66 62 61 58 59 66 68 68 72 77 80 82 80 82 84 89 94 95 93 91 88 85
98 85 66 54 57 61 64 65 70 77 82 72 72 75 84 85 87 85 80 77 75 73 65 65 64 61 57 54 62 70 70 68 68 71 76 82 85 87 91 90 89 88 85 81
87 93 56 64 64 72 74 67 77 84 84 74 73 76 82 78 78 82 78 81 80 74 68 70 71 70 64 62 58 57 67 71 69 69 70 75 81 84 86 87 86 85 82 79
91 83 65 51 65 59 60 76 88 84 86 82 80 98 87 82 76 79 77 72 75 74 74 77 79 76 72 75 75 77 73 65 73 72 72 74 76 79 81 82 81 80 80 79
93 86 62 56 67 61 64 43 86 88 82 78 85 76 76 75 75 70 74 70 71 72 77 80 77 77 82 84 84 82 77 72 69 78 75 73 75 78 80 82 83 82 80 80
79 80 59 65 70 65 58 74 78 83 76 76 75 64 59 57 61 70 71 68 69 74 77 79 77 78 82 85 84 82 81 78 76 73 82 81 79 80 84 84 86 86 86 87
62 58 43 67 54 62 62 66 67 74 68 68 58 55 56 59 59 71 69 69 68 72 76 77 77 79 82 84 84 85 84 82 79 78 83 88 85 85 91 92 91 92 93 91
51 37 54 62 60 65 64 63 60 59 57 55 58 60 61 63 63 62 70 73 69 71 77 78 77 80 81 82 84 84 84 83 80 83 83 87 89 91 95 96 96 95 96 93
68 58 50 53 66 69 66 64 62 58 56 58 58 61 63 68 67 63 71 75 72 73 77 78 78 80 80 80 87 88 86 85 82 80 82 90 88 92 96 96 93 93 91 88
52 51 47 52 57 69 70 69 66 63 60 55 59 67 67 60 64 63 72 79 78 76 79 80 78 79 78 80 85 91 94 92 90 90 90 94 94 93 97 99 96 93 89 86
42 46 51 62 64 62 68 68 62 63 61 69 70 76 78 56 58 69 88 88 82 84 86 82 80 78 77 78 80 85 91 96 97 97 96 98 98 100 100 99 97 94 91 85
46 61 62 64 68 66 62 61 60 66 73 75 79 79 75 71 78 88 92 93 89 86 85 85 85 84 90 90 88 86 85 86 90 97 100 100 100 100 100 100 100 98 98 95
62 50 52 66 74 67 65 75 85 84 78 79 83 83 82 82 90 87 94 99 98 97 96 96 95 94 92 89 90 90 94 94 93 93 95 97 100 100 100 100 100 100 100 100
63 68 71 70 73 74 78 86 87 82 67 74 76 88 91 89 84 89 92 93 96 98 97 97 94 94 92 90 89 86 86 88 94 99 99 99 100 100 100 100 100 100 100 99
72 82 80 80 76 77 79 84 84 76 70 74 75 85 89 93 94 90 97 98 100 99 99 98 95 96 99 99 99 98 96 87 90 91 84 97 100 100 100 100 100 100 99 100
49 53 63 68 70 74 80 84 78 73 71 75 83 84 85 87 87 93 96 99 99 97 97 96 96 97 100 99 98 96 92 86 85 91 98 97 96 100 100 100 100 100 99 99
66 66 72 73 67 70 82 84 78 74 72 76 83 84 83 86 87 91 90 90 87 86 59 77 62 95 99 93 96 87 82 85 86 91 96 98 99 98 99 100 100 100 99 100
72 70 70 73 66 73 81 74 74 75 76 85 90 76 71 67 59 50 49 52 53 50 55 55 63 68 79 81 78 76 76 77 81 83 90 100 99 100 99 99 99 99 100 99
76 75 80 78 81 74 72 72 73 76 81 89 76 60 53 50 64 69 66 75 75 77 63 62 59 62 71 76 80 80 78 77 80 84 92 95 94 88 90 100 100 99 99 99
79 83 86 85 85 85 78 77 77 83 84 59 46 48 63 74 78 84 87 88 84 75 73 85 88 76 70 88 93 92 89 88 86 82 83 90 96 97 92 98 97 98 98 98
83 86 88 89 92 92 90 83 78 64 53 48 52 68 78 91 96 98 93 83 91 90 90 89 93 98 98 89 91 92 88 92 94 90 84 86 89 93 96 99 95 91 93 94
88 89 90 85 78 80 86 76 71 64 60 71 91 98 94 89 76 78 87 81 75 85 89 90 99 99 100 99 96 98 99 94 95 94 90 90 93 91 88 88 87 83 84 84
88 88 85 84 83 82 77 74 82 94 94 93 81 75 75 78 80 75 71 64 66 68 72 79 92 93 96 99 100 100 100 100 99 99 97 94 87 90 90 84 78 75 78 82
84 84 83 83 85 77 79 88 93 90 83 74 70 71 70 71 64 60 61 59 56 56 59 61 64 74 83 86 92 95 98 98 98 98 99 97 96 91 87 87 86 92 79 95
93 93 91 91 88 87 88 90 90 78 74 66 64 69 74 62 59 58 55 55 59 60 62 66 74 80 86 91 94 89 88 93 99 98 98 97 97 97 93 80 77 74 82 96

GFSNGP_925_rhum_120.txt.gz
RH
63 65 58 65 59 55 74 77 84 69 80 83 88 81 84 77 73 72 72 70 71 72 71 66 64 71 73 73 79 91 97 99 100 95 90 82 94 99 98 99 100 100 100 100
83 68 79 65 56 48 50 56 63 70 75 82 79 81 89 87 80 80 77 76 74 73 74 73 72 66 65 73 72 79 84 88 92 99 99 100 87 87 99 100 99 99 100 100
80 78 77 58 62 50 65 62 66 85 68 81 72 80 91 91 88 88 85 82 82 83 78 76 75 70 65 65 72 69 72 78 83 88 92 94 94 87 95 97 96 94 93 93
91 78 34 32 59 60 70 67 72 78 85 82 76 80 86 85 88 90 85 87 88 87 78 77 74 70 65 60 60 70 74 72 71 74 78 82 84 80 84 87 91 91 90 89
80 93 53 59 67 73 75 60 71 77 82 77 73 78 83 80 79 82 83 79 82 81 79 76 74 75 74 73 71 70 73 70 74 74 72 74 77 80 85 89 90 90 89 86
93 77 50 36 55 61 55 67 75 78 84 83 84 99 91 76 78 76 79 74 76 77 80 79 75 73 74 80 77 80 78 74 70 72 76 72 72 76 80 82 85 88 87 84
94 93 66 45 69 60 58 19 86 82 83 85 87 83 75 73 68 68 74 71 72 74 81 83 80 78 79 80 80 80 77 75 72 71 75 79 77 76 77 80 83 84 85 85
86 84 42 69 70 59 48 76 82 86 83 85 78 74 61 58 58 65 71 73 72 74 79 81 80 79 82 83 84 84 82 79 76 75 76 80 85 82 82 84 86 87 87 86
60 53 38 70 53 63 70 74 79 82 78 78 78 71 56 60 58 61 68 76 73 74 76 77 78 79 81 82 84 85 85 84 82 80 80 85 91 90 90 91 93 93 94 92
48 35 53 56 65 65 68 66 68 71 71 68 64 62 63 65 66 66 59 71 75 73 75 78 78 80 82 82 82 86 87 86 84 81 80 78 79 85 90 95 98 98 98 96
66 57 56 52 65 71 73 66 64 63 62 63 64 65 65 71 71 67 64 63 77 77 78 79 81 81 79 79 82 83 88 89 88 87 88 94 93 91 91 90 94 96 96 94
42 40 36 37 48 73 75 71 68 68 64 60 61 66 67 73 63 64 66 70 81 82 80 82 81 81 79 77 78 80 86 93 94 95 94 93 95 96 96 98 100 99 98 97
34 41 51 55 66 72 71 73 71 69 66 67 67 72 75 82 57 65 85 89 87 83 84 84 81 81 81 84 84 83 85 86 87 91 95 99 99 100 100 93 96 98 100 98
48 60 59 67 67 74 69 68 64 62 62 70 74 79 81 71 76 83 86 90 93 89 86 85 88 89 90 91 89 91 92 92 93 91 91 93 96 99 100 100 100 98 96 100
49 52 48 63 72 72 67 75 79 83 84 86 86 84 83 77 78 84 84 91 99 98 96 95 95 93 92 91 88 87 86 88 92 97 99 100 100 100 100 100 100 99 99 98
51 61 69 70 74 74 77 84 83 87 87 84 79 82 91 92 86 87 92 93 93 96 95 95 93 90 92 93 96 97 95 94 94 93 92 88 96 100 100 99 100 100 100 99
72 79 79 77 78 75 74 76 78 83 82 73 70 75 83 85 87 88 91 94 99 99 99 100 97 95 96 100 100 100 98 94 93 87 90 98 100 100 99 100 100 100 99 100
43 45 53 54 68 72 81 85 86 80 80 69 72 83 85 83 83 83 87 93 97 91 79 73 84 88 100 100 100 98 93 85 84 88 92 100 100 100 100 100 100 100 99 99
50 56 62 69 65 68 75 83 84 77 71 71 80 85 83 85 87 87 91 88 83 75 43 57 75 76 63 75 93 95 90 81 73 73 79 98 100 99 99 100 100 100 100 100
65 66 67 73 68 71 79 80 78 79 73 71 79 88 91 86 80 73 54 53 66 73 69 61 60 61 62 72 77 82 84 81 79 77 78 88 97 99 98 97 97 100 100 100
70 77 80 80 80 75 79 81 82 82 77 77 87 91 75 56 50 59 70 77 76 82 78 70 72 83 83 73 77 83 84 85 86 83 86 85 86 94 94 92 83 83 99 99
78 80 84 84 85 88 83 78 74 74 77 82 90 73 54 58 77 80 85 90 85 83 85 86 85 87 94 97 93 92 94 95 94 93 95 92 87 90 92 94 97 94 98 99
81 83 86 85 86 87 80 77 75 76 83 88 65 48 58 75 85 97 90 83 86 83 85 83 87 96 98 98 96 92 88 91 96 97 96 98 93 87 89 92 92 97 94 90
85 86 87 88 87 92 95 88 84 84 75 55 49 56 77 98 88 79 85 79 70 80 81 76 94 93 89 87 90 95 95 95 94 96 97 98 98 97 90 89 90 89 88 82
83 89 91 92 92 91 89 82 74 68 67 79 90 92 83 78 73 81 72 65 64 60 61 55 58 62 69 84 91 86 89 93 97 95 94 97 98 97 97 88 88 89 80 78
90 87 87 88 86 86 87 83 91 94 95 92 80 77 77 76 72 65 62 56 54 57 58 60 64 72 75 80 89 95 93 86 87 92 94 93 96 98 98 97 92 90 89 90
93 92 92 91 84 83 81 82 89 98 92 72 71 77 76 68 66 58 56 57 59 60 62 68 75 82 87 93 92 84 84 85 89 93 91 96 88 94 97 97 97 94 86 89

GFSNGP_925_rhum_123.txt.gz
RH
66 67 68 66 67 55 77 82 82 68 83 82 86 84 88 89 82 81 82 81 80 81 83 81 80 73 75 80 88 95 100 99 100 97 87 86 90 88 89 92 91 99 98 98
80 67 76 77 60 57 53 60 65 71 77 78 79 83 86 90 90 91 90 89 87 83 84 86 86 82 71 78 78 83 89 95 100 100 99 99 100 100 100 96 98 98 98 99
66 78 69 46 50 53 62 63 64 87 64 80 79 89 89 89 91 93 90 90 93 93 89 88 86 83 79 69 73 76 77 79 85 93 96 97 95 94 97 94 94 96 96 96
85 74 24 24 57 59 71 73 69 71 82 81 77 87 87 86 88 90 90 85 88 90 86 84 79 77 77 72 69 69 72 75 80 78 80 85 88 93 96 97 94 92 92 92
76 92 45 41 64 70 70 61 70 75 74 81 76 86 87 83 81 83 85 81 82 82 84 80 78 78 77 74 75 76 80 77 74 74 81 78 79 85 87 88 89 88 92 90
93 57 26 23 53 61 50 41 58 74 76 83 83 97 87 80 77 76 78 76 77 76 79 77 79 79 76 80 80 86 84 80 75 73 72 80 80 77 76 79 83 88 90 89
93 89 56 39 67 55 34 12 74 77 76 86 88 83 74 73 68 68 74 75 74 76 82 81 78 76 78 79 85 84 81 78 76 73 73 73 79 84 82 82 82 83 86 89
88 88 23 68 70 52 36 70 72 78 78 84 80 74 71 62 59 61 70 76 75 76 78 78 78 76 79 79 80 78 78 80 81 82 82 83 85 88 90 90 90 88 89 88
57 43 32 74 60 61 63 69 78 77 77 81 80 78 71 63 59 61 60 68 77 77 79 80 80 80 79 79 79 80 82 83 83 81 80 82 82 83 84 87 91 94 96 94
46 33 52 48 59 67 70 71 70 74 76 82 79 74 66 65 68 69 63 61 70 79 79 79 81 83 78 75 77 83 86 86 85 80 79 80 85 89 87 87 90 92 95 96
65 52 50 50 55 53 74 72 68 70 75 76 74 67 68 71 72 69 66 64 68 80 81 80 81 82 77 76 75 79 85 88 89 85 82 84 86 91 94 94 99 100 98 98
39 34 27 23 34 48 72 76 73 72 69 66 68 70 68 73 69 67 66 67 73 84 84 82 84 82 78 81 80 79 80 82 84 89 89 91 94 92 91 93 94 96 97 100
26 32 41 41 58 62 74 77 74 73 69 72 66 64 68 76 74 68 68 86 91 89 87 88 84 82 81 88 91 92 93 93 92 92 92 94 94 98 100 90 94 93 95 97
44 52 49 64 48 68 76 74 67 67 65 64 65 71 74 84 74 74 73 77 86 95 92 88 88 86 90 92 91 89 87 87 90 92 96 98 100 100 100 100 100 100 97 100
40 46 33 48 63 73 76 78 81 78 78 83 75 80 86 84 78 76 84 86 90 90 96 98 97 95 94 93 91 93 95 94 94 93 92 96 92 88 95 100 100 100 98 98
39 47 50 58 66 77 80 83 79 78 85 88 92 91 88 88 87 86 90 93 93 94 96 97 96 95 94 94 96 99 99 97 94 93 90 88 95 100 99 99 98 98 100 100
48 59 72 72 70 72 77 72 69 73 82 88 90 85 86 85 85 88 87 92 88 92 91 96 98 97 97 99 100 99 100 95 89 82 82 97 99 100 98 99 100 99 100 99
37 32 44 45 55 60 72 74 76 78 80 82 76 77 83 86 86 82 81 85 89 93 78 61 63 77 64 62 89 99 100 95 85 77 74 84 95 97 97 99 100 100 99 98
48 46 46 49 55 58 64 74 77 76 79 76 80 86 82 78 80 84 86 92 89 82 50 53 59 66 64 66 76 88 96 91 86 81 80 82 84 88 94 94 93 92 91 98
59 56 54 62 63 65 73 74 77 82 79 77 78 84 84 80 87 90 90 81 49 68 77 77 70 70 71 74 74 78 82 84 86 84 86 91 90 87 85 92 97 94 90 87
66 69 71 76 77 72 74 81 82 85 83 77 82 84 83 88 85 70 58 72 76 81 83 77 75 84 85 86 89 90 93 95 96 96 97 95 96 94 90 85 86 90 98 100
72 80 80 81 84 87 84 83 81 86 84 82 79 78 89 74 56 60 73 80 86 85 85 84 78 77 94 98 96 95 92 92 88 87 87 92 98 99 98 92 86 86 90 93
82 81 84 85 85 86 88 87 85 83 86 82 79 88 75 52 64 88 96 86 84 82 81 76 72 86 95 92 88 85 88 93 93 90 88 92 95 99 100 100 98 89 89 91
85 85 86 81 86 89 93 91 82 79 78 77 84 86 53 79 92 92 89 84 77 74 76 67 67 81 84 84 88 93 93 88 86 89 96 96 91 95 98 98 98 96 87 89
88 88 92 92 89 85 88 88 85 85 84 81 63 53 64 86 78 76 79 69 65 60 55 53 53 60 67 70 75 81 89 94 94 84 86 85 87 91 92 97 97 97 96 90
93 93 92 86 82 92 90 89 87 82 76 89 93 94 89 83 78 78 67 59 54 57 57 57 60 71 74 77 86 91 87 84 80 80 96 96 90 90 95 92 95 96 97 96
91 91 96 95 92 91 90 89 90 93 91 92 87 86 83 78 68 62 57 56 58 59 62 67 70 74 76 84 82 76 77 76 77 85 87 82 81 93 98 93 94 96 96 97

GFSNGP_925_rhum_129.txt.gz
RH
69 64 70 77 70 66 83 77 79 55 80 66 70 80 83 86 86 86 85 83 86 86 84 86 90 89 85 82 86 89 92 98 100 100 100 99 98 100 100 100 100 100 100 100
92 69 77 82 71 72 63 65 80 78 78 63 68 82 81 84 90 90 90 85 86 86 87 87 93 92 86 79 72 74 80 84 88 92 94 94 97 99 99 98 98 99 100 100
61 66 70 46 48 67 53 59 63 82 58 75 82 83 83 82 88 90 91 87 86 88 91 92 91 88 88 82 75 72 71 72 78 78 81 86 88 89 90 91 90 91 93 96
85 64 18 22 53 53 53 56 68 70 63 77 76 76 81 85 87 87 88 86 84 88 90 87 84 81 79 78 79 79 77 76 75 74 79 77 75 79 81 83 86 88 90 92
76 80 29 34 49 72 67 40 67 69 70 72 80 87 83 83 86 84 84 85 84 84 88 84 80 78 78 81 83 84 87 85 81 77 76 78 82 82 80 77 78 82 87 89
89 42 15 9 48 65 48 25 43 72 72 74 86 86 72 78 86 85 79 80 81 81 84 80 78 77 75 80 83 90 92 89 86 83 80 81 83 84 87 86 86 84 83 84
86 74 38 26 60 56 20 11 43 71 71 86 91 73 62 79 84 76 71 77 79 79 83 80 79 75 76 79 85 86 86 84 83 85 84 83 81 80 82 82 81 81 80 82
84 83 24 46 77 43 19 27 56 73 72 78 77 74 78 84 82 77 73 73 78 79 80 78 78 77 75 78 84 88 87 83 81 81 81 82 82 84 84 84 82 82 81 77
45 32 20 62 39 56 37 38 68 69 73 73 79 82 80 83 81 78 69 70 73 78 78 79 79 78 74 76 77 80 82 82 82 83 82 82 82 85 88 92 96 97 97 94
43 29 38 35 48 70 63 57 58 70 67 80 75 80 82 84 81 77 67 64 60 71 82 78 78 78 77 73 74 77 79 78 77 76 79 80 83 85 86 93 98 98 97 98
61 46 43 38 41 39 45 60 69 70 72 76 80 79 81 83 80 72 68 66 66 69 77 78 78 80 81 76 74 76 82 87 90 89 88 87 87 88 85 85 87 94 96 97
30 24 22 21 24 36 44 46 54 68 79 79 80 77 82 83 75 71 71 67 70 70 77 80 84 84 84 81 82 86 89 91 90 89 87 86 87 85 82 85 83 79 93 100
24 23 28 23 26 32 39 44 49 68 71 76 81 79 78 78 72 69 66 67 71 71 74 86 88 88 84 82 86 88 87 83 81 83 84 86 90 99 100 79 76 95 100 99
32 31 36 41 29 39 48 47 50 62 68 75 72 74 74 72 68 72 76 69 69 85 90 91 92 90 86 88 91 89 88 90 94 91 89 91 96 99 96 99 97 92 76 93
37 38 31 26 34 36 48 60 71 74 76 84 75 73 73 77 79 79 70 68 80 89 93 88 87 89 91 96 97 95 95 96 98 95 91 93 86 78 85 85 90 90 84 86
40 39 44 46 41 49 61 71 67 63 78 76 77 77 74 70 69 70 77 83 96 99 88 83 86 87 88 94 97 98 99 99 97 99 91 77 72 73 75 77 84 88 92 89
48 51 49 56 53 46 57 50 55 52 69 79 74 72 78 80 81 85 86 88 91 89 87 88 89 93 98 99 99 97 98 93 100 100 86 77 76 76 77 82 91 91 86 80
45 40 41 42 39 44 52 54 58 61 72 68 72 80 82 87 86 92 91 92 94 91 84 89 95 95 81 82 71 71 73 81 100 93 86 85 80 83 89 88 86 91 89 86
56 49 48 48 49 51 52 55 63 63 67 72 81 84 80 82 90 91 88 93 93 84 86 91 65 62 76 74 73 78 83 87 100 99 93 91 90 89 94 95 94 94 94 94
58 57 56 56 54 57 59 58 56 67 70 78 82 86 91 94 92 87 87 89 82 83 89 55 65 72 72 74 78 86 91 95 98 100 98 97 97 97 97 90 94 98 100 100
57 60 62 66 68 64 65 63 68 82 80 83 86 88 88 93 89 85 88 92 87 90 69 74 80 79 76 83 84 89 91 90 93 96 96 99 100 98 96 93 91 94 99 100
61 63 64 68 75 75 71 72 75 79 86 88 86 87 94 94 91 88 81 87 88 65 63 83 81 82 78 84 93 92 92 88 85 85 84 85 86 89 93 88 90 89 90 92
72 70 72 76 78 77 77 81 81 82 89 91 90 92 89 91 90 91 92 84 67 85 87 85 82 76 97 95 93 89 87 84 86 91 95 98 98 97 95 90 90 87 87 89
78 75 76 76 81 87 86 88 86 87 86 90 88 86 85 89 87 84 81 61 71 95 88 81 84 85 80 69 62 65 69 76 80 80 80 93 80 78 82 90 100 100 98 95
80 83 90 94 88 90 86 86 95 95 94 93 89 84 79 78 78 80 80 88 98 87 79 84 77 64 58 65 69 71 76 73 69 81 73 74 78 80 80 80 82 92 100 100
96 93 85 82 84 84 88 96 98 99 97 97 91 85 83 77 64 75 92 91 84 69 60 58 59 62 70 70 67 66 66 66 67 70 78 78 80 82 83 84 88 92 99 99
92 92 95 92 92 90 90 95 97 99 94 94 96 88 78 78 86 91 84 74 64 58 60 65 72 72 65 64 65 66 68 70 73 79 81 84 86 88 89 91 92 98 100 94

GFSNGP_925_rhum_135.txt.gz
RH
41 33 31 41 43 40 68 57 66 32 39 25 21 24 33 40 45 49 49 51 51 53 50 50 53 54 56 61 65 74 86 96 97 100 100 100 100 99 100 99 100 100 96 98
79 39 41 40 35 38 42 43 48 40 38 23 23 29 36 40 49 51 51 52 52 52 52 53 56 58 58 59 60 62 66 75 85 92 92 95 97 98 99 100 100 100 99 99
53 38 50 69 41 35 32 33 36 42 24 26 30 37 40 40 45 49 51 53 54 54 55 58 59 61 61 62 63 63 64 66 69 73 76 80 82 88 89 90 92 93 95 96
64 61 55 28 33 25 24 24 26 28 24 24 28 28 34 38 40 43 48 53 53 53 57 59 60 61 62 65 66 70 71 71 72 69 74 76 80 84 85 86 87 89 90 92
58 34 21 15 18 39 38 24 20 24 21 20 24 36 43 37 38 41 42 46 48 54 59 61 60 62 60 62 66 71 76 78 76 75 75 80 82 86 88 77 82 83 84 83
55 49 28 11 20 32 33 25 19 20 20 21 33 45 23 29 34 42 44 50 54 56 59 60 60 61 57 60 65 75 80 82 82 82 81 86 90 88 84 82 79 77 76 74
54 45 23 15 34 36 24 17 21 22 22 25 38 28 39 41 44 43 48 54 56 58 58 59 64 65 58 63 73 84 82 82 82 82 87 85 84 82 76 71 70 70 68 71
38 46 47 33 45 26 16 14 14 21 25 28 30 28 35 45 44 51 53 56 59 58 58 64 70 70 63 65 80 83 81 77 77 76 82 85 84 84 75 73 71 74 74 77
26 29 21 34 21 27 22 15 20 22 30 32 37 34 33 43 44 50 52 54 56 60 58 65 73 74 67 66 74 78 75 74 74 73 74 77 82 81 68 71 70 71 71 76
23 17 18 24 30 26 25 29 24 25 26 30 36 36 35 35 40 44 48 50 52 54 55 58 65 71 70 67 72 72 68 70 73 73 72 74 72 76 71 69 68 65 68 71
24 20 19 19 18 18 20 21 28 30 29 32 34 36 36 38 38 41 46 50 50 52 53 53 53 61 68 72 70 69 69 73 75 75 76 75 76 80 80 80 90 89 83 91
27 18 17 16 15 16 20 23 24 28 31 34 37 38 39 40 40 43 45 50 52 52 52 51 52 58 65 75 74 70 70 72 74 76 75 75 76 75 80 83 79 69 88 92
23 18 17 17 18 18 20 22 22 24 26 29 30 38 39 40 41 45 50 52 54 55 55 55 55 55 63 74 77 76 73 77 79 78 80 80 76 79 86 81 73 65 67 60
21 21 24 22 23 20 22 23 26 24 25 27 29 30 39 43 43 47 54 54 55 57 57 55 54 58 66 78 80 84 88 87 87 87 90 93 87 87 89 79 70 68 71 75
26 22 23 22 22 22 22 25 29 31 30 29 32 36 39 46 50 52 56 57 59 58 55 57 60 64 72 81 83 84 87 88 88 85 92 96 91 91 80 72 72 71 69 72
30 29 29 30 29 28 29 30 33 33 31 30 29 35 42 45 48 53 58 60 59 60 60 65 71 76 83 86 88 91 90 86 92 93 94 93 89 78 71 68 67 68 70 73
41 43 40 41 37 32 31 30 31 34 35 32 30 32 39 46 49 51 59 61 61 62 69 78 80 79 88 85 88 89 90 95 99 95 94 93 81 74 72 72 74 75 76 77
35 35 33 33 34 34 34 32 32 32 35 36 36 34 40 47 51 51 58 63 63 67 77 83 84 85 87 85 89 92 93 95 83 78 82 83 82 80 81 83 84 84 84 81
34 36 35 34 34 35 35 35 34 34 34 35 38 44 50 51 53 54 61 71 75 81 87 88 87 85 89 89 94 98 90 75 80 85 90 90 91 90 88 87 87 85 83 80
42 42 43 40 41 46 43 40 40 43 42 43 47 57 69 68 66 66 72 81 80 77 89 90 87 86 89 95 95 87 81 84 85 89 91 89 83 81 82 84 86 85 81 78
45 50 53 57 54 55 52 48 50 53 53 55 58 61 64 66 71 71 80 77 78 79 85 85 84 89 92 80 94 86 91 92 92 89 87 88 88 86 85 82 80 80 81 80
42 48 53 58 61 58 56 56 56 57 56 58 62 62 66 70 73 77 75 70 87 86 86 86 87 87 71 81 89 92 93 90 89 91 92 90 91 89 88 88 88 88 87 88
57 53 53 52 53 52 58 61 63 63 64 67 73 74 75 74 80 82 84 84 87 86 83 82 74 67 80 92 94 95 93 92 92 86 84 85 88 92 92 87 87 87 89 90
65 60 57 58 61 60 61 62 66 70 73 77 80 82 83 82 82 82 78 89 91 86 84 81 74 88 98 96 94 91 84 76 72 70 71 85 80 79 83 86 88 89 90 91
71 70 73 77 74 69 69 70 78 83 83 83 87 89 88 84 82 85 89 92 96 89 89 94 98 99 91 84 75 69 71 71 64 66 74 74 77 75 82 87 89 92 97 99
75 68 65 68 66 63 66 75 75 79 82 85 90 91 88 86 84 87 96 100 93 93 97 97 99 85 75 68 69 69 66 63 63 65 70 70 75 82 86 88 90 96 99 100
71 69 71 72 70 70 72 74 78 82 85 83 86 90 90 94 92 96 100 95 91 92 95 95 86 76 70 69 63 59 61 62 64 69 70 75 81 87 91 93 98 100 100 100

GFSNGP_925_rhum_138.txt.gz
RH
65 49 45 49 52 50 65 66 79 52 54 40 33 28 29 43 42 50 52 52 55 62 64 60 60 59 61 62 63 66 86 95 100 98 100 100 99 99 100 99 100 100 100 100
86 50 46 56 44 44 48 55 59 55 57 39 34 32 31 42 46 53 54 52 53 56 61 64 62 62 63 64 64 65 69 73 90 94 96 99 100 100 99 100 99 99 100 100
84 45 66 68 59 46 42 43 47 65 46 26 30 36 41 44 47 54 53 53 54 57 64 63 61 62 64 66 70 71 72 72 72 82 85 86 90 92 96 98 98 98 98 97
91 79 67 38 30 34 38 34 37 38 35 30 32 32 32 38 44 50 51 54 57 61 61 61 60 62 62 66 70 75 77 76 75 75 80 79 80 79 84 84 86 88 91 87
92 79 43 26 34 43 36 28 30 28 28 27 24 37 45 41 44 49 48 56 54 55 59 61 61 61 59 64 71 77 80 81 80 80 83 83 84 82 80 78 78 78 77 81
88 75 48 20 20 30 24 29 24 31 32 25 43 58 49 41 43 47 46 50 55 56 59 61 61 61 58 65 75 82 84 83 84 84 83 82 80 76 73 71 71 70 72 74
86 82 56 27 35 35 24 25 25 25 26 27 45 49 47 44 43 47 49 53 54 56 60 61 63 64 61 67 79 82 81 80 79 79 86 85 81 77 74 73 72 72 76 82
69 78 65 42 45 33 24 16 24 25 27 31 36 37 51 52 54 54 60 58 57 60 61 60 65 69 66 68 73 79 79 77 75 77 81 82 79 73 71 71 72 73 76 79
50 48 30 44 32 35 31 32 20 23 32 36 41 42 41 55 59 62 64 62 59 61 61 60 67 71 72 67 69 75 76 74 74 73 74 75 72 72 71 70 70 70 74 77
27 21 21 27 38 33 32 37 36 30 32 38 41 45 46 46 55 60 61 63 60 62 66 66 66 70 72 69 68 70 70 71 73 74 74 74 75 77 75 78 77 78 81 86
36 25 22 21 21 27 29 31 33 36 37 38 42 46 47 48 49 54 56 57 55 60 62 60 61 65 67 70 68 69 69 71 75 76 76 75 76 77 80 86 86 81 86 84
36 23 24 23 21 21 23 26 31 32 37 42 43 46 47 50 50 50 54 53 59 57 58 56 56 58 62 68 71 70 69 72 76 76 77 76 76 78 82 82 76 56 62 52
28 22 24 23 22 22 24 29 29 33 37 39 43 43 46 46 49 47 48 52 59 60 57 55 53 53 58 65 73 73 71 72 76 78 77 77 76 78 86 83 77 66 65 65
32 27 29 26 27 25 26 28 33 32 32 34 36 33 44 52 48 54 58 52 54 57 57 56 54 54 55 62 73 76 76 77 79 81 81 84 82 86 88 89 78 65 62 66
36 37 34 28 27 28 26 30 35 34 34 37 36 39 42 51 58 58 49 52 54 58 59 58 58 56 55 64 76 79 82 85 84 84 89 88 88 89 91 83 72 68 66 65
40 39 39 39 36 33 32 33 34 34 36 38 40 42 43 41 47 50 50 54 66 70 64 61 58 56 60 70 79 83 87 87 86 88 89 89 89 92 88 75 70 69 70 71
48 50 48 48 45 40 36 34 35 35 39 42 41 37 39 50 52 57 58 59 62 64 62 59 59 62 67 77 82 86 88 86 84 90 91 88 94 89 78 73 72 74 76 78
42 42 40 40 40 40 42 41 42 42 43 43 39 40 46 58 59 63 57 61 64 62 61 62 64 72 78 82 85 89 88 82 96 96 92 82 90 82 78 79 81 85 83 84
42 43 41 41 40 40 41 43 43 41 38 37 43 52 52 50 52 54 55 68 74 79 72 74 77 80 84 89 91 88 82 92 94 86 78 83 86 86 86 89 87 86 86 86
48 49 48 47 45 47 48 47 43 46 43 42 45 54 62 64 60 61 64 79 74 72 75 82 85 86 86 89 87 81 88 89 78 78 83 88 90 87 84 84 86 85 82 80
53 55 56 56 57 53 51 49 51 57 52 52 61 66 70 67 68 70 82 90 80 77 81 86 88 89 88 90 87 91 89 78 81 86 88 90 88 87 83 81 84 84 86 87
48 50 56 58 63 61 58 55 54 54 55 56 59 63 68 74 74 76 78 83 80 82 88 96 93 88 89 93 96 85 81 86 90 90 89 88 84 87 90 89 87 85 84 84
67 63 57 56 59 57 58 58 60 61 64 65 70 73 76 76 78 90 93 84 84 94 92 95 91 88 93 91 91 87 92 91 89 89 87 84 81 80 83 75 73 80 74 74
65 64 59 58 58 59 59 62 64 67 70 74 76 78 80 86 86 84 82 90 91 92 89 90 91 94 95 89 93 94 93 90 86 75 67 68 64 61 62 65 69 72 74 81
72 70 72 76 69 66 71 71 77 79 79 81 83 83 84 84 80 87 85 92 91 86 86 93 96 99 95 94 92 89 84 73 65 58 58 58 62 63 67 72 73 82 96 94
76 76 68 67 70 64 66 74 84 82 83 91 91 91 90 86 84 90 96 96 92 90 97 100 99 96 90 83 77 70 66 66 67 58 59 62 66 72 76 78 88 93 94 94
76 72 76 72 70 67 68 71 78 83 83 86 90 90 89 88 95 100 99 100 100 100 100 96 91 81 73 69 65 60 55 54 56 60 64 67 74 80 87 94 95 96 96 94